<?xml version="1.0" encoding="UTF-8" standalone="yes"?>
<gpx xmlns="http://www.topografix.com/GPX/1/1" xmlns:gpxx="http://www.garmin.com/xmlschemas/GpxExtensions/v3" xmlns:rcxx="http://www.routeconverter.de/xmlschemas/RouteCatalogExtensions/1.0" xmlns:nmea="http://trekbuddy.net/2009/01/gpx/nmea" creator="Generated by Christian Pesch's RouteConverter. See http://www.routeconverter.de" version="1.1">
    <metadata>
        <link href="http://www.garmin.com">
            <text>Garmin International</text>
        </link>
        <time>2011-02-27T18:10:37Z</time>
        <bounds maxlon="11.368732005357742" maxlat="50.131266675889492" minlon="10.876469034701586" minlat="49.379514986649156"/>
    </metadata>
    <trk>
        <name>Track Nbg-Feuerstein-Nbg</name>
        <trkseg>
            <trkpt lon="10.992776993662119" lat="49.51363197527826">
                <ele>289.49</ele>
                <time>2011-02-26T08:53:08.000Z</time>
                <name>Position 1</name>
            </trkpt>
            <trkpt lon="10.992208030074835" lat="49.517449010163546">
                <ele>290.94</ele>
                <time>2011-02-26T08:53:25.000Z</time>
                <name>Position 2</name>
            </trkpt>
            <trkpt lon="10.992247005924582" lat="49.521727971732616">
                <ele>290.46</ele>
                <time>2011-02-26T08:53:44.000Z</time>
                <name>Position 3</name>
            </trkpt>
            <trkpt lon="10.992487985640764" lat="49.52745197340846">
                <ele>289.01</ele>
                <time>2011-02-26T08:54:09.000Z</time>
                <name>Position 4</name>
            </trkpt>
            <trkpt lon="10.992674985900521" lat="49.531991025432944">
                <ele>280.84</ele>
                <time>2011-02-26T08:54:29.000Z</time>
                <name>Position 5</name>
            </trkpt>
            <trkpt lon="10.992885036394" lat="49.5369409583509">
                <ele>279.4</ele>
                <time>2011-02-26T08:54:52.000Z</time>
                <name>Position 6</name>
            </trkpt>
            <trkpt lon="10.993069019168615" lat="49.54105697572231">
                <ele>279.4</ele>
                <time>2011-02-26T08:55:11.000Z</time>
                <name>Position 7</name>
            </trkpt>
            <trkpt lon="10.99325300194323" lat="49.545312970876694">
                <ele>279.88</ele>
                <time>2011-02-26T08:55:30.000Z</time>
                <name>Position 8</name>
            </trkpt>
            <trkpt lon="10.993298012763262" lat="49.54936997964978">
                <ele>280.84</ele>
                <time>2011-02-26T08:55:48.000Z</time>
                <name>Position 9</name>
            </trkpt>
            <trkpt lon="10.992943039163947" lat="49.55299498513341">
                <ele>281.8</ele>
                <time>2011-02-26T08:56:05.000Z</time>
                <name>Position 10</name>
            </trkpt>
            <trkpt lon="10.992466025054455" lat="49.55716598778963">
                <ele>280.84</ele>
                <time>2011-02-26T08:56:25.000Z</time>
                <name>Position 11</name>
            </trkpt>
            <trkpt lon="10.991882979869843" lat="49.562202002853155">
                <ele>278.44</ele>
                <time>2011-02-26T08:56:48.000Z</time>
                <name>Position 12</name>
            </trkpt>
            <trkpt lon="10.991481989622116" lat="49.565683007240295">
                <ele>277.0</ele>
                <time>2011-02-26T08:57:05.000Z</time>
                <name>Position 13</name>
            </trkpt>
            <trkpt lon="10.991108994930983" lat="49.56912998110056">
                <ele>275.56</ele>
                <time>2011-02-26T08:57:22.000Z</time>
                <name>Position 14</name>
            </trkpt>
            <trkpt lon="10.99065301939845" lat="49.57150197587907">
                <ele>274.59</ele>
                <time>2011-02-26T08:57:34.000Z</time>
                <name>Position 15</name>
            </trkpt>
            <trkpt lon="10.989547027274966" lat="49.573869025334716">
                <ele>273.63</ele>
                <time>2011-02-26T08:57:47.000Z</time>
                <name>Position 16</name>
            </trkpt>
            <trkpt lon="10.988790979608893" lat="49.5758400298655">
                <ele>271.23</ele>
                <time>2011-02-26T08:57:57.000Z</time>
                <name>Position 17</name>
            </trkpt>
            <trkpt lon="10.988499037921429" lat="49.57781002856791">
                <ele>273.15</ele>
                <time>2011-02-26T08:58:07.000Z</time>
                <name>Position 18</name>
            </trkpt>
            <trkpt lon="10.988501971587539" lat="49.5810570102185">
                <ele>277.48</ele>
                <time>2011-02-26T08:58:23.000Z</time>
                <name>Position 19</name>
            </trkpt>
            <trkpt lon="10.98867698572576" lat="49.584370041266084">
                <ele>275.07</ele>
                <time>2011-02-26T08:58:40.000Z</time>
                <name>Position 20</name>
            </trkpt>
            <trkpt lon="10.9894710034132" lat="49.58608196116984">
                <ele>272.67</ele>
                <time>2011-02-26T08:58:49.000Z</time>
                <name>Position 21</name>
            </trkpt>
            <trkpt lon="10.990876983851194" lat="49.58757000043988">
                <ele>271.23</ele>
                <time>2011-02-26T08:58:58.000Z</time>
                <name>Position 22</name>
            </trkpt>
            <trkpt lon="10.992947984486818" lat="49.588883025571704">
                <ele>269.79</ele>
                <time>2011-02-26T08:59:08.000Z</time>
                <name>Position 23</name>
            </trkpt>
            <trkpt lon="10.995843010023236" lat="49.590636016801">
                <ele>269.79</ele>
                <time>2011-02-26T08:59:21.000Z</time>
                <name>Position 24</name>
            </trkpt>
            <trkpt lon="10.997488964349031" lat="49.59243401885033">
                <ele>269.31</ele>
                <time>2011-02-26T08:59:32.000Z</time>
                <name>Position 25</name>
            </trkpt>
            <trkpt lon="10.998225985094905" lat="49.59420603699982">
                <ele>269.31</ele>
                <time>2011-02-26T08:59:41.000Z</time>
                <name>Position 26</name>
            </trkpt>
            <trkpt lon="10.998378032818437" lat="49.59661298431456">
                <ele>269.31</ele>
                <time>2011-02-26T08:59:53.000Z</time>
                <name>Position 27</name>
            </trkpt>
            <trkpt lon="10.998462019488215" lat="49.60060796700418">
                <ele>267.86</ele>
                <time>2011-02-26T09:00:13.000Z</time>
                <name>Position 28</name>
            </trkpt>
            <trkpt lon="10.99855799227953" lat="49.604594986885786">
                <ele>267.86</ele>
                <time>2011-02-26T09:00:33.000Z</time>
                <name>Position 29</name>
            </trkpt>
            <trkpt lon="10.998658994212747" lat="49.60924400947988">
                <ele>267.38</ele>
                <time>2011-02-26T09:00:56.000Z</time>
                <name>Position 30</name>
            </trkpt>
            <trkpt lon="10.998931992799044" lat="49.61119498126209">
                <ele>266.42</ele>
                <time>2011-02-26T09:01:06.000Z</time>
                <name>Position 31</name>
            </trkpt>
            <trkpt lon="11.00019003264606" lat="49.61277203634381">
                <ele>266.9</ele>
                <time>2011-02-26T09:01:15.000Z</time>
                <name>Position 32</name>
            </trkpt>
            <trkpt lon="11.00113702006638" lat="49.614476999267936">
                <ele>265.94</ele>
                <time>2011-02-26T09:01:24.000Z</time>
                <name>Position 33</name>
            </trkpt>
            <trkpt lon="11.001810003072023" lat="49.61778097786009">
                <ele>262.58</ele>
                <time>2011-02-26T09:01:40.000Z</time>
                <name>Position 34</name>
            </trkpt>
            <trkpt lon="11.002546017989516" lat="49.61990403011441">
                <ele>264.02</ele>
                <time>2011-02-26T09:01:50.000Z</time>
                <name>Position 35</name>
            </trkpt>
            <trkpt lon="11.00401603616774" lat="49.621589966118336">
                <ele>264.98</ele>
                <time>2011-02-26T09:01:59.000Z</time>
                <name>Position 36</name>
            </trkpt>
            <trkpt lon="11.006992030888796" lat="49.62480400688946">
                <ele>265.94</ele>
                <time>2011-02-26T09:02:16.000Z</time>
                <name>Position 37</name>
            </trkpt>
            <trkpt lon="11.008121995255351" lat="49.626893028616905">
                <ele>263.54</ele>
                <time>2011-02-26T09:02:26.000Z</time>
                <name>Position 38</name>
            </trkpt>
            <trkpt lon="11.008701017126441" lat="49.62972301058471">
                <ele>264.02</ele>
                <time>2011-02-26T09:02:39.000Z</time>
                <name>Position 39</name>
            </trkpt>
            <trkpt lon="11.009705001488328" lat="49.63395796716213">
                <ele>262.58</ele>
                <time>2011-02-26T09:02:58.000Z</time>
                <name>Position 40</name>
            </trkpt>
            <trkpt lon="11.011031018570065" lat="49.63636198081076">
                <ele>262.58</ele>
                <time>2011-02-26T09:03:09.000Z</time>
                <name>Position 41</name>
            </trkpt>
            <trkpt lon="11.01318801753223" lat="49.638840006664395">
                <ele>262.58</ele>
                <time>2011-02-26T09:03:21.000Z</time>
                <name>Position 42</name>
            </trkpt>
            <trkpt lon="11.016611019149423" lat="49.642040971666574">
                <ele>263.06</ele>
                <time>2011-02-26T09:03:38.000Z</time>
                <name>Position 43</name>
            </trkpt>
            <trkpt lon="11.021578973159194" lat="49.6462859865278">
                <ele>263.54</ele>
                <time>2011-02-26T09:04:01.000Z</time>
                <name>Position 44</name>
            </trkpt>
            <trkpt lon="11.02492201142013" lat="49.64877298101783">
                <ele>265.94</ele>
                <time>2011-02-26T09:04:15.000Z</time>
                <name>Position 45</name>
            </trkpt>
            <trkpt lon="11.027986016124487" lat="49.65032497420907">
                <ele>265.46</ele>
                <time>2011-02-26T09:04:26.000Z</time>
                <name>Position 46</name>
            </trkpt>
            <trkpt lon="11.032473016530275" lat="49.65253301896155">
                <ele>264.98</ele>
                <time>2011-02-26T09:04:42.000Z</time>
                <name>Position 47</name>
            </trkpt>
            <trkpt lon="11.034049987792969" lat="49.6539690066129">
                <ele>264.98</ele>
                <time>2011-02-26T09:04:50.000Z</time>
                <name>Position 48</name>
            </trkpt>
            <trkpt lon="11.036120988428593" lat="49.65682899579406">
                <ele>264.02</ele>
                <time>2011-02-26T09:05:04.000Z</time>
                <name>Position 49</name>
            </trkpt>
            <trkpt lon="11.039109975099564" lat="49.66100997291505">
                <ele>262.1</ele>
                <time>2011-02-26T09:05:24.000Z</time>
                <name>Position 50</name>
            </trkpt>
            <trkpt lon="11.041992008686066" lat="49.66499699279666">
                <ele>262.1</ele>
                <time>2011-02-26T09:05:43.000Z</time>
                <name>Position 51</name>
            </trkpt>
            <trkpt lon="11.044743033125997" lat="49.66880799271166">
                <ele>260.65</ele>
                <time>2011-02-26T09:06:01.000Z</time>
                <name>Position 52</name>
            </trkpt>
            <trkpt lon="11.046674977988005" lat="49.67157896608114">
                <ele>260.65</ele>
                <time>2011-02-26T09:06:14.000Z</time>
                <name>Position 53</name>
            </trkpt>
            <trkpt lon="11.050184983760118" lat="49.676587991416454">
                <ele>257.29</ele>
                <time>2011-02-26T09:06:38.000Z</time>
                <name>Position 54</name>
            </trkpt>
            <trkpt lon="11.05300197377801" lat="49.68059898354113">
                <ele>256.33</ele>
                <time>2011-02-26T09:06:57.000Z</time>
                <name>Position 55</name>
            </trkpt>
            <trkpt lon="11.056134039536119" lat="49.68500602059066">
                <ele>257.29</ele>
                <time>2011-02-26T09:07:18.000Z</time>
                <name>Position 56</name>
            </trkpt>
            <trkpt lon="11.059143980965018" lat="49.6892780251801">
                <ele>258.25</ele>
                <time>2011-02-26T09:07:38.000Z</time>
                <name>Position 57</name>
            </trkpt>
            <trkpt lon="11.061115991324186" lat="49.69232903793454">
                <ele>259.21</ele>
                <time>2011-02-26T09:07:53.000Z</time>
                <name>Position 58</name>
            </trkpt>
            <trkpt lon="11.062016040086746" lat="49.69421798363328">
                <ele>260.65</ele>
                <time>2011-02-26T09:08:03.000Z</time>
                <name>Position 59</name>
            </trkpt>
            <trkpt lon="11.062951041385531" lat="49.695411985740066">
                <ele>259.69</ele>
                <time>2011-02-26T09:08:11.000Z</time>
                <name>Position 60</name>
            </trkpt>
            <trkpt lon="11.06486395932734" lat="49.69705098308623">
                <ele>259.69</ele>
                <time>2011-02-26T09:08:23.000Z</time>
                <name>Position 61</name>
            </trkpt>
            <trkpt lon="11.065603997558355" lat="49.698181031271815">
                <ele>260.17</ele>
                <time>2011-02-26T09:08:32.000Z</time>
                <name>Position 62</name>
            </trkpt>
            <trkpt lon="11.065832991153002" lat="49.6987169701606">
                <ele>259.69</ele>
                <time>2011-02-26T09:08:37.000Z</time>
                <name>Position 63</name>
            </trkpt>
            <trkpt lon="11.065899962559342" lat="49.69880003482103">
                <ele>259.69</ele>
                <time>2011-02-26T09:08:38.000Z</time>
                <name>Position 64</name>
            </trkpt>
            <trkpt lon="11.065995013341308" lat="49.69885401427746">
                <ele>260.17</ele>
                <time>2011-02-26T09:08:39.000Z</time>
                <name>Position 65</name>
            </trkpt>
            <trkpt lon="11.066112024709582" lat="49.69888502731919">
                <ele>260.17</ele>
                <time>2011-02-26T09:08:40.000Z</time>
                <name>Position 66</name>
            </trkpt>
            <trkpt lon="11.066241022199392" lat="49.6989069879055">
                <ele>260.65</ele>
                <time>2011-02-26T09:08:41.000Z</time>
                <name>Position 67</name>
            </trkpt>
            <trkpt lon="11.066374965012074" lat="49.6989069879055">
                <ele>261.62</ele>
                <time>2011-02-26T09:08:42.000Z</time>
                <name>Position 68</name>
            </trkpt>
            <trkpt lon="11.066526006907225" lat="49.698893995955586">
                <ele>262.1</ele>
                <time>2011-02-26T09:08:43.000Z</time>
                <name>Position 69</name>
            </trkpt>
            <trkpt lon="11.066685011610389" lat="49.69887304119766">
                <ele>262.58</ele>
                <time>2011-02-26T09:08:44.000Z</time>
                <name>Position 70</name>
            </trkpt>
            <trkpt lon="11.068463986739516" lat="49.698783019557595">
                <ele>267.38</ele>
                <time>2011-02-26T09:08:53.000Z</time>
                <name>Position 71</name>
            </trkpt>
            <trkpt lon="11.068690968677402" lat="49.69877296127379">
                <ele>267.86</ele>
                <time>2011-02-26T09:08:54.000Z</time>
                <name>Position 72</name>
            </trkpt>
            <trkpt lon="11.068915016949177" lat="49.69875200651586">
                <ele>267.86</ele>
                <time>2011-02-26T09:08:55.000Z</time>
                <name>Position 73</name>
            </trkpt>
            <trkpt lon="11.069140993058681" lat="49.698721999302506">
                <ele>267.86</ele>
                <time>2011-02-26T09:08:56.000Z</time>
                <name>Position 74</name>
            </trkpt>
            <trkpt lon="11.071397988125682" lat="49.69813400879502">
                <ele>267.38</ele>
                <time>2011-02-26T09:09:06.000Z</time>
                <name>Position 75</name>
            </trkpt>
            <trkpt lon="11.073644002899528" lat="49.697191966697574">
                <ele>263.54</ele>
                <time>2011-02-26T09:09:17.000Z</time>
                <name>Position 76</name>
            </trkpt>
            <trkpt lon="11.076423022896051" lat="49.695988995954394">
                <ele>264.02</ele>
                <time>2011-02-26T09:09:31.000Z</time>
                <name>Position 77</name>
            </trkpt>
            <trkpt lon="11.07852503657341" lat="49.695557998493314">
                <ele>264.98</ele>
                <time>2011-02-26T09:09:40.000Z</time>
                <name>Position 78</name>
            </trkpt>
            <trkpt lon="11.079606972634792" lat="49.69530997797847">
                <ele>265.46</ele>
                <time>2011-02-26T09:09:45.000Z</time>
                <name>Position 79</name>
            </trkpt>
            <trkpt lon="11.07981400564313" lat="49.69528499990702">
                <ele>265.46</ele>
                <time>2011-02-26T09:09:46.000Z</time>
                <name>Position 80</name>
            </trkpt>
            <trkpt lon="11.080021038651466" lat="49.695277037099004">
                <ele>265.46</ele>
                <time>2011-02-26T09:09:47.000Z</time>
                <name>Position 81</name>
            </trkpt>
            <trkpt lon="11.080229999497533" lat="49.695283994078636">
                <ele>265.46</ele>
                <time>2011-02-26T09:09:48.000Z</time>
                <name>Position 82</name>
            </trkpt>
            <trkpt lon="11.08044097200036" lat="49.69529598020017">
                <ele>265.46</ele>
                <time>2011-02-26T09:09:49.000Z</time>
                <name>Position 83</name>
            </trkpt>
            <trkpt lon="11.0806530341506" lat="49.69531500712037">
                <ele>265.46</ele>
                <time>2011-02-26T09:09:50.000Z</time>
                <name>Position 84</name>
            </trkpt>
            <trkpt lon="11.082678018137813" lat="49.69529296271503">
                <ele>264.98</ele>
                <time>2011-02-26T09:10:00.000Z</time>
                <name>Position 85</name>
            </trkpt>
            <trkpt lon="11.082882033661008" lat="49.6952529810369">
                <ele>265.46</ele>
                <time>2011-02-26T09:10:01.000Z</time>
                <name>Position 86</name>
            </trkpt>
            <trkpt lon="11.083268020302057" lat="49.69514401629567">
                <ele>265.94</ele>
                <time>2011-02-26T09:10:03.000Z</time>
                <name>Position 87</name>
            </trkpt>
            <trkpt lon="11.083450997248292" lat="49.69505902379751">
                <ele>266.42</ele>
                <time>2011-02-26T09:10:04.000Z</time>
                <name>Position 88</name>
            </trkpt>
            <trkpt lon="11.084352973848581" lat="49.694616962224245">
                <ele>267.86</ele>
                <time>2011-02-26T09:10:09.000Z</time>
                <name>Position 89</name>
            </trkpt>
            <trkpt lon="11.08537900261581" lat="49.694400038570166">
                <ele>267.86</ele>
                <time>2011-02-26T09:10:14.000Z</time>
                <name>Position 90</name>
            </trkpt>
            <trkpt lon="11.085577988997102" lat="49.694402972236276">
                <ele>267.38</ele>
                <time>2011-02-26T09:10:15.000Z</time>
                <name>Position 91</name>
            </trkpt>
            <trkpt lon="11.085782004520297" lat="49.69442702829838">
                <ele>266.9</ele>
                <time>2011-02-26T09:10:16.000Z</time>
                <name>Position 92</name>
            </trkpt>
            <trkpt lon="11.085993982851505" lat="49.69445996917784">
                <ele>266.42</ele>
                <time>2011-02-26T09:10:17.000Z</time>
                <name>Position 93</name>
            </trkpt>
            <trkpt lon="11.086201015859842" lat="49.694507997483015">
                <ele>265.94</ele>
                <time>2011-02-26T09:10:18.000Z</time>
                <name>Position 94</name>
            </trkpt>
            <trkpt lon="11.08641198836267" lat="49.694575974717736">
                <ele>265.46</ele>
                <time>2011-02-26T09:10:19.000Z</time>
                <name>Position 95</name>
            </trkpt>
            <trkpt lon="11.086618015542626" lat="49.69466297887266">
                <ele>264.98</ele>
                <time>2011-02-26T09:10:20.000Z</time>
                <name>Position 96</name>
            </trkpt>
            <trkpt lon="11.086809961125255" lat="49.69476004131138">
                <ele>264.5</ele>
                <time>2011-02-26T09:10:21.000Z</time>
                <name>Position 97</name>
            </trkpt>
            <trkpt lon="11.086996961385012" lat="49.69486397691071">
                <ele>263.54</ele>
                <time>2011-02-26T09:10:22.000Z</time>
                <name>Position 98</name>
            </trkpt>
            <trkpt lon="11.087343972176313" lat="49.695128006860614">
                <ele>262.58</ele>
                <time>2011-02-26T09:10:24.000Z</time>
                <name>Position 99</name>
            </trkpt>
            <trkpt lon="11.089242976158857" lat="49.6968349814415">
                <ele>260.65</ele>
                <time>2011-02-26T09:10:35.000Z</time>
                <name>Position 100</name>
            </trkpt>
            <trkpt lon="11.091238958761096" lat="49.69777601771057">
                <ele>262.1</ele>
                <time>2011-02-26T09:10:43.000Z</time>
                <name>Position 101</name>
            </trkpt>
            <trkpt lon="11.093661999329925" lat="49.69822101294994">
                <ele>264.02</ele>
                <time>2011-02-26T09:10:51.000Z</time>
                <name>Position 102</name>
            </trkpt>
            <trkpt lon="11.097850017249584" lat="49.69861697405577">
                <ele>266.42</ele>
                <time>2011-02-26T09:11:05.000Z</time>
                <name>Position 103</name>
            </trkpt>
            <trkpt lon="11.098098959773779" lat="49.698590990155935">
                <ele>266.42</ele>
                <time>2011-02-26T09:11:06.000Z</time>
                <name>Position 104</name>
            </trkpt>
            <trkpt lon="11.098327031359076" lat="49.69853198155761">
                <ele>266.42</ele>
                <time>2011-02-26T09:11:07.000Z</time>
                <name>Position 105</name>
            </trkpt>
            <trkpt lon="11.098515959456563" lat="49.698440032079816">
                <ele>266.9</ele>
                <time>2011-02-26T09:11:08.000Z</time>
                <name>Position 106</name>
            </trkpt>
            <trkpt lon="11.098673036321998" lat="49.69832603819668">
                <ele>266.9</ele>
                <time>2011-02-26T09:11:09.000Z</time>
                <name>Position 107</name>
            </trkpt>
            <trkpt lon="11.098801027983427" lat="49.69819704070687">
                <ele>266.9</ele>
                <time>2011-02-26T09:11:10.000Z</time>
                <name>Position 108</name>
            </trkpt>
            <trkpt lon="11.098906975239515" lat="49.698055973276496">
                <ele>266.9</ele>
                <time>2011-02-26T09:11:11.000Z</time>
                <name>Position 109</name>
            </trkpt>
            <trkpt lon="11.099010994657874" lat="49.69791096635163">
                <ele>267.38</ele>
                <time>2011-02-26T09:11:12.000Z</time>
                <name>Position 110</name>
            </trkpt>
            <trkpt lon="11.099459007382393" lat="49.69739195890725">
                <ele>267.38</ele>
                <time>2011-02-26T09:11:16.000Z</time>
                <name>Position 111</name>
            </trkpt>
            <trkpt lon="11.099942978471518" lat="49.69690295867622">
                <ele>266.9</ele>
                <time>2011-02-26T09:11:22.000Z</time>
                <name>Position 112</name>
            </trkpt>
            <trkpt lon="11.103744506835938" lat="49.698338041169535">
                <ele>267.38</ele>
                <name>Position 113</name>
            </trkpt>
            <trkpt lon="11.107521057128906" lat="49.69911526330555">
                <name>Neue Position</name>
            </trkpt>
            <trkpt lon="11.110095977783203" lat="49.69967041436308">
                <name>Neue Position</name>
            </trkpt>
            <trkpt lon="11.112497979775071" lat="49.69982799142599">
                <ele>264.5</ele>
                <time>2011-02-26T10:41:16.000Z</time>
                <name>Position 116</name>
            </trkpt>
            <trkpt lon="11.112508038058877" lat="49.69987300224602">
                <ele>264.5</ele>
                <time>2011-02-26T10:41:17.000Z</time>
                <name>Position 117</name>
            </trkpt>
            <trkpt lon="11.112508960068226" lat="49.69991801306605">
                <ele>264.5</ele>
                <time>2011-02-26T10:41:18.000Z</time>
                <name>Position 118</name>
            </trkpt>
            <trkpt lon="11.112498985603452" lat="49.699964029714465">
                <ele>264.98</ele>
                <time>2011-02-26T10:41:19.000Z</time>
                <name>Position 119</name>
            </trkpt>
            <trkpt lon="11.112485993653536" lat="49.700006023049355">
                <ele>264.98</ele>
                <time>2011-02-26T10:41:20.000Z</time>
                <name>Position 120</name>
            </trkpt>
            <trkpt lon="11.11247199587524" lat="49.7000449988991">
                <ele>264.98</ele>
                <time>2011-02-26T10:41:21.000Z</time>
                <name>Position 121</name>
            </trkpt>
            <trkpt lon="11.11245397478342" lat="49.700115993618965">
                <ele>265.46</ele>
                <time>2011-02-26T10:41:30.000Z</time>
                <name>Position 122</name>
            </trkpt>
            <trkpt lon="11.112508960068226" lat="49.70020802691579">
                <ele>264.98</ele>
                <time>2011-02-26T10:41:39.000Z</time>
                <name>Position 123</name>
            </trkpt>
            <trkpt lon="11.113125029951334" lat="49.70069199800491">
                <ele>264.98</ele>
                <time>2011-02-26T10:41:47.000Z</time>
                <name>Position 124</name>
            </trkpt>
            <trkpt lon="11.113358968868852" lat="49.70083700492978">
                <ele>264.5</ele>
                <time>2011-02-26T10:41:49.000Z</time>
                <name>Position 125</name>
            </trkpt>
            <trkpt lon="11.113494001328945" lat="49.70090297050774">
                <ele>264.5</ele>
                <time>2011-02-26T10:41:50.000Z</time>
                <name>Position 126</name>
            </trkpt>
            <trkpt lon="11.114826975390315" lat="49.70141996629536">
                <ele>264.98</ele>
                <time>2011-02-26T10:41:59.000Z</time>
                <name>Position 127</name>
            </trkpt>
            <trkpt lon="11.114925965666771" lat="49.70148500986397">
                <ele>264.98</ele>
                <time>2011-02-26T10:42:00.000Z</time>
                <name>Position 128</name>
            </trkpt>
            <trkpt lon="11.11498799175024" lat="49.70155902206898">
                <ele>264.98</ele>
                <time>2011-02-26T10:42:01.000Z</time>
                <name>Position 129</name>
            </trkpt>
            <trkpt lon="11.115025961771607" lat="49.70163404010236">
                <ele>264.98</ele>
                <time>2011-02-26T10:42:02.000Z</time>
                <name>Position 130</name>
            </trkpt>
            <trkpt lon="11.115055968984962" lat="49.70171903260052">
                <ele>264.98</ele>
                <time>2011-02-26T10:42:03.000Z</time>
                <name>Position 131</name>
            </trkpt>
            <trkpt lon="11.115085976198316" lat="49.70180695876479">
                <ele>264.98</ele>
                <time>2011-02-26T10:42:04.000Z</time>
                <name>Position 132</name>
            </trkpt>
            <trkpt lon="11.115163005888462" lat="49.70209999009967">
                <ele>264.5</ele>
                <time>2011-02-26T10:42:07.000Z</time>
                <name>Position 133</name>
            </trkpt>
            <trkpt lon="11.115500964224339" lat="49.70308503136039">
                <ele>264.02</ele>
                <time>2011-02-26T10:42:17.000Z</time>
                <name>Position 134</name>
            </trkpt>
            <trkpt lon="11.115845963358879" lat="49.7035919688642">
                <ele>263.54</ele>
                <time>2011-02-26T10:42:23.000Z</time>
                <name>Position 135</name>
            </trkpt>
            <trkpt lon="11.115979989990592" lat="49.703810987994075">
                <ele>263.54</ele>
                <time>2011-02-26T10:42:26.000Z</time>
                <name>Position 136</name>
            </trkpt>
            <trkpt lon="11.11601997166872" lat="49.70386102795601">
                <ele>263.54</ele>
                <time>2011-02-26T10:42:27.000Z</time>
                <name>Position 137</name>
            </trkpt>
            <trkpt lon="11.116022989153862" lat="49.70391098409891">
                <ele>263.06</ele>
                <time>2011-02-26T10:42:28.000Z</time>
                <name>Position 138</name>
            </trkpt>
            <trkpt lon="11.116000022739172" lat="49.703958006575704">
                <ele>263.06</ele>
                <time>2011-02-26T10:42:29.000Z</time>
                <name>Position 139</name>
            </trkpt>
            <trkpt lon="11.11595501191914" lat="49.70399597659707">
                <ele>262.58</ele>
                <time>2011-02-26T10:42:30.000Z</time>
                <name>Position 140</name>
            </trkpt>
            <trkpt lon="11.115893991664052" lat="49.70403101295233">
                <ele>262.58</ele>
                <time>2011-02-26T10:42:31.000Z</time>
                <name>Position 141</name>
            </trkpt>
            <trkpt lon="11.115822996944189" lat="49.704068982973695">
                <ele>263.54</ele>
                <time>2011-02-26T10:42:32.000Z</time>
                <name>Position 142</name>
            </trkpt>
            <trkpt lon="11.114862011745572" lat="49.704562006518245">
                <ele>265.46</ele>
                <time>2011-02-26T10:42:42.000Z</time>
                <name>Position 143</name>
            </trkpt>
            <trkpt lon="11.114741982892156" lat="49.704580027610064">
                <ele>264.98</ele>
                <time>2011-02-26T10:42:43.000Z</time>
                <name>Position 144</name>
            </trkpt>
            <trkpt lon="11.11460099928081" lat="49.70463601872325">
                <ele>264.02</ele>
                <time>2011-02-26T10:42:45.000Z</time>
                <name>Position 145</name>
            </trkpt>
            <trkpt lon="11.114571997895837" lat="49.704674994573">
                <ele>264.02</ele>
                <time>2011-02-26T10:42:46.000Z</time>
                <name>Position 146</name>
            </trkpt>
            <trkpt lon="11.114579038694501" lat="49.704711036756635">
                <ele>264.02</ele>
                <time>2011-02-26T10:42:47.000Z</time>
                <name>Position 147</name>
            </trkpt>
            <trkpt lon="11.114605022594333" lat="49.704755041748285">
                <ele>263.54</ele>
                <time>2011-02-26T10:42:48.000Z</time>
                <name>Position 148</name>
            </trkpt>
            <trkpt lon="11.114645004272461" lat="49.70480499789119">
                <ele>263.54</ele>
                <time>2011-02-26T10:42:49.000Z</time>
                <name>Position 149</name>
            </trkpt>
            <trkpt lon="11.114691020920873" lat="49.70485998317599">
                <ele>263.54</ele>
                <time>2011-02-26T10:42:50.000Z</time>
                <name>Position 150</name>
            </trkpt>
            <trkpt lon="11.115273982286453" lat="49.705316964536905">
                <ele>262.1</ele>
                <time>2011-02-26T10:42:57.000Z</time>
                <name>Position 151</name>
            </trkpt>
            <trkpt lon="11.115411026403308" lat="49.70538502559066">
                <ele>262.58</ele>
                <time>2011-02-26T10:42:58.000Z</time>
                <name>Position 152</name>
            </trkpt>
            <trkpt lon="11.117019010707736" lat="49.70610301941633">
                <ele>259.69</ele>
                <time>2011-02-26T10:43:07.000Z</time>
                <name>Position 153</name>
            </trkpt>
            <trkpt lon="11.118629006668925" lat="49.707246981561184">
                <ele>260.65</ele>
                <time>2011-02-26T10:43:17.000Z</time>
                <name>Position 154</name>
            </trkpt>
            <trkpt lon="11.120389960706234" lat="49.70877097919583">
                <ele>260.17</ele>
                <time>2011-02-26T10:43:28.000Z</time>
                <name>Position 155</name>
            </trkpt>
            <trkpt lon="11.12319303676486" lat="49.710452975705266">
                <ele>259.69</ele>
                <time>2011-02-26T10:43:40.000Z</time>
                <name>Position 156</name>
            </trkpt>
            <trkpt lon="11.125914976000786" lat="49.71224402077496">
                <ele>260.65</ele>
                <time>2011-02-26T10:43:53.000Z</time>
                <name>Position 157</name>
            </trkpt>
            <trkpt lon="11.126746041700244" lat="49.71293502487242">
                <ele>260.17</ele>
                <time>2011-02-26T10:43:59.000Z</time>
                <name>Position 158</name>
            </trkpt>
            <trkpt lon="11.127956975251436" lat="49.714058032259345">
                <ele>258.73</ele>
                <time>2011-02-26T10:44:09.000Z</time>
                <name>Position 159</name>
            </trkpt>
            <trkpt lon="11.12914402037859" lat="49.715110966935754">
                <ele>259.69</ele>
                <time>2011-02-26T10:44:17.000Z</time>
                <name>Position 160</name>
            </trkpt>
            <trkpt lon="11.129265977069736" lat="49.71526502631605">
                <ele>259.69</ele>
                <time>2011-02-26T10:44:18.000Z</time>
                <name>Position 161</name>
            </trkpt>
            <trkpt lon="11.130127971991897" lat="49.71696898341179">
                <ele>259.69</ele>
                <time>2011-02-26T10:44:28.000Z</time>
                <name>Position 162</name>
            </trkpt>
            <trkpt lon="11.130773965269327" lat="49.71811596304178">
                <ele>257.29</ele>
                <time>2011-02-26T10:44:34.000Z</time>
                <name>Position 163</name>
            </trkpt>
            <trkpt lon="11.131175039336085" lat="49.71843900159001">
                <ele>256.81</ele>
                <time>2011-02-26T10:44:36.000Z</time>
                <name>Position 164</name>
            </trkpt>
            <trkpt lon="11.132685961201787" lat="49.71985696814954">
                <ele>258.25</ele>
                <time>2011-02-26T10:44:44.000Z</time>
                <name>Position 165</name>
            </trkpt>
            <trkpt lon="11.134918984025717" lat="49.722630036994815">
                <ele>260.65</ele>
                <time>2011-02-26T10:44:58.000Z</time>
                <name>Position 166</name>
            </trkpt>
            <trkpt lon="11.135791959241033" lat="49.72404599189758">
                <ele>261.62</ele>
                <time>2011-02-26T10:45:06.000Z</time>
                <name>Position 167</name>
            </trkpt>
            <trkpt lon="11.13610703498125" lat="49.7246459685266">
                <ele>262.58</ele>
                <time>2011-02-26T10:45:13.000Z</time>
                <name>Position 168</name>
            </trkpt>
            <trkpt lon="11.136582037433982" lat="49.725660011172295">
                <ele>263.06</ele>
                <time>2011-02-26T10:45:22.000Z</time>
                <name>Position 169</name>
            </trkpt>
            <trkpt lon="11.13741503097117" lat="49.72713002935052">
                <ele>261.62</ele>
                <time>2011-02-26T10:45:31.000Z</time>
                <name>Position 170</name>
            </trkpt>
            <trkpt lon="11.138998959213495" lat="49.72860096953809">
                <ele>264.98</ele>
                <time>2011-02-26T10:45:40.000Z</time>
                <name>Position 171</name>
            </trkpt>
            <trkpt lon="11.140022976323962" lat="49.73017701879144">
                <ele>265.94</ele>
                <time>2011-02-26T10:45:49.000Z</time>
                <name>Position 172</name>
            </trkpt>
            <trkpt lon="11.14051197655499" lat="49.730937005952">
                <ele>266.42</ele>
                <time>2011-02-26T10:45:54.000Z</time>
                <name>Position 173</name>
            </trkpt>
            <trkpt lon="11.140652960166335" lat="49.73104395903647">
                <ele>266.42</ele>
                <time>2011-02-26T10:45:55.000Z</time>
                <name>Position 174</name>
            </trkpt>
            <trkpt lon="11.14078899845481" lat="49.73115300759673">
                <ele>266.42</ele>
                <time>2011-02-26T10:45:56.000Z</time>
                <name>Position 175</name>
            </trkpt>
            <trkpt lon="11.141685023903847" lat="49.731894973665476">
                <ele>267.86</ele>
                <time>2011-02-26T10:46:04.000Z</time>
                <name>Position 176</name>
            </trkpt>
            <trkpt lon="11.142867039889097" lat="49.73272000439465">
                <ele>269.79</ele>
                <time>2011-02-26T10:46:15.000Z</time>
                <name>Position 177</name>
            </trkpt>
            <trkpt lon="11.142987990751863" lat="49.73277901299298">
                <ele>269.79</ele>
                <time>2011-02-26T10:46:16.000Z</time>
                <name>Position 178</name>
            </trkpt>
            <trkpt lon="11.143115982413292" lat="49.73282997496426">
                <ele>270.27</ele>
                <time>2011-02-26T10:46:17.000Z</time>
                <name>Position 179</name>
            </trkpt>
            <trkpt lon="11.144664036110044" lat="49.733419977128506">
                <ele>274.11</ele>
                <time>2011-02-26T10:46:30.000Z</time>
                <name>Position 180</name>
            </trkpt>
            <trkpt lon="11.144952960312366" lat="49.73349801264703">
                <ele>272.19</ele>
                <time>2011-02-26T10:46:33.000Z</time>
                <name>Position 181</name>
            </trkpt>
            <trkpt lon="11.14506502635777" lat="49.733589040115476">
                <ele>271.71</ele>
                <time>2011-02-26T10:46:36.000Z</time>
                <name>Position 182</name>
            </trkpt>
            <trkpt lon="11.14504599943757" lat="49.73361804150045">
                <ele>271.71</ele>
                <time>2011-02-26T10:46:37.000Z</time>
                <name>Position 183</name>
            </trkpt>
            <trkpt lon="11.145010041072965" lat="49.73364695906639">
                <ele>271.71</ele>
                <time>2011-02-26T10:46:38.000Z</time>
                <name>Position 184</name>
            </trkpt>
            <trkpt lon="11.144962012767792" lat="49.733673026785254">
                <ele>271.23</ele>
                <time>2011-02-26T10:46:39.000Z</time>
                <name>Position 185</name>
            </trkpt>
            <trkpt lon="11.144905015826225" lat="49.73370898514986">
                <ele>270.75</ele>
                <time>2011-02-26T10:46:40.000Z</time>
                <name>Position 186</name>
            </trkpt>
            <trkpt lon="11.144799990579486" lat="49.733718959614635">
                <ele>270.75</ele>
                <time>2011-02-26T10:46:41.000Z</time>
                <name>Position 187</name>
            </trkpt>
            <trkpt lon="11.144434958696365" lat="49.733781991526484">
                <ele>269.31</ele>
                <time>2011-02-26T10:46:44.000Z</time>
                <name>Position 188</name>
            </trkpt>
            <trkpt lon="11.14431300200522" lat="49.733807975426316">
                <ele>269.31</ele>
                <time>2011-02-26T10:46:45.000Z</time>
                <name>Position 189</name>
            </trkpt>
            <trkpt lon="11.144194984808564" lat="49.733849968761206">
                <ele>268.83</ele>
                <time>2011-02-26T10:46:46.000Z</time>
                <name>Position 190</name>
            </trkpt>
            <trkpt lon="11.144089037552476" lat="49.73390302620828">
                <ele>268.35</ele>
                <time>2011-02-26T10:46:47.000Z</time>
                <name>Position 191</name>
            </trkpt>
            <trkpt lon="11.143977977335453" lat="49.73396496847272">
                <ele>267.86</ele>
                <time>2011-02-26T10:46:48.000Z</time>
                <name>Position 192</name>
            </trkpt>
            <trkpt lon="11.143874041736126" lat="49.73403302952647">
                <ele>267.38</ele>
                <time>2011-02-26T10:46:49.000Z</time>
                <name>Position 193</name>
            </trkpt>
            <trkpt lon="11.14377798512578" lat="49.73410704173148">
                <ele>267.86</ele>
                <time>2011-02-26T10:46:50.000Z</time>
                <name>Position 194</name>
            </trkpt>
            <trkpt lon="11.143399039283395" lat="49.73442102782428">
                <ele>267.86</ele>
                <time>2011-02-26T10:46:54.000Z</time>
                <name>Position 195</name>
            </trkpt>
            <trkpt lon="11.143083041533828" lat="49.734771978110075">
                <ele>267.38</ele>
                <time>2011-02-26T10:46:58.000Z</time>
                <name>Position 196</name>
            </trkpt>
            <trkpt lon="11.142986984923482" lat="49.73485202528536">
                <ele>266.9</ele>
                <time>2011-02-26T10:46:59.000Z</time>
                <name>Position 197</name>
            </trkpt>
            <trkpt lon="11.14287399686873" lat="49.734923020005226">
                <ele>266.9</ele>
                <time>2011-02-26T10:47:00.000Z</time>
                <name>Position 198</name>
            </trkpt>
            <trkpt lon="11.14274701103568" lat="49.734984962269664">
                <ele>267.38</ele>
                <time>2011-02-26T10:47:01.000Z</time>
                <name>Position 199</name>
            </trkpt>
            <trkpt lon="11.142626982182264" lat="49.735052017495036">
                <ele>267.38</ele>
                <time>2011-02-26T10:47:02.000Z</time>
                <name>Position 200</name>
            </trkpt>
            <trkpt lon="11.141160987317562" lat="49.736014008522034">
                <ele>268.83</ele>
                <time>2011-02-26T10:47:15.000Z</time>
                <name>Position 201</name>
            </trkpt>
            <trkpt lon="11.140270996838808" lat="49.73702201619744">
                <ele>268.83</ele>
                <time>2011-02-26T10:47:24.000Z</time>
                <name>Position 202</name>
            </trkpt>
            <trkpt lon="11.13991099409759" lat="49.73733901977539">
                <ele>268.83</ele>
                <time>2011-02-26T10:47:27.000Z</time>
                <name>Position 203</name>
            </trkpt>
            <trkpt lon="11.138249030336738" lat="49.738230016082525">
                <ele>268.83</ele>
                <time>2011-02-26T10:47:37.000Z</time>
                <name>Position 204</name>
            </trkpt>
            <trkpt lon="11.135433968156576" lat="49.73963901400566">
                <ele>266.42</ele>
                <time>2011-02-26T10:47:52.000Z</time>
                <name>Position 205</name>
            </trkpt>
            <trkpt lon="11.134632993489504" lat="49.740098007023335">
                <ele>266.9</ele>
                <time>2011-02-26T10:47:59.000Z</time>
                <name>Position 206</name>
            </trkpt>
            <trkpt lon="11.134606003761292" lat="49.74014796316624">
                <ele>266.9</ele>
                <time>2011-02-26T10:48:00.000Z</time>
                <name>Position 207</name>
            </trkpt>
            <trkpt lon="11.134606003761292" lat="49.74019699729979">
                <ele>266.9</ele>
                <time>2011-02-26T10:48:01.000Z</time>
                <name>Position 208</name>
            </trkpt>
            <trkpt lon="11.134625030681491" lat="49.74024502560496">
                <ele>266.9</ele>
                <time>2011-02-26T10:48:02.000Z</time>
                <name>Position 209</name>
            </trkpt>
            <trkpt lon="11.134664006531239" lat="49.74030001088977">
                <ele>266.9</ele>
                <time>2011-02-26T10:48:03.000Z</time>
                <name>Position 210</name>
            </trkpt>
            <trkpt lon="11.134719997644424" lat="49.740357007831335">
                <ele>266.42</ele>
                <time>2011-02-26T10:48:04.000Z</time>
                <name>Position 211</name>
            </trkpt>
            <trkpt lon="11.134785041213036" lat="49.740423979237676">
                <ele>266.9</ele>
                <time>2011-02-26T10:48:05.000Z</time>
                <name>Position 212</name>
            </trkpt>
            <trkpt lon="11.135437991470098" lat="49.74124498665333">
                <ele>267.86</ele>
                <time>2011-02-26T10:48:13.000Z</time>
                <name>Position 213</name>
            </trkpt>
            <trkpt lon="11.136396965011954" lat="49.74273696541786">
                <ele>267.38</ele>
                <time>2011-02-26T10:48:23.000Z</time>
                <name>Position 214</name>
            </trkpt>
            <trkpt lon="11.13760999403894" lat="49.74515497684479">
                <ele>267.86</ele>
                <time>2011-02-26T10:48:36.000Z</time>
                <name>Position 215</name>
            </trkpt>
            <trkpt lon="11.139212027192116" lat="49.74796702153981">
                <ele>268.35</ele>
                <time>2011-02-26T10:48:50.000Z</time>
                <name>Position 216</name>
            </trkpt>
            <trkpt lon="11.141034001484513" lat="49.749936014413834">
                <ele>268.35</ele>
                <time>2011-02-26T10:49:01.000Z</time>
                <name>Position 217</name>
            </trkpt>
            <trkpt lon="11.14319896325469" lat="49.75126203149557">
                <ele>268.83</ele>
                <time>2011-02-26T10:49:10.000Z</time>
                <name>Position 218</name>
            </trkpt>
            <trkpt lon="11.145767010748386" lat="49.75219803862274">
                <ele>270.75</ele>
                <time>2011-02-26T10:49:19.000Z</time>
                <name>Position 219</name>
            </trkpt>
            <trkpt lon="11.149285985156894" lat="49.753465969115496">
                <ele>273.63</ele>
                <time>2011-02-26T10:49:32.000Z</time>
                <name>Position 220</name>
            </trkpt>
            <trkpt lon="11.151121035218239" lat="49.75474596954882">
                <ele>274.59</ele>
                <time>2011-02-26T10:49:41.000Z</time>
                <name>Position 221</name>
            </trkpt>
            <trkpt lon="11.152473036199808" lat="49.75638002157211">
                <ele>274.11</ele>
                <time>2011-02-26T10:49:50.000Z</time>
                <name>Position 222</name>
            </trkpt>
            <trkpt lon="11.15426198579371" lat="49.75841003470123">
                <ele>273.15</ele>
                <time>2011-02-26T10:50:01.000Z</time>
                <name>Position 223</name>
            </trkpt>
            <trkpt lon="11.156357964500785" lat="49.75991701707244">
                <ele>276.04</ele>
                <time>2011-02-26T10:50:11.000Z</time>
                <name>Position 224</name>
            </trkpt>
            <trkpt lon="11.158959958702326" lat="49.76182800717652">
                <ele>277.0</ele>
                <time>2011-02-26T10:50:24.000Z</time>
                <name>Position 225</name>
            </trkpt>
            <trkpt lon="11.1615239828825" lat="49.76366297341883">
                <ele>278.44</ele>
                <time>2011-02-26T10:50:37.000Z</time>
                <name>Position 226</name>
            </trkpt>
            <trkpt lon="11.162368040531874" lat="49.76443796418607">
                <ele>278.92</ele>
                <time>2011-02-26T10:50:44.000Z</time>
                <name>Position 227</name>
            </trkpt>
            <trkpt lon="11.16260097362101" lat="49.76469403132796">
                <ele>279.4</ele>
                <time>2011-02-26T10:50:47.000Z</time>
                <name>Position 228</name>
            </trkpt>
            <trkpt lon="11.162622012197971" lat="49.76477097719908">
                <ele>279.4</ele>
                <time>2011-02-26T10:50:48.000Z</time>
                <name>Position 229</name>
            </trkpt>
            <trkpt lon="11.162590999156237" lat="49.76484599523246">
                <ele>280.36</ele>
                <time>2011-02-26T10:50:49.000Z</time>
                <name>Position 230</name>
            </trkpt>
            <trkpt lon="11.162543976679444" lat="49.76490802131593">
                <ele>280.36</ele>
                <time>2011-02-26T10:50:50.000Z</time>
                <name>Position 231</name>
            </trkpt>
            <trkpt lon="11.162473987787962" lat="49.76496602408588">
                <ele>280.36</ele>
                <time>2011-02-26T10:50:51.000Z</time>
                <name>Position 232</name>
            </trkpt>
            <trkpt lon="11.16240500472486" lat="49.765024026855826">
                <ele>280.84</ele>
                <time>2011-02-26T10:50:52.000Z</time>
                <name>Position 233</name>
            </trkpt>
            <trkpt lon="11.162321018055081" lat="49.765153024345636">
                <ele>280.84</ele>
                <time>2011-02-26T10:50:54.000Z</time>
                <name>Position 234</name>
            </trkpt>
            <trkpt lon="11.16231800056994" lat="49.76522603072226">
                <ele>280.84</ele>
                <time>2011-02-26T10:50:55.000Z</time>
                <name>Position 235</name>
            </trkpt>
            <trkpt lon="11.162323029711843" lat="49.765302976593375">
                <ele>280.84</ele>
                <time>2011-02-26T10:50:56.000Z</time>
                <name>Position 236</name>
            </trkpt>
            <trkpt lon="11.162611031904817" lat="49.766459008678794">
                <ele>286.61</ele>
                <time>2011-02-26T10:51:08.000Z</time>
                <name>Position 237</name>
            </trkpt>
            <trkpt lon="11.162914037704468" lat="49.76749802939594">
                <ele>290.46</ele>
                <time>2011-02-26T10:51:18.000Z</time>
                <name>Position 238</name>
            </trkpt>
            <trkpt lon="11.162972040474415" lat="49.76756801828742">
                <ele>290.46</ele>
                <time>2011-02-26T10:51:19.000Z</time>
                <name>Position 239</name>
            </trkpt>
            <trkpt lon="11.163292983546853" lat="49.76801795884967">
                <ele>287.57</ele>
                <time>2011-02-26T10:51:25.000Z</time>
                <name>Position 240</name>
            </trkpt>
            <trkpt lon="11.163305975496769" lat="49.768093982711434">
                <ele>286.61</ele>
                <time>2011-02-26T10:51:26.000Z</time>
                <name>Position 241</name>
            </trkpt>
            <trkpt lon="11.163275968283415" lat="49.76868901401758">
                <ele>281.8</ele>
                <time>2011-02-26T10:51:34.000Z</time>
                <name>Position 242</name>
            </trkpt>
            <trkpt lon="11.163297006860375" lat="49.768738970160484">
                <ele>281.32</ele>
                <time>2011-02-26T10:51:35.000Z</time>
                <name>Position 243</name>
            </trkpt>
            <trkpt lon="11.163335982710123" lat="49.768890012055635">
                <ele>279.4</ele>
                <time>2011-02-26T10:51:38.000Z</time>
                <name>Position 244</name>
            </trkpt>
            <trkpt lon="11.16332701407373" lat="49.768934017047286">
                <ele>279.4</ele>
                <time>2011-02-26T10:51:39.000Z</time>
                <name>Position 245</name>
            </trkpt>
            <trkpt lon="11.163303041830659" lat="49.76898497901857">
                <ele>279.4</ele>
                <time>2011-02-26T10:51:40.000Z</time>
                <name>Position 246</name>
            </trkpt>
            <trkpt lon="11.1630919855088" lat="49.76919603534043">
                <ele>280.84</ele>
                <time>2011-02-26T10:51:44.000Z</time>
                <name>Position 247</name>
            </trkpt>
            <trkpt lon="11.162767019122839" lat="49.769470961764455">
                <ele>281.32</ele>
                <time>2011-02-26T10:51:48.000Z</time>
                <name>Position 248</name>
            </trkpt>
            <trkpt lon="11.162660988047719" lat="49.769533993676305">
                <ele>281.8</ele>
                <time>2011-02-26T10:51:49.000Z</time>
                <name>Position 249</name>
            </trkpt>
            <trkpt lon="11.162552023306489" lat="49.76958797313273">
                <ele>281.8</ele>
                <time>2011-02-26T10:51:50.000Z</time>
                <name>Position 250</name>
            </trkpt>
            <trkpt lon="11.162094036117196" lat="49.76975401863456">
                <ele>282.77</ele>
                <time>2011-02-26T10:51:54.000Z</time>
                <name>Position 251</name>
            </trkpt>
            <trkpt lon="11.16199898533523" lat="49.76980397477746">
                <ele>283.25</ele>
                <time>2011-02-26T10:51:55.000Z</time>
                <name>Position 252</name>
            </trkpt>
            <trkpt lon="11.161928996443748" lat="49.76986298337579">
                <ele>283.25</ele>
                <time>2011-02-26T10:51:56.000Z</time>
                <name>Position 253</name>
            </trkpt>
            <trkpt lon="11.161831011995673" lat="49.76998703554273">
                <ele>282.77</ele>
                <time>2011-02-26T10:51:58.000Z</time>
                <name>Position 254</name>
            </trkpt>
            <trkpt lon="11.161655997857451" lat="49.770262967795134">
                <ele>282.28</ele>
                <time>2011-02-26T10:52:02.000Z</time>
                <name>Position 255</name>
            </trkpt>
            <trkpt lon="11.161582991480827" lat="49.77037997916341">
                <ele>281.8</ele>
                <time>2011-02-26T10:52:04.000Z</time>
                <name>Position 256</name>
            </trkpt>
            <trkpt lon="11.16154401563108" lat="49.77042901329696">
                <ele>283.73</ele>
                <time>2011-02-26T10:52:05.000Z</time>
                <name>Position 257</name>
            </trkpt>
            <trkpt lon="11.161553990095854" lat="49.770501013845205">
                <ele>283.25</ele>
                <time>2011-02-26T10:52:06.000Z</time>
                <name>Position 258</name>
            </trkpt>
            <trkpt lon="11.161624984815717" lat="49.77100401185453">
                <ele>282.77</ele>
                <time>2011-02-26T10:52:12.000Z</time>
                <name>Position 259</name>
            </trkpt>
            <trkpt lon="11.16150202229619" lat="49.771405002102256">
                <ele>282.77</ele>
                <time>2011-02-26T10:52:16.000Z</time>
                <name>Position 260</name>
            </trkpt>
            <trkpt lon="11.161443013697863" lat="49.77150198072195">
                <ele>282.77</ele>
                <time>2011-02-26T10:52:17.000Z</time>
                <name>Position 261</name>
            </trkpt>
            <trkpt lon="11.161347962915897" lat="49.7715700417757">
                <ele>284.21</ele>
                <time>2011-02-26T10:52:18.000Z</time>
                <name>Position 262</name>
            </trkpt>
            <trkpt lon="11.16096398793161" lat="49.77188101038337">
                <ele>284.69</ele>
                <time>2011-02-26T10:52:22.000Z</time>
                <name>Position 263</name>
            </trkpt>
            <trkpt lon="11.16023501381278" lat="49.77229801006615">
                <ele>287.09</ele>
                <time>2011-02-26T10:52:29.000Z</time>
                <name>Position 264</name>
            </trkpt>
            <trkpt lon="11.160143986344337" lat="49.77236397564411">
                <ele>287.57</ele>
                <time>2011-02-26T10:52:30.000Z</time>
                <name>Position 265</name>
            </trkpt>
            <trkpt lon="11.160073997452855" lat="49.772435976192355">
                <ele>287.57</ele>
                <time>2011-02-26T10:52:31.000Z</time>
                <name>Position 266</name>
            </trkpt>
            <trkpt lon="11.159627996385098" lat="49.77334298193455">
                <ele>293.34</ele>
                <time>2011-02-26T10:52:41.000Z</time>
                <name>Position 267</name>
            </trkpt>
            <trkpt lon="11.159510985016823" lat="49.77361103519797">
                <ele>295.26</ele>
                <time>2011-02-26T10:52:44.000Z</time>
                <name>Position 268</name>
            </trkpt>
            <trkpt lon="11.159442001953721" lat="49.77369703352451">
                <ele>296.22</ele>
                <time>2011-02-26T10:52:45.000Z</time>
                <name>Position 269</name>
            </trkpt>
            <trkpt lon="11.158375991508365" lat="49.774601021781564">
                <ele>301.99</ele>
                <time>2011-02-26T10:52:54.000Z</time>
                <name>Position 270</name>
            </trkpt>
            <trkpt lon="11.157028013840318" lat="49.77525397203863">
                <ele>302.47</ele>
                <time>2011-02-26T10:53:01.000Z</time>
                <name>Position 271</name>
            </trkpt>
            <trkpt lon="11.155478032305837" lat="49.776174975559115">
                <ele>305.84</ele>
                <time>2011-02-26T10:53:09.000Z</time>
                <name>Position 272</name>
            </trkpt>
            <trkpt lon="11.153610041365027" lat="49.77745799347758">
                <ele>311.12</ele>
                <time>2011-02-26T10:53:19.000Z</time>
                <name>Position 273</name>
            </trkpt>
            <trkpt lon="11.152212023735046" lat="49.77880001999438">
                <ele>319.78</ele>
                <time>2011-02-26T10:53:28.000Z</time>
                <name>Position 274</name>
            </trkpt>
            <trkpt lon="11.15209098905325" lat="49.77895399555564">
                <ele>320.74</ele>
                <time>2011-02-26T10:53:29.000Z</time>
                <name>Position 275</name>
            </trkpt>
            <trkpt lon="11.151990992948413" lat="49.7791130002588">
                <ele>321.7</ele>
                <time>2011-02-26T10:53:30.000Z</time>
                <name>Position 276</name>
            </trkpt>
            <trkpt lon="11.15134198218584" lat="49.78037799708545">
                <ele>331.79</ele>
                <time>2011-02-26T10:53:38.000Z</time>
                <name>Position 277</name>
            </trkpt>
            <trkpt lon="11.150854993611574" lat="49.78119699284434">
                <ele>336.12</ele>
                <time>2011-02-26T10:53:45.000Z</time>
                <name>Position 278</name>
            </trkpt>
            <trkpt lon="11.150045972317457" lat="49.781803004443645">
                <ele>339.96</ele>
                <time>2011-02-26T10:53:55.000Z</time>
                <name>Position 279</name>
            </trkpt>
            <trkpt lon="11.14861199632287" lat="49.78292601183057">
                <ele>341.89</ele>
                <time>2011-02-26T10:54:13.000Z</time>
                <name>Position 280</name>
            </trkpt>
            <trkpt lon="11.147822001948953" lat="49.78380896151066">
                <ele>339.96</ele>
                <time>2011-02-26T10:54:25.000Z</time>
                <name>Position 281</name>
            </trkpt>
            <trkpt lon="11.147074000909925" lat="49.78447901085019">
                <ele>339.96</ele>
                <time>2011-02-26T10:54:34.000Z</time>
                <name>Position 282</name>
            </trkpt>
            <trkpt lon="11.14633304066956" lat="49.785089967772365">
                <ele>342.85</ele>
                <time>2011-02-26T10:54:43.000Z</time>
                <name>Position 283</name>
            </trkpt>
            <trkpt lon="11.145810009911656" lat="49.78540697135031">
                <ele>344.29</ele>
                <time>2011-02-26T10:54:49.000Z</time>
                <name>Position 284</name>
            </trkpt>
            <trkpt lon="11.145777991041541" lat="49.78546396829188">
                <ele>344.29</ele>
                <time>2011-02-26T10:54:50.000Z</time>
                <name>Position 285</name>
            </trkpt>
            <trkpt lon="11.145761981606483" lat="49.78553102351725">
                <ele>344.29</ele>
                <time>2011-02-26T10:54:51.000Z</time>
                <name>Position 286</name>
            </trkpt>
            <trkpt lon="11.14573197439313" lat="49.78606503456831">
                <ele>347.17</ele>
                <time>2011-02-26T10:54:58.000Z</time>
                <name>Position 287</name>
            </trkpt>
            <trkpt lon="11.1457110196352" lat="49.78623602539301">
                <ele>348.62</ele>
                <time>2011-02-26T10:55:00.000Z</time>
                <name>Position 288</name>
            </trkpt>
            <trkpt lon="11.145567018538713" lat="49.7873970028013">
                <ele>359.19</ele>
                <time>2011-02-26T10:55:12.000Z</time>
                <name>Position 289</name>
            </trkpt>
            <trkpt lon="11.145239034667611" lat="49.7888820245862">
                <ele>375.05</ele>
                <time>2011-02-26T10:55:25.000Z</time>
                <name>Position 290</name>
            </trkpt>
            <trkpt lon="11.145206009969115" lat="49.78923900984228">
                <ele>377.45</ele>
                <time>2011-02-26T10:55:28.000Z</time>
                <name>Position 291</name>
            </trkpt>
            <trkpt lon="11.145221013575792" lat="49.78935400955379">
                <ele>378.42</ele>
                <time>2011-02-26T10:55:29.000Z</time>
                <name>Position 292</name>
            </trkpt>
            <trkpt lon="11.14530298858881" lat="49.7896040417254">
                <ele>380.82</ele>
                <time>2011-02-26T10:55:31.000Z</time>
                <name>Position 293</name>
            </trkpt>
            <trkpt lon="11.145705990493298" lat="49.79042898863554">
                <ele>388.03</ele>
                <time>2011-02-26T10:55:37.000Z</time>
                <name>Position 294</name>
            </trkpt>
            <trkpt lon="11.145802969112992" lat="49.79055396281183">
                <ele>388.99</ele>
                <time>2011-02-26T10:55:38.000Z</time>
                <name>Position 295</name>
            </trkpt>
            <trkpt lon="11.145914029330015" lat="49.790673991665244">
                <ele>390.91</ele>
                <time>2011-02-26T10:55:39.000Z</time>
                <name>Position 296</name>
            </trkpt>
            <trkpt lon="11.146451979875565" lat="49.791300036013126">
                <ele>399.08</ele>
                <time>2011-02-26T10:55:45.000Z</time>
                <name>Position 297</name>
            </trkpt>
            <trkpt lon="11.146515011787415" lat="49.791473960503936">
                <ele>401.01</ele>
                <time>2011-02-26T10:55:47.000Z</time>
                <name>Position 298</name>
            </trkpt>
            <trkpt lon="11.146524986252189" lat="49.79157001711428">
                <ele>401.49</ele>
                <time>2011-02-26T10:55:48.000Z</time>
                <name>Position 299</name>
            </trkpt>
            <trkpt lon="11.146515011787415" lat="49.791660038754344">
                <ele>402.45</ele>
                <time>2011-02-26T10:55:49.000Z</time>
                <name>Position 300</name>
            </trkpt>
            <trkpt lon="11.146488022059202" lat="49.79174301959574">
                <ele>402.93</ele>
                <time>2011-02-26T10:55:50.000Z</time>
                <name>Position 301</name>
            </trkpt>
            <trkpt lon="11.146468995139003" lat="49.79183999821544">
                <ele>403.89</ele>
                <time>2011-02-26T10:55:51.000Z</time>
                <name>Position 302</name>
            </trkpt>
            <trkpt lon="11.146190967410803" lat="49.79271397925913">
                <ele>408.22</ele>
                <time>2011-02-26T10:55:58.000Z</time>
                <name>Position 303</name>
            </trkpt>
            <trkpt lon="11.146189961582422" lat="49.79305696673691">
                <ele>411.1</ele>
                <time>2011-02-26T10:56:01.000Z</time>
                <name>Position 304</name>
            </trkpt>
            <trkpt lon="11.14622499793768" lat="49.79316299781203">
                <ele>412.06</ele>
                <time>2011-02-26T10:56:02.000Z</time>
                <name>Position 305</name>
            </trkpt>
            <trkpt lon="11.146283000707626" lat="49.793273974210024">
                <ele>413.02</ele>
                <time>2011-02-26T10:56:03.000Z</time>
                <name>Position 306</name>
            </trkpt>
            <trkpt lon="11.146759008988738" lat="49.7938450332731">
                <ele>420.23</ele>
                <time>2011-02-26T10:56:09.000Z</time>
                <name>Position 307</name>
            </trkpt>
            <trkpt lon="11.1477090138942" lat="49.79446101933718">
                <ele>430.33</ele>
                <time>2011-02-26T10:56:18.000Z</time>
                <name>Position 308</name>
            </trkpt>
            <trkpt lon="11.148046972230077" lat="49.79479101486504">
                <ele>433.21</ele>
                <time>2011-02-26T10:56:21.000Z</time>
                <name>Position 309</name>
            </trkpt>
            <trkpt lon="11.148773012682796" lat="49.795553013682365">
                <ele>439.46</ele>
                <time>2011-02-26T10:56:27.000Z</time>
                <name>Position 310</name>
            </trkpt>
            <trkpt lon="11.149324961006641" lat="49.79638500139117">
                <ele>451.96</ele>
                <time>2011-02-26T10:56:33.000Z</time>
                <name>Position 311</name>
            </trkpt>
            <trkpt lon="11.149338958784938" lat="49.79648902080953">
                <ele>456.28</ele>
                <time>2011-02-26T10:56:34.000Z</time>
                <name>Position 312</name>
            </trkpt>
            <trkpt lon="11.149304006248713" lat="49.79659102857113">
                <ele>458.21</ele>
                <time>2011-02-26T10:56:35.000Z</time>
                <name>Position 313</name>
            </trkpt>
            <trkpt lon="11.149226976558566" lat="49.79667602106929">
                <ele>461.09</ele>
                <time>2011-02-26T10:56:36.000Z</time>
                <name>Position 314</name>
            </trkpt>
            <trkpt lon="11.149124968796968" lat="49.79675196111202">
                <ele>463.01</ele>
                <time>2011-02-26T10:56:37.000Z</time>
                <name>Position 315</name>
            </trkpt>
            <trkpt lon="11.149008963257074" lat="49.79681599885225">
                <ele>465.9</ele>
                <time>2011-02-26T10:56:38.000Z</time>
                <name>Position 316</name>
            </trkpt>
            <trkpt lon="11.148601016029716" lat="49.797078017145395">
                <ele>468.78</ele>
                <time>2011-02-26T10:56:44.000Z</time>
                <name>Position 317</name>
            </trkpt>
            <trkpt lon="11.148533960804343" lat="49.79710802435875">
                <ele>469.26</ele>
                <time>2011-02-26T10:56:45.000Z</time>
                <name>Position 318</name>
            </trkpt>
            <trkpt lon="11.148450979962945" lat="49.79712998494506">
                <ele>469.74</ele>
                <time>2011-02-26T10:56:46.000Z</time>
                <name>Position 319</name>
            </trkpt>
            <trkpt lon="11.148350983858109" lat="49.7971470002085">
                <ele>470.22</ele>
                <time>2011-02-26T10:56:47.000Z</time>
                <name>Position 320</name>
            </trkpt>
            <trkpt lon="11.148237995803356" lat="49.797166027128696">
                <ele>470.22</ele>
                <time>2011-02-26T10:56:48.000Z</time>
                <name>Position 321</name>
            </trkpt>
            <trkpt lon="11.146962018683553" lat="49.7972159832716">
                <ele>472.14</ele>
                <time>2011-02-26T10:56:55.000Z</time>
                <name>Position 322</name>
            </trkpt>
            <trkpt lon="11.14489696919918" lat="49.79737096466124">
                <ele>477.43</ele>
                <time>2011-02-26T10:57:03.000Z</time>
                <name>Position 323</name>
            </trkpt>
            <trkpt lon="11.141483020037413" lat="49.79770699515939">
                <ele>488.97</ele>
                <time>2011-02-26T10:57:15.000Z</time>
                <name>Position 324</name>
            </trkpt>
            <trkpt lon="11.14072797819972" lat="49.79777396656573">
                <ele>493.29</ele>
                <time>2011-02-26T10:57:18.000Z</time>
                <name>Position 325</name>
            </trkpt>
            <trkpt lon="11.140486998483539" lat="49.797763992100954">
                <ele>494.26</ele>
                <time>2011-02-26T10:57:19.000Z</time>
                <name>Position 326</name>
            </trkpt>
            <trkpt lon="11.140007972717285" lat="49.79771001264453">
                <ele>495.22</ele>
                <time>2011-02-26T10:57:21.000Z</time>
                <name>Position 327</name>
            </trkpt>
            <trkpt lon="11.137338001281023" lat="49.79719502851367">
                <ele>503.39</ele>
                <time>2011-02-26T10:57:32.000Z</time>
                <name>Position 328</name>
            </trkpt>
            <trkpt lon="11.135461963713169" lat="49.796970980241895">
                <ele>505.79</ele>
                <time>2011-02-26T10:57:41.000Z</time>
                <name>Position 329</name>
            </trkpt>
            <trkpt lon="11.133194994181395" lat="49.796648025512695">
                <ele>504.35</ele>
                <time>2011-02-26T10:57:51.000Z</time>
                <name>Position 330</name>
            </trkpt>
            <trkpt lon="11.130448998883367" lat="49.796113008633256">
                <ele>494.26</ele>
                <time>2011-02-26T10:58:03.000Z</time>
                <name>Position 331</name>
            </trkpt>
            <trkpt lon="11.129186013713479" lat="49.79592802003026">
                <ele>491.85</ele>
                <time>2011-02-26T10:58:09.000Z</time>
                <name>Position 332</name>
            </trkpt>
            <trkpt lon="11.129024997353554" lat="49.795875968411565">
                <ele>491.37</ele>
                <time>2011-02-26T10:58:10.000Z</time>
                <name>Position 333</name>
            </trkpt>
            <trkpt lon="11.12888895906508" lat="49.7958049736917">
                <ele>490.41</ele>
                <time>2011-02-26T10:58:11.000Z</time>
                <name>Position 334</name>
            </trkpt>
            <trkpt lon="11.128749987110496" lat="49.79573397897184">
                <ele>489.93</ele>
                <time>2011-02-26T10:58:12.000Z</time>
                <name>Position 335</name>
            </trkpt>
            <trkpt lon="11.128633981570601" lat="49.7956530097872">
                <ele>489.45</ele>
                <time>2011-02-26T10:58:13.000Z</time>
                <name>Position 336</name>
            </trkpt>
            <trkpt lon="11.128517976030707" lat="49.795573968440294">
                <ele>488.97</ele>
                <time>2011-02-26T10:58:14.000Z</time>
                <name>Position 337</name>
            </trkpt>
            <trkpt lon="11.128168031573296" lat="49.79528403840959">
                <ele>486.08</ele>
                <time>2011-02-26T10:58:19.000Z</time>
                <name>Position 338</name>
            </trkpt>
            <trkpt lon="11.128129977732897" lat="49.79524003341794">
                <ele>485.6</ele>
                <time>2011-02-26T10:58:20.000Z</time>
                <name>Position 339</name>
            </trkpt>
            <trkpt lon="11.128106005489826" lat="49.79519099928439">
                <ele>485.6</ele>
                <time>2011-02-26T10:58:21.000Z</time>
                <name>Position 340</name>
            </trkpt>
            <trkpt lon="11.128011038526893" lat="49.79500802233815">
                <ele>487.05</ele>
                <time>2011-02-26T10:58:24.000Z</time>
                <name>Position 341</name>
            </trkpt>
            <trkpt lon="11.127955969423056" lat="49.79494197294116">
                <ele>487.53</ele>
                <time>2011-02-26T10:58:25.000Z</time>
                <name>Position 342</name>
            </trkpt>
            <trkpt lon="11.127884974703193" lat="49.79487500153482">
                <ele>488.01</ele>
                <time>2011-02-26T10:58:26.000Z</time>
                <name>Position 343</name>
            </trkpt>
            <trkpt lon="11.127801993861794" lat="49.7948070243001">
                <ele>488.01</ele>
                <time>2011-02-26T10:58:27.000Z</time>
                <name>Position 344</name>
            </trkpt>
            <trkpt lon="11.127712978050113" lat="49.79474600404501">
                <ele>488.49</ele>
                <time>2011-02-26T10:58:28.000Z</time>
                <name>Position 345</name>
            </trkpt>
            <trkpt lon="11.1268260050565" lat="49.794135969132185">
                <ele>487.53</ele>
                <time>2011-02-26T10:58:38.000Z</time>
                <name>Position 346</name>
            </trkpt>
            <trkpt lon="11.126768002286553" lat="49.794070003554225">
                <ele>488.01</ele>
                <time>2011-02-26T10:58:39.000Z</time>
                <name>Position 347</name>
            </trkpt>
            <trkpt lon="11.126731038093567" lat="49.79400102049112">
                <ele>488.01</ele>
                <time>2011-02-26T10:58:40.000Z</time>
                <name>Position 348</name>
            </trkpt>
            <trkpt lon="11.126705976203084" lat="49.79393103159964">
                <ele>488.49</ele>
                <time>2011-02-26T10:58:41.000Z</time>
                <name>Position 349</name>
            </trkpt>
            <trkpt lon="11.126689966768026" lat="49.79386095888913">
                <ele>489.45</ele>
                <time>2011-02-26T10:58:42.000Z</time>
                <name>Position 350</name>
            </trkpt>
            <trkpt lon="11.126688960939646" lat="49.79379901662469">
                <ele>489.45</ele>
                <time>2011-02-26T10:58:43.000Z</time>
                <name>Position 351</name>
            </trkpt>
            <trkpt lon="11.126577984541655" lat="49.79320297949016">
                <ele>489.93</ele>
                <time>2011-02-26T10:58:56.000Z</time>
                <name>Position 352</name>
            </trkpt>
            <trkpt lon="11.12652400508523" lat="49.79294900782406">
                <ele>488.49</ele>
                <time>2011-02-26T10:59:07.000Z</time>
                <name>Position 353</name>
            </trkpt>
            <trkpt lon="11.12652400508523" lat="49.79293501004577">
                <ele>488.97</ele>
                <time>2011-02-26T10:59:09.000Z</time>
                <name>Position 354</name>
            </trkpt>
            <trkpt lon="11.12654697149992" lat="49.79292101226747">
                <ele>488.97</ele>
                <time>2011-02-26T10:59:10.000Z</time>
                <name>Position 355</name>
            </trkpt>
            <trkpt lon="11.126578990370035" lat="49.792909026145935">
                <ele>489.45</ele>
                <time>2011-02-26T10:59:11.000Z</time>
                <name>Position 356</name>
            </trkpt>
            <trkpt lon="11.126620983704925" lat="49.792911037802696">
                <ele>489.93</ele>
                <time>2011-02-26T10:59:12.000Z</time>
                <name>Position 357</name>
            </trkpt>
            <trkpt lon="11.126663982868195" lat="49.79292696341872">
                <ele>489.45</ele>
                <time>2011-02-26T10:59:13.000Z</time>
                <name>Position 358</name>
            </trkpt>
            <trkpt lon="11.126701030880213" lat="49.79293601587415">
                <ele>489.93</ele>
                <time>2011-02-26T10:59:14.000Z</time>
                <name>Position 359</name>
            </trkpt>
            <trkpt lon="11.12674000672996" lat="49.79294003918767">
                <ele>490.41</ele>
                <time>2011-02-26T10:59:15.000Z</time>
                <name>Position 360</name>
            </trkpt>
            <trkpt lon="11.126808989793062" lat="49.79292897507548">
                <ele>490.89</ele>
                <time>2011-02-26T10:59:31.000Z</time>
                <name>Position 361</name>
            </trkpt>
            <trkpt lon="11.126812007278204" lat="49.79292696341872">
                <ele>490.89</ele>
                <time>2011-02-26T11:01:47.000Z</time>
                <name>Position 362</name>
            </trkpt>
            <trkpt lon="11.126817036420107" lat="49.79292201809585">
                <ele>490.89</ele>
                <time>2011-02-26T11:04:07.000Z</time>
                <name>Position 363</name>
            </trkpt>
            <trkpt lon="11.126817958429456" lat="49.79291900061071">
                <ele>490.89</ele>
                <time>2011-02-26T11:06:27.000Z</time>
                <name>Position 364</name>
            </trkpt>
            <trkpt lon="11.126820975914598" lat="49.79291698895395">
                <ele>490.89</ele>
                <time>2011-02-26T11:08:41.000Z</time>
                <name>Position 365</name>
            </trkpt>
            <trkpt lon="11.1268260050565" lat="49.792913971468806">
                <ele>490.89</ele>
                <time>2011-02-26T11:10:57.000Z</time>
                <name>Position 366</name>
            </trkpt>
            <trkpt lon="11.126831034198403" lat="49.792911959812045">
                <ele>490.89</ele>
                <time>2011-02-26T11:13:18.000Z</time>
                <name>Position 367</name>
            </trkpt>
            <trkpt lon="11.126833967864513" lat="49.792913971468806">
                <ele>490.89</ele>
                <time>2011-02-26T11:15:37.000Z</time>
                <name>Position 368</name>
            </trkpt>
            <trkpt lon="11.126835979521275" lat="49.792912965640426">
                <ele>490.89</ele>
                <time>2011-02-26T11:17:48.000Z</time>
                <name>Position 369</name>
            </trkpt>
            <trkpt lon="11.126830028370023" lat="49.792913971468806">
                <ele>490.41</ele>
                <time>2011-02-26T11:19:32.000Z</time>
                <name>Position 370</name>
            </trkpt>
            <trkpt lon="11.126836985349655" lat="49.792911037802696">
                <ele>490.41</ele>
                <time>2011-02-26T11:21:37.000Z</time>
                <name>Position 371</name>
            </trkpt>
            <trkpt lon="11.126840002834797" lat="49.792907014489174">
                <ele>490.89</ele>
                <time>2011-02-26T11:23:47.000Z</time>
                <name>Position 372</name>
            </trkpt>
            <trkpt lon="11.126840002834797" lat="49.79290500283241">
                <ele>490.89</ele>
                <time>2011-02-26T11:26:09.000Z</time>
                <name>Position 373</name>
            </trkpt>
            <trkpt lon="11.126836985349655" lat="49.79290198534727">
                <ele>490.89</ele>
                <time>2011-02-26T11:28:15.000Z</time>
                <name>Position 374</name>
            </trkpt>
            <trkpt lon="11.126834973692894" lat="49.79290097951889">
                <ele>491.37</ele>
                <time>2011-02-26T11:30:26.000Z</time>
                <name>Position 375</name>
            </trkpt>
            <trkpt lon="11.126841008663177" lat="49.79289603419602">
                <ele>492.33</ele>
                <time>2011-02-26T11:32:33.000Z</time>
                <name>Position 376</name>
            </trkpt>
            <trkpt lon="11.12684402614832" lat="49.7928920108825">
                <ele>492.81</ele>
                <time>2011-02-26T11:35:01.000Z</time>
                <name>Position 377</name>
            </trkpt>
            <trkpt lon="11.126843020319939" lat="49.792891005054116">
                <ele>492.81</ele>
                <time>2011-02-26T11:37:03.000Z</time>
                <name>Position 378</name>
            </trkpt>
            <trkpt lon="11.126843020319939" lat="49.792891005054116">
                <ele>493.29</ele>
                <time>2011-02-26T11:39:06.000Z</time>
                <name>Position 379</name>
            </trkpt>
            <trkpt lon="11.126838997006416" lat="49.792888993397355">
                <ele>493.29</ele>
                <time>2011-02-26T11:40:55.000Z</time>
                <name>Position 380</name>
            </trkpt>
            <trkpt lon="11.126748975366354" lat="49.792888993397355">
                <ele>493.77</ele>
                <time>2011-02-26T11:41:46.000Z</time>
                <name>Position 381</name>
            </trkpt>
            <trkpt lon="11.12671502865851" lat="49.792887987568974">
                <ele>494.26</ele>
                <time>2011-02-26T11:41:50.000Z</time>
                <name>Position 382</name>
            </trkpt>
            <trkpt lon="11.126776970922947" lat="49.7928920108825">
                <ele>493.77</ele>
                <time>2011-02-26T11:41:57.000Z</time>
                <name>Position 383</name>
            </trkpt>
            <trkpt lon="11.126647973433137" lat="49.792870972305536">
                <ele>493.77</ele>
                <time>2011-02-26T11:42:08.000Z</time>
                <name>Position 384</name>
            </trkpt>
            <trkpt lon="11.126655014231801" lat="49.793208008632064">
                <ele>493.77</ele>
                <time>2011-02-26T11:42:21.000Z</time>
                <name>Position 385</name>
            </trkpt>
            <trkpt lon="11.12676096148789" lat="49.79359399527311">
                <ele>494.26</ele>
                <time>2011-02-26T11:42:30.000Z</time>
                <name>Position 386</name>
            </trkpt>
            <trkpt lon="11.126816030591726" lat="49.794004037976265">
                <ele>493.77</ele>
                <time>2011-02-26T11:42:38.000Z</time>
                <name>Position 387</name>
            </trkpt>
            <trkpt lon="11.126841008663177" lat="49.79405600577593">
                <ele>493.29</ele>
                <time>2011-02-26T11:42:39.000Z</time>
                <name>Position 388</name>
            </trkpt>
            <trkpt lon="11.126879984512925" lat="49.794113002717495">
                <ele>493.29</ele>
                <time>2011-02-26T11:42:40.000Z</time>
                <name>Position 389</name>
            </trkpt>
            <trkpt lon="11.126936981454492" lat="49.79417100548744">
                <ele>493.29</ele>
                <time>2011-02-26T11:42:41.000Z</time>
                <name>Position 390</name>
            </trkpt>
            <trkpt lon="11.127004036679864" lat="49.79423202574253">
                <ele>492.81</ele>
                <time>2011-02-26T11:42:42.000Z</time>
                <name>Position 391</name>
            </trkpt>
            <trkpt lon="11.127086011692882" lat="49.79429103434086">
                <ele>493.29</ele>
                <time>2011-02-26T11:42:43.000Z</time>
                <name>Position 392</name>
            </trkpt>
            <trkpt lon="11.127173015847802" lat="49.794350964948535">
                <ele>493.29</ele>
                <time>2011-02-26T11:42:44.000Z</time>
                <name>Position 393</name>
            </trkpt>
            <trkpt lon="11.127980025485158" lat="49.79491800069809">
                <ele>493.29</ele>
                <time>2011-02-26T11:42:54.000Z</time>
                <name>Position 394</name>
            </trkpt>
            <trkpt lon="11.128042973577976" lat="49.79498002678156">
                <ele>493.29</ele>
                <time>2011-02-26T11:42:55.000Z</time>
                <name>Position 395</name>
            </trkpt>
            <trkpt lon="11.128097958862782" lat="49.79504297487438">
                <ele>493.29</ele>
                <time>2011-02-26T11:42:56.000Z</time>
                <name>Position 396</name>
            </trkpt>
            <trkpt lon="11.128147998824716" lat="49.79510902427137">
                <ele>492.81</ele>
                <time>2011-02-26T11:42:57.000Z</time>
                <name>Position 397</name>
            </trkpt>
            <trkpt lon="11.128193009644747" lat="49.79517700150609">
                <ele>492.81</ele>
                <time>2011-02-26T11:42:58.000Z</time>
                <name>Position 398</name>
            </trkpt>
            <trkpt lon="11.128300968557596" lat="49.79531002230942">
                <ele>493.29</ele>
                <time>2011-02-26T11:43:00.000Z</time>
                <name>Position 399</name>
            </trkpt>
            <trkpt lon="11.128369029611349" lat="49.79537598788738">
                <ele>493.77</ele>
                <time>2011-02-26T11:43:01.000Z</time>
                <name>Position 400</name>
            </trkpt>
            <trkpt lon="11.128452010452747" lat="49.795444970950484">
                <ele>494.26</ele>
                <time>2011-02-26T11:43:02.000Z</time>
                <name>Position 401</name>
            </trkpt>
            <trkpt lon="11.129028014838696" lat="49.79584001004696">
                <ele>495.22</ele>
                <time>2011-02-26T11:43:07.000Z</time>
                <name>Position 402</name>
            </trkpt>
            <trkpt lon="11.129184002056718" lat="49.79590496979654">
                <ele>495.7</ele>
                <time>2011-02-26T11:43:08.000Z</time>
                <name>Position 403</name>
            </trkpt>
            <trkpt lon="11.129354992881417" lat="49.795958027243614">
                <ele>496.18</ele>
                <time>2011-02-26T11:43:09.000Z</time>
                <name>Position 404</name>
            </trkpt>
            <trkpt lon="11.129544004797935" lat="49.79599800892174">
                <ele>496.18</ele>
                <time>2011-02-26T11:43:10.000Z</time>
                <name>Position 405</name>
            </trkpt>
            <trkpt lon="11.129741985350847" lat="49.79602902196348">
                <ele>496.66</ele>
                <time>2011-02-26T11:43:11.000Z</time>
                <name>Position 406</name>
            </trkpt>
            <trkpt lon="11.129954969510436" lat="49.79605500586331">
                <ele>497.14</ele>
                <time>2011-02-26T11:43:12.000Z</time>
                <name>Position 407</name>
            </trkpt>
            <trkpt lon="11.132502984255552" lat="49.79645901359618">
                <ele>504.35</ele>
                <time>2011-02-26T11:43:23.000Z</time>
                <name>Position 408</name>
            </trkpt>
            <trkpt lon="11.135450983420014" lat="49.796969974413514">
                <ele>509.16</ele>
                <time>2011-02-26T11:43:36.000Z</time>
                <name>Position 409</name>
            </trkpt>
            <trkpt lon="11.13829999230802" lat="49.79733098298311">
                <ele>502.43</ele>
                <time>2011-02-26T11:43:48.000Z</time>
                <name>Position 410</name>
            </trkpt>
            <trkpt lon="11.140647009015083" lat="49.79774898849428">
                <ele>495.22</ele>
                <time>2011-02-26T11:43:58.000Z</time>
                <name>Position 411</name>
            </trkpt>
            <trkpt lon="11.140872985124588" lat="49.7977580409497">
                <ele>494.26</ele>
                <time>2011-02-26T11:43:59.000Z</time>
                <name>Position 412</name>
            </trkpt>
            <trkpt lon="11.141100972890854" lat="49.79775100015104">
                <ele>493.29</ele>
                <time>2011-02-26T11:44:00.000Z</time>
                <name>Position 413</name>
            </trkpt>
            <trkpt lon="11.141332983970642" lat="49.79773096740246">
                <ele>492.33</ele>
                <time>2011-02-26T11:44:01.000Z</time>
                <name>Position 414</name>
            </trkpt>
            <trkpt lon="11.141569018363953" lat="49.797701966017485">
                <ele>490.89</ele>
                <time>2011-02-26T11:44:02.000Z</time>
                <name>Position 415</name>
            </trkpt>
            <trkpt lon="11.144149973988533" lat="49.797467021271586">
                <ele>481.76</ele>
                <time>2011-02-26T11:44:12.000Z</time>
                <name>Position 416</name>
            </trkpt>
            <trkpt lon="11.147954016923904" lat="49.79716996662319">
                <ele>475.03</ele>
                <time>2011-02-26T11:44:27.000Z</time>
                <name>Position 417</name>
            </trkpt>
            <trkpt lon="11.14929998293519" lat="49.79700501076877">
                <ele>473.59</ele>
                <time>2011-02-26T11:44:33.000Z</time>
                <name>Position 418</name>
            </trkpt>
            <trkpt lon="11.149482959881425" lat="49.79695203714073">
                <ele>473.11</ele>
                <time>2011-02-26T11:44:34.000Z</time>
                <name>Position 419</name>
            </trkpt>
            <trkpt lon="11.14964397624135" lat="49.79688196443021">
                <ele>473.11</ele>
                <time>2011-02-26T11:44:35.000Z</time>
                <name>Position 420</name>
            </trkpt>
            <trkpt lon="11.149784037843347" lat="49.79679303243756">
                <ele>473.11</ele>
                <time>2011-02-26T11:44:36.000Z</time>
                <name>Position 421</name>
            </trkpt>
            <trkpt lon="11.14990297704935" lat="49.796691024675965">
                <ele>473.11</ele>
                <time>2011-02-26T11:44:37.000Z</time>
                <name>Position 422</name>
            </trkpt>
            <trkpt lon="11.150005990639329" lat="49.79657895863056">
                <ele>473.59</ele>
                <time>2011-02-26T11:44:38.000Z</time>
                <name>Position 423</name>
            </trkpt>
            <trkpt lon="11.150096012279391" lat="49.79646203108132">
                <ele>474.55</ele>
                <time>2011-02-26T11:44:39.000Z</time>
                <name>Position 424</name>
            </trkpt>
            <trkpt lon="11.15114701911807" lat="49.79553599841893">
                <ele>477.91</ele>
                <time>2011-02-26T11:44:47.000Z</time>
                <name>Position 425</name>
            </trkpt>
            <trkpt lon="11.151744984090328" lat="49.79524699039757">
                <ele>479.35</ele>
                <time>2011-02-26T11:44:50.000Z</time>
                <name>Position 426</name>
            </trkpt>
            <trkpt lon="11.151967020705342" lat="49.79517197236419">
                <ele>479.84</ele>
                <time>2011-02-26T11:44:51.000Z</time>
                <name>Position 427</name>
            </trkpt>
            <trkpt lon="11.15220196545124" lat="49.79510701261461">
                <ele>480.32</ele>
                <time>2011-02-26T11:44:52.000Z</time>
                <name>Position 428</name>
            </trkpt>
            <trkpt lon="11.152440011501312" lat="49.795054038986564">
                <ele>481.28</ele>
                <time>2011-02-26T11:44:53.000Z</time>
                <name>Position 429</name>
            </trkpt>
            <trkpt lon="11.152684008702636" lat="49.79501003399491">
                <ele>481.76</ele>
                <time>2011-02-26T11:44:54.000Z</time>
                <name>Position 430</name>
            </trkpt>
            <trkpt lon="11.155699985101819" lat="49.79421299882233">
                <ele>486.56</ele>
                <time>2011-02-26T11:45:07.000Z</time>
                <name>Position 431</name>
            </trkpt>
            <trkpt lon="11.157794035971165" lat="49.79352601803839">
                <ele>479.84</ele>
                <time>2011-02-26T11:45:17.000Z</time>
                <name>Position 432</name>
            </trkpt>
            <trkpt lon="11.157932002097368" lat="49.793448988348246">
                <ele>478.87</ele>
                <time>2011-02-26T11:45:18.000Z</time>
                <name>Position 433</name>
            </trkpt>
            <trkpt lon="11.158052030950785" lat="49.793360978364944">
                <ele>478.87</ele>
                <time>2011-02-26T11:45:19.000Z</time>
                <name>Position 434</name>
            </trkpt>
            <trkpt lon="11.158152027055621" lat="49.79326198808849">
                <ele>478.87</ele>
                <time>2011-02-26T11:45:20.000Z</time>
                <name>Position 435</name>
            </trkpt>
            <trkpt lon="11.158228972926736" lat="49.79315302334726">
                <ele>478.39</ele>
                <time>2011-02-26T11:45:21.000Z</time>
                <name>Position 436</name>
            </trkpt>
            <trkpt lon="11.158282030373812" lat="49.79303400032222">
                <ele>478.87</ele>
                <time>2011-02-26T11:45:22.000Z</time>
                <name>Position 437</name>
            </trkpt>
            <trkpt lon="11.158310025930405" lat="49.792909026145935">
                <ele>479.35</ele>
                <time>2011-02-26T11:45:23.000Z</time>
                <name>Position 438</name>
            </trkpt>
            <trkpt lon="11.158303990960121" lat="49.792778016999364">
                <ele>479.35</ele>
                <time>2011-02-26T11:45:24.000Z</time>
                <name>Position 439</name>
            </trkpt>
            <trkpt lon="11.158284964039922" lat="49.79264298453927">
                <ele>480.32</ele>
                <time>2011-02-26T11:45:25.000Z</time>
                <name>Position 440</name>
            </trkpt>
            <trkpt lon="11.158253028988838" lat="49.79250501841307">
                <ele>481.28</ele>
                <time>2011-02-26T11:45:26.000Z</time>
                <name>Position 441</name>
            </trkpt>
            <trkpt lon="11.157537968829274" lat="49.79098403826356">
                <ele>490.89</ele>
                <time>2011-02-26T11:45:37.000Z</time>
                <name>Position 442</name>
            </trkpt>
            <trkpt lon="11.156621994450688" lat="49.78974301367998">
                <ele>492.81</ele>
                <time>2011-02-26T11:45:47.000Z</time>
                <name>Position 443</name>
            </trkpt>
            <trkpt lon="11.156487967818975" lat="49.78954000398517">
                <ele>491.37</ele>
                <time>2011-02-26T11:45:49.000Z</time>
                <name>Position 444</name>
            </trkpt>
            <trkpt lon="11.156446980312467" lat="49.789432967081666">
                <ele>490.89</ele>
                <time>2011-02-26T11:45:50.000Z</time>
                <name>Position 445</name>
            </trkpt>
            <trkpt lon="11.156422002241015" lat="49.789321990683675">
                <ele>489.93</ele>
                <time>2011-02-26T11:45:51.000Z</time>
                <name>Position 446</name>
            </trkpt>
            <trkpt lon="11.156418984755874" lat="49.78920699097216">
                <ele>488.97</ele>
                <time>2011-02-26T11:45:52.000Z</time>
                <name>Position 447</name>
            </trkpt>
            <trkpt lon="11.156441029161215" lat="49.78908997960389">
                <ele>488.49</ele>
                <time>2011-02-26T11:45:53.000Z</time>
                <name>Position 448</name>
            </trkpt>
            <trkpt lon="11.156487967818975" lat="49.7889700345695">
                <ele>488.49</ele>
                <time>2011-02-26T11:45:54.000Z</time>
                <name>Position 449</name>
            </trkpt>
            <trkpt lon="11.156559968367219" lat="49.78885402902961">
                <ele>487.53</ele>
                <time>2011-02-26T11:45:55.000Z</time>
                <name>Position 450</name>
            </trkpt>
            <trkpt lon="11.156661976128817" lat="49.788743974640965">
                <ele>487.53</ele>
                <time>2011-02-26T11:45:56.000Z</time>
                <name>Position 451</name>
            </trkpt>
            <trkpt lon="11.156788039952517" lat="49.78864699602127">
                <ele>487.05</ele>
                <time>2011-02-26T11:45:57.000Z</time>
                <name>Position 452</name>
            </trkpt>
            <trkpt lon="11.156931035220623" lat="49.78855999186635">
                <ele>487.05</ele>
                <time>2011-02-26T11:45:58.000Z</time>
                <name>Position 453</name>
            </trkpt>
            <trkpt lon="11.157080987468362" lat="49.78847499936819">
                <ele>487.53</ele>
                <time>2011-02-26T11:45:59.000Z</time>
                <name>Position 454</name>
            </trkpt>
            <trkpt lon="11.159109994769096" lat="49.78737596422434">
                <ele>497.62</ele>
                <time>2011-02-26T11:46:12.000Z</time>
                <name>Position 455</name>
            </trkpt>
            <trkpt lon="11.1592030338943" lat="49.78729298338294">
                <ele>498.58</ele>
                <time>2011-02-26T11:46:13.000Z</time>
                <name>Position 456</name>
            </trkpt>
            <trkpt lon="11.159278973937035" lat="49.7872120141983">
                <ele>499.06</ele>
                <time>2011-02-26T11:46:14.000Z</time>
                <name>Position 457</name>
            </trkpt>
            <trkpt lon="11.159336976706982" lat="49.787130039185286">
                <ele>499.54</ele>
                <time>2011-02-26T11:46:15.000Z</time>
                <name>Position 458</name>
            </trkpt>
            <trkpt lon="11.159378970041871" lat="49.78704898618162">
                <ele>500.02</ele>
                <time>2011-02-26T11:46:16.000Z</time>
                <name>Position 459</name>
            </trkpt>
            <trkpt lon="11.159409983083606" lat="49.78696801699698">
                <ele>500.5</ele>
                <time>2011-02-26T11:46:17.000Z</time>
                <name>Position 460</name>
            </trkpt>
            <trkpt lon="11.159424986690283" lat="49.78688796982169">
                <ele>500.5</ele>
                <time>2011-02-26T11:46:18.000Z</time>
                <name>Position 461</name>
            </trkpt>
            <trkpt lon="11.159424986690283" lat="49.786805994808674">
                <ele>500.5</ele>
                <time>2011-02-26T11:46:19.000Z</time>
                <name>Position 462</name>
            </trkpt>
            <trkpt lon="11.15941802971065" lat="49.786723013967276">
                <ele>500.5</ele>
                <time>2011-02-26T11:46:20.000Z</time>
                <name>Position 463</name>
            </trkpt>
            <trkpt lon="11.159558007493615" lat="49.78565901517868">
                <ele>500.98</ele>
                <time>2011-02-26T11:46:33.000Z</time>
                <name>Position 464</name>
            </trkpt>
            <trkpt lon="11.160038961097598" lat="49.78449401445687">
                <ele>501.95</ele>
                <time>2011-02-26T11:46:45.000Z</time>
                <name>Position 465</name>
            </trkpt>
            <trkpt lon="11.16034397855401" lat="49.784099981188774">
                <ele>500.02</ele>
                <time>2011-02-26T11:46:49.000Z</time>
                <name>Position 466</name>
            </trkpt>
            <trkpt lon="11.160464007407427" lat="49.78400099091232">
                <ele>499.54</ele>
                <time>2011-02-26T11:46:50.000Z</time>
                <name>Position 467</name>
            </trkpt>
            <trkpt lon="11.162353036925197" lat="49.78275602683425">
                <ele>493.77</ele>
                <time>2011-02-26T11:47:04.000Z</time>
                <name>Position 468</name>
            </trkpt>
            <trkpt lon="11.163357021287084" lat="49.78241899050772">
                <ele>488.97</ele>
                <time>2011-02-26T11:47:10.000Z</time>
                <name>Position 469</name>
            </trkpt>
            <trkpt lon="11.163506973534822" lat="49.782342966645956">
                <ele>488.01</ele>
                <time>2011-02-26T11:47:11.000Z</time>
                <name>Position 470</name>
            </trkpt>
            <trkpt lon="11.163647035136819" lat="49.782254034653306">
                <ele>487.05</ele>
                <time>2011-02-26T11:47:12.000Z</time>
                <name>Position 471</name>
            </trkpt>
            <trkpt lon="11.164609026163816" lat="49.78132599033415">
                <ele>477.43</ele>
                <time>2011-02-26T11:47:21.000Z</time>
                <name>Position 472</name>
            </trkpt>
            <trkpt lon="11.164924018085003" lat="49.7806950006634">
                <ele>474.55</ele>
                <time>2011-02-26T11:47:27.000Z</time>
                <name>Position 473</name>
            </trkpt>
            <trkpt lon="11.16500498726964" lat="49.78061101399362">
                <ele>474.07</ele>
                <time>2011-02-26T11:47:28.000Z</time>
                <name>Position 474</name>
            </trkpt>
            <trkpt lon="11.165121998637915" lat="49.78054597042501">
                <ele>473.59</ele>
                <time>2011-02-26T11:47:29.000Z</time>
                <name>Position 475</name>
            </trkpt>
            <trkpt lon="11.165256025269628" lat="49.78050003759563">
                <ele>473.59</ele>
                <time>2011-02-26T11:47:30.000Z</time>
                <name>Position 476</name>
            </trkpt>
            <trkpt lon="11.165402038022876" lat="49.78048000484705">
                <ele>473.11</ele>
                <time>2011-02-26T11:47:31.000Z</time>
                <name>Position 477</name>
            </trkpt>
            <trkpt lon="11.165550984442234" lat="49.780469024553895">
                <ele>472.63</ele>
                <time>2011-02-26T11:47:32.000Z</time>
                <name>Position 478</name>
            </trkpt>
            <trkpt lon="11.165703032165766" lat="49.78047598153353">
                <ele>473.11</ele>
                <time>2011-02-26T11:47:33.000Z</time>
                <name>Position 479</name>
            </trkpt>
            <trkpt lon="11.165854996070266" lat="49.780490985140204">
                <ele>473.59</ele>
                <time>2011-02-26T11:47:34.000Z</time>
                <name>Position 480</name>
            </trkpt>
            <trkpt lon="11.166016012430191" lat="49.780512023717165">
                <ele>474.07</ele>
                <time>2011-02-26T11:47:35.000Z</time>
                <name>Position 481</name>
            </trkpt>
            <trkpt lon="11.168015012517571" lat="49.78073498234153">
                <ele>472.63</ele>
                <time>2011-02-26T11:47:47.000Z</time>
                <name>Position 482</name>
            </trkpt>
            <trkpt lon="11.168279964476824" lat="49.780773958191276">
                <ele>471.18</ele>
                <time>2011-02-26T11:47:49.000Z</time>
                <name>Position 483</name>
            </trkpt>
            <trkpt lon="11.16840099915862" lat="49.78080103173852">
                <ele>471.66</ele>
                <time>2011-02-26T11:47:50.000Z</time>
                <name>Position 484</name>
            </trkpt>
            <trkpt lon="11.168500995263457" lat="49.78084897622466">
                <ele>470.7</ele>
                <time>2011-02-26T11:47:51.000Z</time>
                <name>Position 485</name>
            </trkpt>
            <trkpt lon="11.168576013296843" lat="49.78090798482299">
                <ele>470.22</ele>
                <time>2011-02-26T11:47:52.000Z</time>
                <name>Position 486</name>
            </trkpt>
            <trkpt lon="11.16861398331821" lat="49.78097897954285">
                <ele>469.26</ele>
                <time>2011-02-26T11:47:53.000Z</time>
                <name>Position 487</name>
            </trkpt>
            <trkpt lon="11.16863502189517" lat="49.78104502893984">
                <ele>468.78</ele>
                <time>2011-02-26T11:47:54.000Z</time>
                <name>Position 488</name>
            </trkpt>
            <trkpt lon="11.168622029945254" lat="49.7811199631542">
                <ele>467.82</ele>
                <time>2011-02-26T11:47:55.000Z</time>
                <name>Position 489</name>
            </trkpt>
            <trkpt lon="11.168586993589997" lat="49.7811939753592">
                <ele>467.34</ele>
                <time>2011-02-26T11:47:56.000Z</time>
                <name>Position 490</name>
            </trkpt>
            <trkpt lon="11.168543994426727" lat="49.7812629584223">
                <ele>466.86</ele>
                <time>2011-02-26T11:47:57.000Z</time>
                <name>Position 491</name>
            </trkpt>
            <trkpt lon="11.168526979163289" lat="49.78135599754751">
                <ele>466.86</ele>
                <time>2011-02-26T11:47:59.000Z</time>
                <name>Position 492</name>
            </trkpt>
            <trkpt lon="11.168539971113205" lat="49.7813839931041">
                <ele>466.38</ele>
                <time>2011-02-26T11:48:00.000Z</time>
                <name>Position 493</name>
            </trkpt>
            <trkpt lon="11.168557992205024" lat="49.781438978388906">
                <ele>465.9</ele>
                <time>2011-02-26T11:48:03.000Z</time>
                <name>Position 494</name>
            </trkpt>
            <trkpt lon="11.168532008305192" lat="49.78149496950209">
                <ele>464.93</ele>
                <time>2011-02-26T11:48:16.000Z</time>
                <name>Position 495</name>
            </trkpt>
            <trkpt lon="11.168523961678147" lat="49.7815050277859">
                <ele>464.93</ele>
                <time>2011-02-26T11:48:31.000Z</time>
                <name>Position 496</name>
            </trkpt>
            <trkpt lon="11.16850996389985" lat="49.781519025564194">
                <ele>464.93</ele>
                <time>2011-02-26T11:48:32.000Z</time>
                <name>Position 497</name>
            </trkpt>
            <trkpt lon="11.168106039986014" lat="49.781782971695065">
                <ele>464.93</ele>
                <time>2011-02-26T11:48:44.000Z</time>
                <name>Position 498</name>
            </trkpt>
            <trkpt lon="11.16809799335897" lat="49.7818139847368">
                <ele>465.42</ele>
                <time>2011-02-26T11:48:54.000Z</time>
                <name>Position 499</name>
            </trkpt>
            <trkpt lon="11.168089024722576" lat="49.7818279825151">
                <ele>464.93</ele>
                <time>2011-02-26T11:49:19.000Z</time>
                <name>Position 500</name>
            </trkpt>
            <trkpt lon="11.168089024722576" lat="49.7818279825151">
                <ele>464.93</ele>
                <time>2011-02-26T11:49:37.000Z</time>
                <name>Position 501</name>
            </trkpt>
            <trkpt lon="11.16816102527082" lat="49.781737038865685">
                <ele>463.97</ele>
                <time>2011-02-26T11:49:46.000Z</time>
                <name>Position 502</name>
            </trkpt>
            <trkpt lon="11.168235037475824" lat="49.78167702443898">
                <ele>464.93</ele>
                <time>2011-02-26T11:50:01.000Z</time>
                <name>Position 503</name>
            </trkpt>
            <trkpt lon="11.168223973363638" lat="49.78167995810509">
                <ele>465.42</ele>
                <time>2011-02-26T11:50:06.000Z</time>
                <name>Position 504</name>
            </trkpt>
            <trkpt lon="11.16838096641004" lat="49.781630001962185">
                <ele>464.93</ele>
                <time>2011-02-26T11:50:23.000Z</time>
                <name>Position 505</name>
            </trkpt>
            <trkpt lon="11.168352970853448" lat="49.78163695894182">
                <ele>464.93</ele>
                <time>2011-02-26T11:50:27.000Z</time>
                <name>Position 506</name>
            </trkpt>
            <trkpt lon="11.16831500083208" lat="49.78165598586202">
                <ele>464.93</ele>
                <time>2011-02-26T11:50:29.000Z</time>
                <name>Position 507</name>
            </trkpt>
            <trkpt lon="11.168375015258789" lat="49.781627990305424">
                <ele>465.9</ele>
                <time>2011-02-26T11:50:42.000Z</time>
                <name>Position 508</name>
            </trkpt>
            <trkpt lon="11.168497977778316" lat="49.78155397810042">
                <ele>465.9</ele>
                <time>2011-02-26T11:50:58.000Z</time>
                <name>Position 509</name>
            </trkpt>
            <trkpt lon="11.16850996389985" lat="49.78151500225067">
                <ele>466.38</ele>
                <time>2011-02-26T11:51:03.000Z</time>
                <name>Position 510</name>
            </trkpt>
            <trkpt lon="11.168519016355276" lat="49.78146797977388">
                <ele>466.38</ele>
                <time>2011-02-26T11:51:16.000Z</time>
                <name>Position 511</name>
            </trkpt>
            <trkpt lon="11.168496971949935" lat="49.78139899671078">
                <ele>466.86</ele>
                <time>2011-02-26T11:51:31.000Z</time>
                <name>Position 512</name>
            </trkpt>
            <trkpt lon="11.168492026627064" lat="49.78140796534717">
                <ele>467.34</ele>
                <time>2011-02-26T11:51:33.000Z</time>
                <name>Position 513</name>
            </trkpt>
            <trkpt lon="11.168477023020387" lat="49.781416011974216">
                <ele>467.34</ele>
                <time>2011-02-26T11:51:34.000Z</time>
                <name>Position 514</name>
            </trkpt>
            <trkpt lon="11.168461013585329" lat="49.78141902945936">
                <ele>467.34</ele>
                <time>2011-02-26T11:51:35.000Z</time>
                <name>Position 515</name>
            </trkpt>
            <trkpt lon="11.168456990271807" lat="49.78141802363098">
                <ele>467.34</ele>
                <time>2011-02-26T11:51:47.000Z</time>
                <name>Position 516</name>
            </trkpt>
            <trkpt lon="11.168189020827413" lat="49.781521037220955">
                <ele>467.34</ele>
                <time>2011-02-26T11:52:11.000Z</time>
                <name>Position 517</name>
            </trkpt>
            <trkpt lon="11.167478989809752" lat="49.781954968348145">
                <ele>466.38</ele>
                <time>2011-02-26T11:52:21.000Z</time>
                <name>Position 518</name>
            </trkpt>
            <trkpt lon="11.167436996474862" lat="49.78201003745198">
                <ele>466.38</ele>
                <time>2011-02-26T11:52:22.000Z</time>
                <name>Position 519</name>
            </trkpt>
            <trkpt lon="11.16740900091827" lat="49.78206602856517">
                <ele>466.38</ele>
                <time>2011-02-26T11:52:23.000Z</time>
                <name>Position 520</name>
            </trkpt>
            <trkpt lon="11.167400032281876" lat="49.782125959172845">
                <ele>466.38</ele>
                <time>2011-02-26T11:52:24.000Z</time>
                <name>Position 521</name>
            </trkpt>
            <trkpt lon="11.167405983433127" lat="49.78217901661992">
                <ele>465.9</ele>
                <time>2011-02-26T11:52:25.000Z</time>
                <name>Position 522</name>
            </trkpt>
            <trkpt lon="11.167419981211424" lat="49.78223802521825">
                <ele>465.42</ele>
                <time>2011-02-26T11:52:26.000Z</time>
                <name>Position 523</name>
            </trkpt>
            <trkpt lon="11.167456023395061" lat="49.78229803964496">
                <ele>464.45</ele>
                <time>2011-02-26T11:52:27.000Z</time>
                <name>Position 524</name>
            </trkpt>
            <trkpt lon="11.167513020336628" lat="49.78235595859587">
                <ele>463.97</ele>
                <time>2011-02-26T11:52:28.000Z</time>
                <name>Position 525</name>
            </trkpt>
            <trkpt lon="11.167585020884871" lat="49.78241002187133">
                <ele>463.49</ele>
                <time>2011-02-26T11:52:29.000Z</time>
                <name>Position 526</name>
            </trkpt>
            <trkpt lon="11.167670013383031" lat="49.78245997801423">
                <ele>463.01</ele>
                <time>2011-02-26T11:52:30.000Z</time>
                <name>Position 527</name>
            </trkpt>
            <trkpt lon="11.167763974517584" lat="49.78250599466264">
                <ele>462.53</ele>
                <time>2011-02-26T11:52:31.000Z</time>
                <name>Position 528</name>
            </trkpt>
            <trkpt lon="11.167859025299549" lat="49.782554022967815">
                <ele>461.57</ele>
                <time>2011-02-26T11:52:32.000Z</time>
                <name>Position 529</name>
            </trkpt>
            <trkpt lon="11.16794703528285" lat="49.7826049849391">
                <ele>461.09</ele>
                <time>2011-02-26T11:52:33.000Z</time>
                <name>Position 530</name>
            </trkpt>
            <trkpt lon="11.168352970853448" lat="49.78291000239551">
                <ele>458.21</ele>
                <time>2011-02-26T11:52:38.000Z</time>
                <name>Position 531</name>
            </trkpt>
            <trkpt lon="11.168652959167957" lat="49.783304035663605">
                <ele>452.92</ele>
                <time>2011-02-26T11:52:43.000Z</time>
                <name>Position 532</name>
            </trkpt>
            <trkpt lon="11.169167021289468" lat="49.784527039155364">
                <ele>440.9</ele>
                <time>2011-02-26T11:52:56.000Z</time>
                <name>Position 533</name>
            </trkpt>
            <trkpt lon="11.169605981558561" lat="49.78562096133828">
                <ele>431.29</ele>
                <time>2011-02-26T11:53:07.000Z</time>
                <name>Position 534</name>
            </trkpt>
            <trkpt lon="11.170282987877727" lat="49.78655696846545">
                <ele>425.04</ele>
                <time>2011-02-26T11:53:16.000Z</time>
                <name>Position 535</name>
            </trkpt>
            <trkpt lon="11.170879025012255" lat="49.78735802695155">
                <ele>420.23</ele>
                <time>2011-02-26T11:53:23.000Z</time>
                <name>Position 536</name>
            </trkpt>
            <trkpt lon="11.171230981126428" lat="49.78787099942565">
                <ele>416.87</ele>
                <time>2011-02-26T11:53:28.000Z</time>
                <name>Position 537</name>
            </trkpt>
            <trkpt lon="11.17129996418953" lat="49.78793998248875">
                <ele>415.91</ele>
                <time>2011-02-26T11:53:29.000Z</time>
                <name>Position 538</name>
            </trkpt>
            <trkpt lon="11.17134204134345" lat="49.7880220413208">
                <ele>415.43</ele>
                <time>2011-02-26T11:53:30.000Z</time>
                <name>Position 539</name>
            </trkpt>
            <trkpt lon="11.171418987214565" lat="49.788056993857026">
                <ele>414.47</ele>
                <time>2011-02-26T11:53:31.000Z</time>
                <name>Position 540</name>
            </trkpt>
            <trkpt lon="11.171498028561473" lat="49.788077026605606">
                <ele>413.98</ele>
                <time>2011-02-26T11:53:32.000Z</time>
                <name>Position 541</name>
            </trkpt>
            <trkpt lon="11.171590983867645" lat="49.78807903826237">
                <ele>413.02</ele>
                <time>2011-02-26T11:53:33.000Z</time>
                <name>Position 542</name>
            </trkpt>
            <trkpt lon="11.171675976365805" lat="49.78806504048407">
                <ele>412.06</ele>
                <time>2011-02-26T11:53:34.000Z</time>
                <name>Position 543</name>
            </trkpt>
            <trkpt lon="11.171746971085668" lat="49.78802497498691">
                <ele>411.58</ele>
                <time>2011-02-26T11:53:35.000Z</time>
                <name>Position 544</name>
            </trkpt>
            <trkpt lon="11.171799022704363" lat="49.787967978045344">
                <ele>410.14</ele>
                <time>2011-02-26T11:53:36.000Z</time>
                <name>Position 545</name>
            </trkpt>
            <trkpt lon="11.171822994947433" lat="49.7879150044173">
                <ele>409.66</ele>
                <time>2011-02-26T11:53:37.000Z</time>
                <name>Position 546</name>
            </trkpt>
            <trkpt lon="11.17181503213942" lat="49.78785398416221">
                <ele>408.7</ele>
                <time>2011-02-26T11:53:38.000Z</time>
                <name>Position 547</name>
            </trkpt>
            <trkpt lon="11.171778989955783" lat="49.78778600692749">
                <ele>408.22</ele>
                <time>2011-02-26T11:53:39.000Z</time>
                <name>Position 548</name>
            </trkpt>
            <trkpt lon="11.17172702215612" lat="49.78772096335888">
                <ele>407.26</ele>
                <time>2011-02-26T11:53:40.000Z</time>
                <name>Position 549</name>
            </trkpt>
            <trkpt lon="11.171667007729411" lat="49.78763999417424">
                <ele>407.26</ele>
                <time>2011-02-26T11:53:41.000Z</time>
                <name>Position 550</name>
            </trkpt>
            <trkpt lon="11.17160095833242" lat="49.78756899945438">
                <ele>407.26</ele>
                <time>2011-02-26T11:53:42.000Z</time>
                <name>Position 551</name>
            </trkpt>
            <trkpt lon="11.171355033293366" lat="49.78727102279663">
                <ele>406.77</ele>
                <time>2011-02-26T11:53:46.000Z</time>
                <name>Position 552</name>
            </trkpt>
            <trkpt lon="11.171327959746122" lat="49.78720597922802">
                <ele>406.29</ele>
                <time>2011-02-26T11:53:47.000Z</time>
                <name>Position 553</name>
            </trkpt>
            <trkpt lon="11.171335000544786" lat="49.78714495897293">
                <ele>405.81</ele>
                <time>2011-02-26T11:53:48.000Z</time>
                <name>Position 554</name>
            </trkpt>
            <trkpt lon="11.171380011364818" lat="49.787089973688126">
                <ele>405.81</ele>
                <time>2011-02-26T11:53:49.000Z</time>
                <name>Position 555</name>
            </trkpt>
            <trkpt lon="11.171442959457636" lat="49.78705099783838">
                <ele>405.33</ele>
                <time>2011-02-26T11:53:50.000Z</time>
                <name>Position 556</name>
            </trkpt>
            <trkpt lon="11.171539016067982" lat="49.7870309650898">
                <ele>404.37</ele>
                <time>2011-02-26T11:53:51.000Z</time>
                <name>Position 557</name>
            </trkpt>
            <trkpt lon="11.17164303548634" lat="49.787043035030365">
                <ele>402.93</ele>
                <time>2011-02-26T11:53:52.000Z</time>
                <name>Position 558</name>
            </trkpt>
            <trkpt lon="11.171736996620893" lat="49.78707295842469">
                <ele>402.45</ele>
                <time>2011-02-26T11:53:53.000Z</time>
                <name>Position 559</name>
            </trkpt>
            <trkpt lon="11.171824000775814" lat="49.787127021700144">
                <ele>401.01</ele>
                <time>2011-02-26T11:53:54.000Z</time>
                <name>Position 560</name>
            </trkpt>
            <trkpt lon="11.171912010759115" lat="49.78718401864171">
                <ele>400.53</ele>
                <time>2011-02-26T11:53:55.000Z</time>
                <name>Position 561</name>
            </trkpt>
            <trkpt lon="11.172002032399178" lat="49.78725501336157">
                <ele>399.57</ele>
                <time>2011-02-26T11:53:56.000Z</time>
                <name>Position 562</name>
            </trkpt>
            <trkpt lon="11.172463037073612" lat="49.78774200193584">
                <ele>393.8</ele>
                <time>2011-02-26T11:54:01.000Z</time>
                <name>Position 563</name>
            </trkpt>
            <trkpt lon="11.172531014308333" lat="49.78785599581897">
                <ele>392.36</ele>
                <time>2011-02-26T11:54:02.000Z</time>
                <name>Position 564</name>
            </trkpt>
            <trkpt lon="11.172585999593139" lat="49.78797200135887">
                <ele>391.87</ele>
                <time>2011-02-26T11:54:03.000Z</time>
                <name>Position 565</name>
            </trkpt>
            <trkpt lon="11.172835025936365" lat="49.78871002793312">
                <ele>385.15</ele>
                <time>2011-02-26T11:54:09.000Z</time>
                <name>Position 566</name>
            </trkpt>
            <trkpt lon="11.173066031187773" lat="49.789000963792205">
                <ele>381.78</ele>
                <time>2011-02-26T11:54:13.000Z</time>
                <name>Position 567</name>
            </trkpt>
            <trkpt lon="11.17314800620079" lat="49.7890149615705">
                <ele>380.82</ele>
                <time>2011-02-26T11:54:14.000Z</time>
                <name>Position 568</name>
            </trkpt>
            <trkpt lon="11.173239033669233" lat="49.788996018469334">
                <ele>379.38</ele>
                <time>2011-02-26T11:54:15.000Z</time>
                <name>Position 569</name>
            </trkpt>
            <trkpt lon="11.173300975933671" lat="49.788957964628935">
                <ele>378.42</ele>
                <time>2011-02-26T11:54:16.000Z</time>
                <name>Position 570</name>
            </trkpt>
            <trkpt lon="11.17333902977407" lat="49.78890700265765">
                <ele>377.45</ele>
                <time>2011-02-26T11:54:17.000Z</time>
                <name>Position 571</name>
            </trkpt>
            <trkpt lon="11.173398960381746" lat="49.78883801959455">
                <ele>376.49</ele>
                <time>2011-02-26T11:54:18.000Z</time>
                <name>Position 572</name>
            </trkpt>
            <trkpt lon="11.173634994775057" lat="49.788397969678044">
                <ele>372.17</ele>
                <time>2011-02-26T11:54:23.000Z</time>
                <name>Position 573</name>
            </trkpt>
            <trkpt lon="11.17366399616003" lat="49.78815698996186">
                <ele>368.8</ele>
                <time>2011-02-26T11:54:25.000Z</time>
                <name>Position 574</name>
            </trkpt>
            <trkpt lon="11.17370598949492" lat="49.78750496171415">
                <ele>363.04</ele>
                <time>2011-02-26T11:54:30.000Z</time>
                <name>Position 575</name>
            </trkpt>
            <trkpt lon="11.173836998641491" lat="49.78702601976693">
                <ele>360.15</ele>
                <time>2011-02-26T11:54:34.000Z</time>
                <name>Position 576</name>
            </trkpt>
            <trkpt lon="11.173916961997747" lat="49.78638698346913">
                <ele>357.27</ele>
                <time>2011-02-26T11:54:39.000Z</time>
                <name>Position 577</name>
            </trkpt>
            <trkpt lon="11.173632983118296" lat="49.78555801324546">
                <ele>352.46</ele>
                <time>2011-02-26T11:54:46.000Z</time>
                <name>Position 578</name>
            </trkpt>
            <trkpt lon="11.173611022531986" lat="49.7854489646852">
                <ele>351.98</ele>
                <time>2011-02-26T11:54:47.000Z</time>
                <name>Position 579</name>
            </trkpt>
            <trkpt lon="11.173614040017128" lat="49.78535802103579">
                <ele>351.02</ele>
                <time>2011-02-26T11:54:48.000Z</time>
                <name>Position 580</name>
            </trkpt>
            <trkpt lon="11.173657961189747" lat="49.78527202270925">
                <ele>351.02</ele>
                <time>2011-02-26T11:54:49.000Z</time>
                <name>Position 581</name>
            </trkpt>
            <trkpt lon="11.173714036121964" lat="49.7851899638772">
                <ele>351.02</ele>
                <time>2011-02-26T11:54:50.000Z</time>
                <name>Position 582</name>
            </trkpt>
            <trkpt lon="11.174444016069174" lat="49.78408598341048">
                <ele>342.85</ele>
                <time>2011-02-26T11:55:02.000Z</time>
                <name>Position 583</name>
            </trkpt>
            <trkpt lon="11.174707962200046" lat="49.78362296707928">
                <ele>340.92</ele>
                <time>2011-02-26T11:55:07.000Z</time>
                <name>Position 584</name>
            </trkpt>
            <trkpt lon="11.174713997170329" lat="49.78352800011635">
                <ele>340.92</ele>
                <time>2011-02-26T11:55:08.000Z</time>
                <name>Position 585</name>
            </trkpt>
            <trkpt lon="11.174703016877174" lat="49.783431021496654">
                <ele>341.41</ele>
                <time>2011-02-26T11:55:09.000Z</time>
                <name>Position 586</name>
            </trkpt>
            <trkpt lon="11.174670998007059" lat="49.78333395905793">
                <ele>342.37</ele>
                <time>2011-02-26T11:55:10.000Z</time>
                <name>Position 587</name>
            </trkpt>
            <trkpt lon="11.174635961651802" lat="49.78323798626661">
                <ele>343.33</ele>
                <time>2011-02-26T11:55:11.000Z</time>
                <name>Position 588</name>
            </trkpt>
            <trkpt lon="11.174374027177691" lat="49.78245201520622">
                <ele>341.41</ele>
                <time>2011-02-26T11:55:20.000Z</time>
                <name>Position 589</name>
            </trkpt>
            <trkpt lon="11.174368998035789" lat="49.7823650110513">
                <ele>341.89</ele>
                <time>2011-02-26T11:55:21.000Z</time>
                <name>Position 590</name>
            </trkpt>
            <trkpt lon="11.174384001642466" lat="49.78228798136115">
                <ele>341.41</ele>
                <time>2011-02-26T11:55:22.000Z</time>
                <name>Position 591</name>
            </trkpt>
            <trkpt lon="11.174431024119258" lat="49.78222100995481">
                <ele>340.92</ele>
                <time>2011-02-26T11:55:23.000Z</time>
                <name>Position 592</name>
            </trkpt>
            <trkpt lon="11.174511993303895" lat="49.78215898387134">
                <ele>340.44</ele>
                <time>2011-02-26T11:55:24.000Z</time>
                <name>Position 593</name>
            </trkpt>
            <trkpt lon="11.174614001065493" lat="49.78209603577852">
                <ele>339.96</ele>
                <time>2011-02-26T11:55:25.000Z</time>
                <name>Position 594</name>
            </trkpt>
            <trkpt lon="11.174730006605387" lat="49.782040966674685">
                <ele>337.08</ele>
                <time>2011-02-26T11:55:26.000Z</time>
                <name>Position 595</name>
            </trkpt>
            <trkpt lon="11.176013024523854" lat="49.781477032229304">
                <ele>324.1</ele>
                <time>2011-02-26T11:55:35.000Z</time>
                <name>Position 596</name>
            </trkpt>
            <trkpt lon="11.177410958334804" lat="49.7807639837265">
                <ele>311.6</ele>
                <time>2011-02-26T11:55:48.000Z</time>
                <name>Position 597</name>
            </trkpt>
            <trkpt lon="11.178590962663293" lat="49.78006702847779">
                <ele>301.51</ele>
                <time>2011-02-26T11:56:01.000Z</time>
                <name>Position 598</name>
            </trkpt>
            <trkpt lon="11.179170990362763" lat="49.77924099192023">
                <ele>293.34</ele>
                <time>2011-02-26T11:56:12.000Z</time>
                <name>Position 599</name>
            </trkpt>
            <trkpt lon="11.179284984245896" lat="49.77910897694528">
                <ele>292.38</ele>
                <time>2011-02-26T11:56:14.000Z</time>
                <name>Position 600</name>
            </trkpt>
            <trkpt lon="11.179349021986127" lat="49.779050974175334">
                <ele>291.9</ele>
                <time>2011-02-26T11:56:15.000Z</time>
                <name>Position 601</name>
            </trkpt>
            <trkpt lon="11.17942001670599" lat="49.77899598889053">
                <ele>291.9</ele>
                <time>2011-02-26T11:56:16.000Z</time>
                <name>Position 602</name>
            </trkpt>
            <trkpt lon="11.179494028910995" lat="49.778945026919246">
                <ele>291.42</ele>
                <time>2011-02-26T11:56:17.000Z</time>
                <name>Position 603</name>
            </trkpt>
            <trkpt lon="11.17957298643887" lat="49.778903033584356">
                <ele>290.94</ele>
                <time>2011-02-26T11:56:18.000Z</time>
                <name>Position 604</name>
            </trkpt>
            <trkpt lon="11.179643981158733" lat="49.778862968087196">
                <ele>290.46</ele>
                <time>2011-02-26T11:56:19.000Z</time>
                <name>Position 605</name>
            </trkpt>
            <trkpt lon="11.179739031940699" lat="49.77879096753895">
                <ele>289.97</ele>
                <time>2011-02-26T11:56:21.000Z</time>
                <name>Position 606</name>
            </trkpt>
            <trkpt lon="11.17976501584053" lat="49.77876003831625">
                <ele>289.49</ele>
                <time>2011-02-26T11:56:22.000Z</time>
                <name>Position 607</name>
            </trkpt>
            <trkpt lon="11.179780019447207" lat="49.778728019446135">
                <ele>289.49</ele>
                <time>2011-02-26T11:56:23.000Z</time>
                <name>Position 608</name>
            </trkpt>
            <trkpt lon="11.179789993911982" lat="49.7786970064044">
                <ele>289.49</ele>
                <time>2011-02-26T11:56:24.000Z</time>
                <name>Position 609</name>
            </trkpt>
            <trkpt lon="11.17978798225522" lat="49.778665993362665">
                <ele>289.97</ele>
                <time>2011-02-26T11:56:25.000Z</time>
                <name>Position 610</name>
            </trkpt>
            <trkpt lon="11.179768033325672" lat="49.77863003499806">
                <ele>289.97</ele>
                <time>2011-02-26T11:56:26.000Z</time>
                <name>Position 611</name>
            </trkpt>
            <trkpt lon="11.179737020283937" lat="49.77858804166317">
                <ele>289.97</ele>
                <time>2011-02-26T11:56:27.000Z</time>
                <name>Position 612</name>
            </trkpt>
            <trkpt lon="11.179691003635526" lat="49.77854303084314">
                <ele>289.49</ele>
                <time>2011-02-26T11:56:28.000Z</time>
                <name>Position 613</name>
            </trkpt>
            <trkpt lon="11.179064959287643" lat="49.77783802896738">
                <ele>289.97</ele>
                <time>2011-02-26T11:56:37.000Z</time>
                <name>Position 614</name>
            </trkpt>
            <trkpt lon="11.177656967192888" lat="49.776472030207515">
                <ele>289.01</ele>
                <time>2011-02-26T11:56:51.000Z</time>
                <name>Position 615</name>
            </trkpt>
            <trkpt lon="11.176617024466395" lat="49.77495800703764">
                <ele>288.53</ele>
                <time>2011-02-26T11:57:04.000Z</time>
                <name>Position 616</name>
            </trkpt>
            <trkpt lon="11.176230031996965" lat="49.77461895905435">
                <ele>289.01</ele>
                <time>2011-02-26T11:57:07.000Z</time>
                <name>Position 617</name>
            </trkpt>
            <trkpt lon="11.176063986495137" lat="49.774516029283404">
                <ele>289.01</ele>
                <time>2011-02-26T11:57:08.000Z</time>
                <name>Position 618</name>
            </trkpt>
            <trkpt lon="11.173874968662858" lat="49.7734060138464">
                <ele>289.97</ele>
                <time>2011-02-26T11:57:19.000Z</time>
                <name>Position 619</name>
            </trkpt>
            <trkpt lon="11.1714309733361" lat="49.771598037332296">
                <ele>289.01</ele>
                <time>2011-02-26T11:57:33.000Z</time>
                <name>Position 620</name>
            </trkpt>
            <trkpt lon="11.169542027637362" lat="49.770390037447214">
                <ele>290.46</ele>
                <time>2011-02-26T11:57:43.000Z</time>
                <name>Position 621</name>
            </trkpt>
            <trkpt lon="11.166426977142692" lat="49.768741987645626">
                <ele>292.38</ele>
                <time>2011-02-26T11:57:57.000Z</time>
                <name>Position 622</name>
            </trkpt>
            <trkpt lon="11.164615983143449" lat="49.767210027202964">
                <ele>289.97</ele>
                <time>2011-02-26T11:58:08.000Z</time>
                <name>Position 623</name>
            </trkpt>
            <trkpt lon="11.162526961416006" lat="49.76475102826953">
                <ele>285.65</ele>
                <time>2011-02-26T11:58:23.000Z</time>
                <name>Position 624</name>
            </trkpt>
            <trkpt lon="11.160416984930634" lat="49.76288203150034">
                <ele>284.69</ele>
                <time>2011-02-26T11:58:35.000Z</time>
                <name>Position 625</name>
            </trkpt>
            <trkpt lon="11.159164980053902" lat="49.76202196441591">
                <ele>284.21</ele>
                <time>2011-02-26T11:58:43.000Z</time>
                <name>Position 626</name>
            </trkpt>
            <trkpt lon="11.15898803807795" lat="49.76189699023962">
                <ele>284.21</ele>
                <time>2011-02-26T11:58:45.000Z</time>
                <name>Position 627</name>
            </trkpt>
            <trkpt lon="11.158950990065932" lat="49.76183898746967">
                <ele>284.21</ele>
                <time>2011-02-26T11:58:46.000Z</time>
                <name>Position 628</name>
            </trkpt>
            <trkpt lon="11.158949984237552" lat="49.76178199052811">
                <ele>283.73</ele>
                <time>2011-02-26T11:58:47.000Z</time>
                <name>Position 629</name>
            </trkpt>
            <trkpt lon="11.158974040299654" lat="49.761732034385204">
                <ele>283.73</ele>
                <time>2011-02-26T11:58:48.000Z</time>
                <name>Position 630</name>
            </trkpt>
            <trkpt lon="11.159037994220853" lat="49.76169800385833">
                <ele>283.25</ele>
                <time>2011-02-26T11:58:49.000Z</time>
                <name>Position 631</name>
            </trkpt>
            <trkpt lon="11.159115023911" lat="49.761669002473354">
                <ele>282.77</ele>
                <time>2011-02-26T11:58:50.000Z</time>
                <name>Position 632</name>
            </trkpt>
            <trkpt lon="11.15920596756041" lat="49.7616440244019">
                <ele>282.28</ele>
                <time>2011-02-26T11:58:51.000Z</time>
                <name>Position 633</name>
            </trkpt>
            <trkpt lon="11.160156978294253" lat="49.76129600778222">
                <ele>282.77</ele>
                <time>2011-02-26T11:58:58.000Z</time>
                <name>Position 634</name>
            </trkpt>
            <trkpt lon="11.16197601892054" lat="49.76061497814953">
                <ele>283.25</ele>
                <time>2011-02-26T11:59:07.000Z</time>
                <name>Position 635</name>
            </trkpt>
            <trkpt lon="11.164180962368846" lat="49.76012798957527">
                <ele>282.77</ele>
                <time>2011-02-26T11:59:15.000Z</time>
                <name>Position 636</name>
            </trkpt>
            <trkpt lon="11.16739097982645" lat="49.759477972984314">
                <ele>283.73</ele>
                <time>2011-02-26T11:59:26.000Z</time>
                <name>Position 637</name>
            </trkpt>
            <trkpt lon="11.169825000688434" lat="49.758789986371994">
                <ele>286.13</ele>
                <time>2011-02-26T11:59:36.000Z</time>
                <name>Position 638</name>
            </trkpt>
            <trkpt lon="11.171597018837929" lat="49.75823703221977">
                <ele>283.25</ele>
                <time>2011-02-26T11:59:46.000Z</time>
                <name>Position 639</name>
            </trkpt>
            <trkpt lon="11.171710006892681" lat="49.75818196311593">
                <ele>282.77</ele>
                <time>2011-02-26T11:59:47.000Z</time>
                <name>Position 640</name>
            </trkpt>
            <trkpt lon="11.171801034361124" lat="49.75811599753797">
                <ele>282.77</ele>
                <time>2011-02-26T11:59:48.000Z</time>
                <name>Position 641</name>
            </trkpt>
            <trkpt lon="11.171853002160788" lat="49.758041985332966">
                <ele>282.28</ele>
                <time>2011-02-26T11:59:49.000Z</time>
                <name>Position 642</name>
            </trkpt>
            <trkpt lon="11.171877980232239" lat="49.757955987006426">
                <ele>282.28</ele>
                <time>2011-02-26T11:59:50.000Z</time>
                <name>Position 643</name>
            </trkpt>
            <trkpt lon="11.171873034909368" lat="49.757866971194744">
                <ele>282.28</ele>
                <time>2011-02-26T11:59:51.000Z</time>
                <name>Position 644</name>
            </trkpt>
            <trkpt lon="11.171833975240588" lat="49.75777602754533">
                <ele>281.8</ele>
                <time>2011-02-26T11:59:52.000Z</time>
                <name>Position 645</name>
            </trkpt>
            <trkpt lon="11.171790976077318" lat="49.75768198259175">
                <ele>281.8</ele>
                <time>2011-02-26T11:59:53.000Z</time>
                <name>Position 646</name>
            </trkpt>
            <trkpt lon="11.171701960265636" lat="49.75748903118074">
                <ele>282.77</ele>
                <time>2011-02-26T11:59:55.000Z</time>
                <name>Position 647</name>
            </trkpt>
            <trkpt lon="11.171681005507708" lat="49.757394986227155">
                <ele>282.77</ele>
                <time>2011-02-26T11:59:56.000Z</time>
                <name>Position 648</name>
            </trkpt>
            <trkpt lon="11.17168896831572" lat="49.75729800760746">
                <ele>282.77</ele>
                <time>2011-02-26T11:59:57.000Z</time>
                <name>Position 649</name>
            </trkpt>
            <trkpt lon="11.171719981357455" lat="49.757200023159385">
                <ele>283.25</ele>
                <time>2011-02-26T11:59:58.000Z</time>
                <name>Position 650</name>
            </trkpt>
            <trkpt lon="11.171759963035583" lat="49.7571059782058">
                <ele>282.77</ele>
                <time>2011-02-26T11:59:59.000Z</time>
                <name>Position 651</name>
            </trkpt>
            <trkpt lon="11.171831041574478" lat="49.75691302679479">
                <ele>283.25</ele>
                <time>2011-02-26T12:00:01.000Z</time>
                <name>Position 652</name>
            </trkpt>
            <trkpt lon="11.171940006315708" lat="49.7566120326519">
                <ele>283.25</ele>
                <time>2011-02-26T12:00:05.000Z</time>
                <name>Position 653</name>
            </trkpt>
            <trkpt lon="11.172031033784151" lat="49.756471971049905">
                <ele>283.73</ele>
                <time>2011-02-26T12:00:07.000Z</time>
                <name>Position 654</name>
            </trkpt>
            <trkpt lon="11.172100016847253" lat="49.75641204044223">
                <ele>284.21</ele>
                <time>2011-02-26T12:00:08.000Z</time>
                <name>Position 655</name>
            </trkpt>
            <trkpt lon="11.172190960496664" lat="49.756363006308675">
                <ele>284.69</ele>
                <time>2011-02-26T12:00:09.000Z</time>
                <name>Position 656</name>
            </trkpt>
            <trkpt lon="11.172292968258262" lat="49.756322018802166">
                <ele>284.69</ele>
                <time>2011-02-26T12:00:10.000Z</time>
                <name>Position 657</name>
            </trkpt>
            <trkpt lon="11.172407967969775" lat="49.75628899410367">
                <ele>284.69</ele>
                <time>2011-02-26T12:00:11.000Z</time>
                <name>Position 658</name>
            </trkpt>
            <trkpt lon="11.172534031793475" lat="49.7562599927187">
                <ele>284.69</ele>
                <time>2011-02-26T12:00:12.000Z</time>
                <name>Position 659</name>
            </trkpt>
            <trkpt lon="11.173178013414145" lat="49.75605103187263">
                <ele>286.61</ele>
                <time>2011-02-26T12:00:18.000Z</time>
                <name>Position 660</name>
            </trkpt>
            <trkpt lon="11.173269962891936" lat="49.75606603547931">
                <ele>286.61</ele>
                <time>2011-02-26T12:00:19.000Z</time>
                <name>Position 661</name>
            </trkpt>
            <trkpt lon="11.173335006460547" lat="49.756105011329055">
                <ele>285.65</ele>
                <time>2011-02-26T12:00:20.000Z</time>
                <name>Position 662</name>
            </trkpt>
            <trkpt lon="11.173393009230494" lat="49.75615303963423">
                <ele>285.65</ele>
                <time>2011-02-26T12:00:21.000Z</time>
                <name>Position 663</name>
            </trkpt>
            <trkpt lon="11.173444977030158" lat="49.75620802491903">
                <ele>286.13</ele>
                <time>2011-02-26T12:00:22.000Z</time>
                <name>Position 664</name>
            </trkpt>
            <trkpt lon="11.173694003373384" lat="49.756344985216856">
                <ele>286.61</ele>
                <time>2011-02-26T12:00:26.000Z</time>
                <name>Position 665</name>
            </trkpt>
            <trkpt lon="11.173782013356686" lat="49.75633299909532">
                <ele>287.57</ele>
                <time>2011-02-26T12:00:27.000Z</time>
                <name>Position 666</name>
            </trkpt>
            <trkpt lon="11.1738589592278" lat="49.75631003268063">
                <ele>288.05</ele>
                <time>2011-02-26T12:00:28.000Z</time>
                <name>Position 667</name>
            </trkpt>
            <trkpt lon="11.173949986696243" lat="49.75627298466861">
                <ele>288.53</ele>
                <time>2011-02-26T12:00:29.000Z</time>
                <name>Position 668</name>
            </trkpt>
            <trkpt lon="11.174055011942983" lat="49.756235014647245">
                <ele>288.53</ele>
                <time>2011-02-26T12:00:30.000Z</time>
                <name>Position 669</name>
            </trkpt>
            <trkpt lon="11.17563801817596" lat="49.75581499747932">
                <ele>290.94</ele>
                <time>2011-02-26T12:00:42.000Z</time>
                <name>Position 670</name>
            </trkpt>
            <trkpt lon="11.176501018926501" lat="49.75558198057115">
                <ele>292.86</ele>
                <time>2011-02-26T12:00:49.000Z</time>
                <name>Position 671</name>
            </trkpt>
            <trkpt lon="11.177862994372845" lat="49.75505903363228">
                <ele>292.86</ele>
                <time>2011-02-26T12:01:00.000Z</time>
                <name>Position 672</name>
            </trkpt>
            <trkpt lon="11.179844979196787" lat="49.75444497540593">
                <ele>293.34</ele>
                <time>2011-02-26T12:01:13.000Z</time>
                <name>Position 673</name>
            </trkpt>
            <trkpt lon="11.182015975937247" lat="49.75391901098192">
                <ele>292.86</ele>
                <time>2011-02-26T12:01:23.000Z</time>
                <name>Position 674</name>
            </trkpt>
            <trkpt lon="11.184309013187885" lat="49.75315600633621">
                <ele>291.9</ele>
                <time>2011-02-26T12:01:33.000Z</time>
                <name>Position 675</name>
            </trkpt>
            <trkpt lon="11.185517013072968" lat="49.75274302996695">
                <ele>292.38</ele>
                <time>2011-02-26T12:01:40.000Z</time>
                <name>Position 676</name>
            </trkpt>
            <trkpt lon="11.185626983642578" lat="49.75267203524709">
                <ele>292.38</ele>
                <time>2011-02-26T12:01:41.000Z</time>
                <name>Position 677</name>
            </trkpt>
            <trkpt lon="11.185723962262273" lat="49.752586958929896">
                <ele>292.86</ele>
                <time>2011-02-26T12:01:42.000Z</time>
                <name>Position 678</name>
            </trkpt>
            <trkpt lon="11.186908995732665" lat="49.75176201201975">
                <ele>292.38</ele>
                <time>2011-02-26T12:01:51.000Z</time>
                <name>Position 679</name>
            </trkpt>
            <trkpt lon="11.188427964225411" lat="49.75063104182482">
                <ele>293.82</ele>
                <time>2011-02-26T12:02:01.000Z</time>
                <name>Position 680</name>
            </trkpt>
            <trkpt lon="11.189481988549232" lat="49.74965597502887">
                <ele>293.82</ele>
                <time>2011-02-26T12:02:12.000Z</time>
                <name>Position 681</name>
            </trkpt>
            <trkpt lon="11.189868981018662" lat="49.749357998371124">
                <ele>294.3</ele>
                <time>2011-02-26T12:02:16.000Z</time>
                <name>Position 682</name>
            </trkpt>
            <trkpt lon="11.190805993974209" lat="49.74833498708904">
                <ele>299.59</ele>
                <time>2011-02-26T12:02:28.000Z</time>
                <name>Position 683</name>
            </trkpt>
            <trkpt lon="11.190934991464019" lat="49.74818897433579">
                <ele>300.55</ele>
                <time>2011-02-26T12:02:30.000Z</time>
                <name>Position 684</name>
            </trkpt>
            <trkpt lon="11.191007997840643" lat="49.74812895990908">
                <ele>300.55</ele>
                <time>2011-02-26T12:02:31.000Z</time>
                <name>Position 685</name>
            </trkpt>
            <trkpt lon="11.191091984510422" lat="49.74807699210942">
                <ele>301.51</ele>
                <time>2011-02-26T12:02:32.000Z</time>
                <name>Position 686</name>
            </trkpt>
            <trkpt lon="11.192459994927049" lat="49.74743099883199">
                <ele>306.8</ele>
                <time>2011-02-26T12:02:46.000Z</time>
                <name>Position 687</name>
            </trkpt>
            <trkpt lon="11.193792968988419" lat="49.74677201360464">
                <ele>312.09</ele>
                <time>2011-02-26T12:02:55.000Z</time>
                <name>Position 688</name>
            </trkpt>
            <trkpt lon="11.194401998072863" lat="49.74653698503971">
                <ele>313.05</ele>
                <time>2011-02-26T12:02:59.000Z</time>
                <name>Position 689</name>
            </trkpt>
            <trkpt lon="11.19452697224915" lat="49.74647303111851">
                <ele>313.05</ele>
                <time>2011-02-26T12:03:00.000Z</time>
                <name>Position 690</name>
            </trkpt>
            <trkpt lon="11.194643983617425" lat="49.746393989771605">
                <ele>313.05</ele>
                <time>2011-02-26T12:03:01.000Z</time>
                <name>Position 691</name>
            </trkpt>
            <trkpt lon="11.19476300664246" lat="49.7463059797883">
                <ele>313.53</ele>
                <time>2011-02-26T12:03:02.000Z</time>
                <name>Position 692</name>
            </trkpt>
            <trkpt lon="11.194882029667497" lat="49.74621998146176">
                <ele>313.53</ele>
                <time>2011-02-26T12:03:03.000Z</time>
                <name>Position 693</name>
            </trkpt>
            <trkpt lon="11.19514798745513" lat="49.74606701172888">
                <ele>315.93</ele>
                <time>2011-02-26T12:03:05.000Z</time>
                <name>Position 694</name>
            </trkpt>
            <trkpt lon="11.196279041469097" lat="49.74564800038934">
                <ele>320.26</ele>
                <time>2011-02-26T12:03:13.000Z</time>
                <name>Position 695</name>
            </trkpt>
            <trkpt lon="11.196376020088792" lat="49.74559100344777">
                <ele>320.74</ele>
                <time>2011-02-26T12:03:14.000Z</time>
                <name>Position 696</name>
            </trkpt>
            <trkpt lon="11.196447014808655" lat="49.74552000872791">
                <ele>321.22</ele>
                <time>2011-02-26T12:03:15.000Z</time>
                <name>Position 697</name>
            </trkpt>
            <trkpt lon="11.196497976779938" lat="49.74543903954327">
                <ele>321.7</ele>
                <time>2011-02-26T12:03:16.000Z</time>
                <name>Position 698</name>
            </trkpt>
            <trkpt lon="11.196534018963575" lat="49.74535597488284">
                <ele>322.18</ele>
                <time>2011-02-26T12:03:17.000Z</time>
                <name>Position 699</name>
            </trkpt>
            <trkpt lon="11.19656603783369" lat="49.74526897072792">
                <ele>322.18</ele>
                <time>2011-02-26T12:03:18.000Z</time>
                <name>Position 700</name>
            </trkpt>
            <trkpt lon="11.197008015587926" lat="49.74425601772964">
                <ele>321.7</ele>
                <time>2011-02-26T12:03:27.000Z</time>
                <name>Position 701</name>
            </trkpt>
            <trkpt lon="11.197621989995241" lat="49.742292976006866">
                <ele>323.62</ele>
                <time>2011-02-26T12:03:43.000Z</time>
                <name>Position 702</name>
            </trkpt>
            <trkpt lon="11.19783396832645" lat="49.74175997078419">
                <ele>323.14</ele>
                <time>2011-02-26T12:03:48.000Z</time>
                <name>Position 703</name>
            </trkpt>
            <trkpt lon="11.197838997468352" lat="49.74166198633611">
                <ele>323.14</ele>
                <time>2011-02-26T12:03:49.000Z</time>
                <name>Position 704</name>
            </trkpt>
            <trkpt lon="11.197819970548153" lat="49.74156802520156">
                <ele>323.14</ele>
                <time>2011-02-26T12:03:50.000Z</time>
                <name>Position 705</name>
            </trkpt>
            <trkpt lon="11.197786023840308" lat="49.741474986076355">
                <ele>323.14</ele>
                <time>2011-02-26T12:03:51.000Z</time>
                <name>Position 706</name>
            </trkpt>
            <trkpt lon="11.197743024677038" lat="49.74138597026467">
                <ele>323.62</ele>
                <time>2011-02-26T12:03:52.000Z</time>
                <name>Position 707</name>
            </trkpt>
            <trkpt lon="11.197488969191909" lat="49.740982968360186">
                <ele>324.1</ele>
                <time>2011-02-26T12:03:57.000Z</time>
                <name>Position 708</name>
            </trkpt>
            <trkpt lon="11.197420991957188" lat="49.740915996953845">
                <ele>324.58</ele>
                <time>2011-02-26T12:03:58.000Z</time>
                <name>Position 709</name>
            </trkpt>
            <trkpt lon="11.197299035266042" lat="49.740786999464035">
                <ele>325.06</ele>
                <time>2011-02-26T12:04:00.000Z</time>
                <name>Position 710</name>
            </trkpt>
            <trkpt lon="11.197259975597262" lat="49.740722039714456">
                <ele>325.06</ele>
                <time>2011-02-26T12:04:01.000Z</time>
                <name>Position 711</name>
            </trkpt>
            <trkpt lon="11.197243966162205" lat="49.740660013630986">
                <ele>325.06</ele>
                <time>2011-02-26T12:04:02.000Z</time>
                <name>Position 712</name>
            </trkpt>
            <trkpt lon="11.19725201278925" lat="49.7405989933759">
                <ele>325.06</ele>
                <time>2011-02-26T12:04:03.000Z</time>
                <name>Position 713</name>
            </trkpt>
            <trkpt lon="11.197282020002604" lat="49.74054501391947">
                <ele>325.06</ele>
                <time>2011-02-26T12:04:04.000Z</time>
                <name>Position 714</name>
            </trkpt>
            <trkpt lon="11.19733901694417" lat="49.74049799144268">
                <ele>325.06</ele>
                <time>2011-02-26T12:04:05.000Z</time>
                <name>Position 715</name>
            </trkpt>
            <trkpt lon="11.19740598835051" lat="49.740465972572565">
                <ele>325.54</ele>
                <time>2011-02-26T12:04:06.000Z</time>
                <name>Position 716</name>
            </trkpt>
            <trkpt lon="11.197487963363528" lat="49.74045499227941">
                <ele>325.54</ele>
                <time>2011-02-26T12:04:07.000Z</time>
                <name>Position 717</name>
            </trkpt>
            <trkpt lon="11.197583014145494" lat="49.740463960915804">
                <ele>326.02</ele>
                <time>2011-02-26T12:04:08.000Z</time>
                <name>Position 718</name>
            </trkpt>
            <trkpt lon="11.197655014693737" lat="49.74049799144268">
                <ele>326.02</ele>
                <time>2011-02-26T12:04:09.000Z</time>
                <name>Position 719</name>
            </trkpt>
            <trkpt lon="11.197731960564852" lat="49.7405350394547">
                <ele>326.02</ele>
                <time>2011-02-26T12:04:10.000Z</time>
                <name>Position 720</name>
            </trkpt>
            <trkpt lon="11.1978970002383" lat="49.74060502834618">
                <ele>326.5</ele>
                <time>2011-02-26T12:04:12.000Z</time>
                <name>Position 721</name>
            </trkpt>
            <trkpt lon="11.197992973029613" lat="49.740636041387916">
                <ele>326.5</ele>
                <time>2011-02-26T12:04:13.000Z</time>
                <name>Position 722</name>
            </trkpt>
            <trkpt lon="11.19809296913445" lat="49.740656996145844">
                <ele>326.99</ele>
                <time>2011-02-26T12:04:14.000Z</time>
                <name>Position 723</name>
            </trkpt>
            <trkpt lon="11.198191037401557" lat="49.74067199975252">
                <ele>327.47</ele>
                <time>2011-02-26T12:04:15.000Z</time>
                <name>Position 724</name>
            </trkpt>
            <trkpt lon="11.198295978829265" lat="49.740679040551186">
                <ele>328.43</ele>
                <time>2011-02-26T12:04:16.000Z</time>
                <name>Position 725</name>
            </trkpt>
            <trkpt lon="11.198389017954469" lat="49.740678034722805">
                <ele>328.91</ele>
                <time>2011-02-26T12:04:17.000Z</time>
                <name>Position 726</name>
            </trkpt>
            <trkpt lon="11.198492031544447" lat="49.740660013630986">
                <ele>329.87</ele>
                <time>2011-02-26T12:04:18.000Z</time>
                <name>Position 727</name>
            </trkpt>
            <trkpt lon="11.198594961315393" lat="49.74064299836755">
                <ele>330.83</ele>
                <time>2011-02-26T12:04:19.000Z</time>
                <name>Position 728</name>
            </trkpt>
            <trkpt lon="11.198690012097359" lat="49.74060997366905">
                <ele>331.79</ele>
                <time>2011-02-26T12:04:20.000Z</time>
                <name>Position 729</name>
            </trkpt>
            <trkpt lon="11.198782967403531" lat="49.7405659686774">
                <ele>332.27</ele>
                <time>2011-02-26T12:04:21.000Z</time>
                <name>Position 730</name>
            </trkpt>
            <trkpt lon="11.19886795990169" lat="49.74051400087774">
                <ele>332.75</ele>
                <time>2011-02-26T12:04:22.000Z</time>
                <name>Position 731</name>
            </trkpt>
            <trkpt lon="11.198942977935076" lat="49.74045901559293">
                <ele>333.71</ele>
                <time>2011-02-26T12:04:23.000Z</time>
                <name>Position 732</name>
            </trkpt>
            <trkpt lon="11.199022019281983" lat="49.74039296619594">
                <ele>334.2</ele>
                <time>2011-02-26T12:04:24.000Z</time>
                <name>Position 733</name>
            </trkpt>
            <trkpt lon="11.199313960969448" lat="49.74010999314487">
                <ele>336.12</ele>
                <time>2011-02-26T12:04:28.000Z</time>
                <name>Position 734</name>
            </trkpt>
            <trkpt lon="11.19935997761786" lat="49.74003002978861">
                <ele>336.6</ele>
                <time>2011-02-26T12:04:29.000Z</time>
                <name>Position 735</name>
            </trkpt>
            <trkpt lon="11.199797010049224" lat="49.73891096189618">
                <ele>342.85</ele>
                <time>2011-02-26T12:04:40.000Z</time>
                <name>Position 736</name>
            </trkpt>
            <trkpt lon="11.199974035844207" lat="49.73781201057136">
                <ele>348.13</ele>
                <time>2011-02-26T12:04:50.000Z</time>
                <name>Position 737</name>
            </trkpt>
            <trkpt lon="11.199933970347047" lat="49.73770103417337">
                <ele>349.1</ele>
                <time>2011-02-26T12:04:51.000Z</time>
                <name>Position 738</name>
            </trkpt>
            <trkpt lon="11.19981000199914" lat="49.737373972311616">
                <ele>351.98</ele>
                <time>2011-02-26T12:04:54.000Z</time>
                <name>Position 739</name>
            </trkpt>
            <trkpt lon="11.19978996925056" lat="49.73726601339877">
                <ele>352.46</ele>
                <time>2011-02-26T12:04:55.000Z</time>
                <name>Position 740</name>
            </trkpt>
            <trkpt lon="11.199782006442547" lat="49.737155037000775">
                <ele>353.42</ele>
                <time>2011-02-26T12:04:56.000Z</time>
                <name>Position 741</name>
            </trkpt>
            <trkpt lon="11.19978602975607" lat="49.73704498261213">
                <ele>353.42</ele>
                <time>2011-02-26T12:04:57.000Z</time>
                <name>Position 742</name>
            </trkpt>
            <trkpt lon="11.199804972857237" lat="49.73692998290062">
                <ele>353.42</ele>
                <time>2011-02-26T12:04:58.000Z</time>
                <name>Position 743</name>
            </trkpt>
            <trkpt lon="11.19983296841383" lat="49.73681699484587">
                <ele>353.9</ele>
                <time>2011-02-26T12:04:59.000Z</time>
                <name>Position 744</name>
            </trkpt>
            <trkpt lon="11.200076965615153" lat="49.735971009358764">
                <ele>357.27</ele>
                <time>2011-02-26T12:05:06.000Z</time>
                <name>Position 745</name>
            </trkpt>
            <trkpt lon="11.200297996401787" lat="49.734557988122106">
                <ele>361.11</ele>
                <time>2011-02-26T12:05:16.000Z</time>
                <name>Position 746</name>
            </trkpt>
            <trkpt lon="11.200704015791416" lat="49.73316399380565">
                <ele>373.61</ele>
                <time>2011-02-26T12:05:26.000Z</time>
                <name>Position 747</name>
            </trkpt>
            <trkpt lon="11.200694041326642" lat="49.733051005750895">
                <ele>374.09</ele>
                <time>2011-02-26T12:05:27.000Z</time>
                <name>Position 748</name>
            </trkpt>
            <trkpt lon="11.200659004971385" lat="49.732944974675775">
                <ele>374.57</ele>
                <time>2011-02-26T12:05:28.000Z</time>
                <name>Position 749</name>
            </trkpt>
            <trkpt lon="11.200522966682911" lat="49.73267901688814">
                <ele>376.97</ele>
                <time>2011-02-26T12:05:31.000Z</time>
                <name>Position 750</name>
            </trkpt>
            <trkpt lon="11.200184002518654" lat="49.732067976146936">
                <ele>382.74</ele>
                <time>2011-02-26T12:05:38.000Z</time>
                <name>Position 751</name>
            </trkpt>
            <trkpt lon="11.199770020321012" lat="49.73132902756333">
                <ele>388.99</ele>
                <time>2011-02-26T12:05:45.000Z</time>
                <name>Position 752</name>
            </trkpt>
            <trkpt lon="11.199501967057586" lat="49.730131002143025">
                <ele>397.16</ele>
                <time>2011-02-26T12:05:54.000Z</time>
                <name>Position 753</name>
            </trkpt>
            <trkpt lon="11.19940297678113" lat="49.7295209672302">
                <ele>402.93</ele>
                <time>2011-02-26T12:05:59.000Z</time>
                <name>Position 754</name>
            </trkpt>
            <trkpt lon="11.199441030621529" lat="49.729423988610506">
                <ele>404.37</ele>
                <time>2011-02-26T12:06:00.000Z</time>
                <name>Position 755</name>
            </trkpt>
            <trkpt lon="11.199486963450909" lat="49.729313012212515">
                <ele>406.77</ele>
                <time>2011-02-26T12:06:01.000Z</time>
                <name>Position 756</name>
            </trkpt>
            <trkpt lon="11.19957597926259" lat="49.72922198474407">
                <ele>407.74</ele>
                <time>2011-02-26T12:06:02.000Z</time>
                <name>Position 757</name>
            </trkpt>
            <trkpt lon="11.199674969539046" lat="49.72912601195276">
                <ele>408.7</ele>
                <time>2011-02-26T12:06:03.000Z</time>
                <name>Position 758</name>
            </trkpt>
            <trkpt lon="11.19978804141283" lat="49.72904596477747">
                <ele>409.66</ele>
                <time>2011-02-26T12:06:04.000Z</time>
                <name>Position 759</name>
            </trkpt>
            <trkpt lon="11.199911003932357" lat="49.72896600142121">
                <ele>411.1</ele>
                <time>2011-02-26T12:06:05.000Z</time>
                <name>Position 760</name>
            </trkpt>
            <trkpt lon="11.20126903988421" lat="49.72836099565029">
                <ele>423.12</ele>
                <time>2011-02-26T12:06:15.000Z</time>
                <name>Position 761</name>
            </trkpt>
            <trkpt lon="11.201935987919569" lat="49.72814700566232">
                <ele>429.37</ele>
                <time>2011-02-26T12:06:20.000Z</time>
                <name>Position 762</name>
            </trkpt>
            <trkpt lon="11.202050987631083" lat="49.728090008720756">
                <ele>429.85</ele>
                <time>2011-02-26T12:06:21.000Z</time>
                <name>Position 763</name>
            </trkpt>
            <trkpt lon="11.202157018706203" lat="49.72802999429405">
                <ele>430.81</ele>
                <time>2011-02-26T12:06:22.000Z</time>
                <name>Position 764</name>
            </trkpt>
            <trkpt lon="11.20294600725174" lat="49.72753596492112">
                <ele>437.06</ele>
                <time>2011-02-26T12:06:30.000Z</time>
                <name>Position 765</name>
            </trkpt>
            <trkpt lon="11.203044997528195" lat="49.72749103792012">
                <ele>438.02</ele>
                <time>2011-02-26T12:06:31.000Z</time>
                <name>Position 766</name>
            </trkpt>
            <trkpt lon="11.203704988583922" lat="49.72721602767706">
                <ele>444.27</ele>
                <time>2011-02-26T12:06:37.000Z</time>
                <name>Position 767</name>
            </trkpt>
            <trkpt lon="11.203798027709126" lat="49.72716297022998">
                <ele>445.23</ele>
                <time>2011-02-26T12:06:38.000Z</time>
                <name>Position 768</name>
            </trkpt>
            <trkpt lon="11.204456007108092" lat="49.72681595943868">
                <ele>453.88</ele>
                <time>2011-02-26T12:06:48.000Z</time>
                <name>Position 769</name>
            </trkpt>
            <trkpt lon="11.204613000154495" lat="49.72678796388209">
                <ele>456.28</ele>
                <time>2011-02-26T12:06:51.000Z</time>
                <name>Position 770</name>
            </trkpt>
            <trkpt lon="11.204677959904075" lat="49.72679299302399">
                <ele>456.76</ele>
                <time>2011-02-26T12:06:52.000Z</time>
                <name>Position 771</name>
            </trkpt>
            <trkpt lon="11.204949030652642" lat="49.72678503021598">
                <ele>459.17</ele>
                <time>2011-02-26T12:06:55.000Z</time>
                <name>Position 772</name>
            </trkpt>
            <trkpt lon="11.205514976754785" lat="49.72670498304069">
                <ele>463.97</ele>
                <time>2011-02-26T12:07:01.000Z</time>
                <name>Position 773</name>
            </trkpt>
            <trkpt lon="11.205604998394847" lat="49.72668302245438">
                <ele>464.93</ele>
                <time>2011-02-26T12:07:02.000Z</time>
                <name>Position 774</name>
            </trkpt>
            <trkpt lon="11.206158958375454" lat="49.726542038843036">
                <ele>466.38</ele>
                <time>2011-02-26T12:07:07.000Z</time>
                <name>Position 775</name>
            </trkpt>
            <trkpt lon="11.208411008119583" lat="49.726110035553575">
                <ele>476.47</ele>
                <time>2011-02-26T12:07:23.000Z</time>
                <name>Position 776</name>
            </trkpt>
            <trkpt lon="11.209706012159586" lat="49.72554802894592">
                <ele>480.32</ele>
                <time>2011-02-26T12:07:32.000Z</time>
                <name>Position 777</name>
            </trkpt>
            <trkpt lon="11.211529998108745" lat="49.724864987656474">
                <ele>484.64</ele>
                <time>2011-02-26T12:07:43.000Z</time>
                <name>Position 778</name>
            </trkpt>
            <trkpt lon="11.213866034522653" lat="49.72422502934933">
                <ele>489.45</ele>
                <time>2011-02-26T12:07:56.000Z</time>
                <name>Position 779</name>
            </trkpt>
            <trkpt lon="11.214008023962379" lat="49.72416400909424">
                <ele>489.93</ele>
                <time>2011-02-26T12:07:57.000Z</time>
                <name>Position 780</name>
            </trkpt>
            <trkpt lon="11.21414096094668" lat="49.724093014374375">
                <ele>490.41</ele>
                <time>2011-02-26T12:07:58.000Z</time>
                <name>Position 781</name>
            </trkpt>
            <trkpt lon="11.215207977220416" lat="49.72322196699679">
                <ele>494.26</ele>
                <time>2011-02-26T12:08:08.000Z</time>
                <name>Position 782</name>
            </trkpt>
            <trkpt lon="11.215896969661117" lat="49.72278996370733">
                <ele>493.77</ele>
                <time>2011-02-26T12:08:14.000Z</time>
                <name>Position 783</name>
            </trkpt>
            <trkpt lon="11.21603099629283" lat="49.72274503670633">
                <ele>493.77</ele>
                <time>2011-02-26T12:08:15.000Z</time>
                <name>Position 784</name>
            </trkpt>
            <trkpt lon="11.216172985732555" lat="49.72270497120917">
                <ele>493.29</ele>
                <time>2011-02-26T12:08:16.000Z</time>
                <name>Position 785</name>
            </trkpt>
            <trkpt lon="11.216324027627707" lat="49.722677981480956">
                <ele>492.81</ele>
                <time>2011-02-26T12:08:17.000Z</time>
                <name>Position 786</name>
            </trkpt>
            <trkpt lon="11.2164849601686" lat="49.72265996038914">
                <ele>492.33</ele>
                <time>2011-02-26T12:08:18.000Z</time>
                <name>Position 787</name>
            </trkpt>
            <trkpt lon="11.216645976528525" lat="49.722654009237885">
                <ele>491.85</ele>
                <time>2011-02-26T12:08:19.000Z</time>
                <name>Position 788</name>
            </trkpt>
            <trkpt lon="11.216812022030354" lat="49.722650991752744">
                <ele>491.37</ele>
                <time>2011-02-26T12:08:20.000Z</time>
                <name>Position 789</name>
            </trkpt>
            <trkpt lon="11.218570964410901" lat="49.72241202369332">
                <ele>485.12</ele>
                <time>2011-02-26T12:08:30.000Z</time>
                <name>Position 790</name>
            </trkpt>
            <trkpt lon="11.220408026129007" lat="49.72195001319051">
                <ele>474.07</ele>
                <time>2011-02-26T12:08:43.000Z</time>
                <name>Position 791</name>
            </trkpt>
            <trkpt lon="11.220496036112309" lat="49.72191296517849">
                <ele>473.11</ele>
                <time>2011-02-26T12:08:44.000Z</time>
                <name>Position 792</name>
            </trkpt>
            <trkpt lon="11.220560995861888" lat="49.72186703234911">
                <ele>472.14</ele>
                <time>2011-02-26T12:08:45.000Z</time>
                <name>Position 793</name>
            </trkpt>
            <trkpt lon="11.220620004460216" lat="49.72181003540754">
                <ele>471.18</ele>
                <time>2011-02-26T12:08:46.000Z</time>
                <name>Position 794</name>
            </trkpt>
            <trkpt lon="11.22067498974502" lat="49.72173996269703">
                <ele>470.22</ele>
                <time>2011-02-26T12:08:47.000Z</time>
                <name>Position 795</name>
            </trkpt>
            <trkpt lon="11.220730980858207" lat="49.721666034311056">
                <ele>469.26</ele>
                <time>2011-02-26T12:08:48.000Z</time>
                <name>Position 796</name>
            </trkpt>
            <trkpt lon="11.221212018281221" lat="49.721109978854656">
                <ele>460.13</ele>
                <time>2011-02-26T12:08:57.000Z</time>
                <name>Position 797</name>
            </trkpt>
            <trkpt lon="11.22146800160408" lat="49.720914009958506">
                <ele>456.28</ele>
                <time>2011-02-26T12:09:02.000Z</time>
                <name>Position 798</name>
            </trkpt>
            <trkpt lon="11.221642009913921" lat="49.720698008313775">
                <ele>454.84</ele>
                <time>2011-02-26T12:09:06.000Z</time>
                <name>Position 799</name>
            </trkpt>
            <trkpt lon="11.221938980743289" lat="49.720246978104115">
                <ele>459.17</ele>
                <time>2011-02-26T12:09:13.000Z</time>
                <name>Position 800</name>
            </trkpt>
            <trkpt lon="11.221966976299882" lat="49.72018998116255">
                <ele>459.65</ele>
                <time>2011-02-26T12:09:14.000Z</time>
                <name>Position 801</name>
            </trkpt>
            <trkpt lon="11.222180966287851" lat="49.7193600051105">
                <ele>468.3</ele>
                <time>2011-02-26T12:09:26.000Z</time>
                <name>Position 802</name>
            </trkpt>
            <trkpt lon="11.22237198986113" lat="49.718140019103885">
                <ele>470.7</ele>
                <time>2011-02-26T12:09:37.000Z</time>
                <name>Position 803</name>
            </trkpt>
            <trkpt lon="11.222319016233087" lat="49.71780700609088">
                <ele>471.66</ele>
                <time>2011-02-26T12:09:40.000Z</time>
                <name>Position 804</name>
            </trkpt>
            <trkpt lon="11.222266964614391" lat="49.717692006379366">
                <ele>472.14</ele>
                <time>2011-02-26T12:09:41.000Z</time>
                <name>Position 805</name>
            </trkpt>
            <trkpt lon="11.222194964066148" lat="49.71757700666785">
                <ele>472.14</ele>
                <time>2011-02-26T12:09:42.000Z</time>
                <name>Position 806</name>
            </trkpt>
            <trkpt lon="11.222104020416737" lat="49.717456977814436">
                <ele>472.63</ele>
                <time>2011-02-26T12:09:43.000Z</time>
                <name>Position 807</name>
            </trkpt>
            <trkpt lon="11.22200796380639" lat="49.71734097227454">
                <ele>472.63</ele>
                <time>2011-02-26T12:09:44.000Z</time>
                <name>Position 808</name>
            </trkpt>
            <trkpt lon="11.220886968076229" lat="49.71626498736441">
                <ele>474.55</ele>
                <time>2011-02-26T12:09:53.000Z</time>
                <name>Position 809</name>
            </trkpt>
            <trkpt lon="11.220792001113296" lat="49.716121992096305">
                <ele>475.51</ele>
                <time>2011-02-26T12:09:54.000Z</time>
                <name>Position 810</name>
            </trkpt>
            <trkpt lon="11.219887007027864" lat="49.714791029691696">
                <ele>484.16</ele>
                <time>2011-02-26T12:10:04.000Z</time>
                <name>Position 811</name>
            </trkpt>
            <trkpt lon="11.219304967671633" lat="49.71354195848107">
                <ele>493.77</ele>
                <time>2011-02-26T12:10:13.000Z</time>
                <name>Position 812</name>
            </trkpt>
            <trkpt lon="11.218818984925747" lat="49.71268901601434">
                <ele>497.62</ele>
                <time>2011-02-26T12:10:20.000Z</time>
                <name>Position 813</name>
            </trkpt>
            <trkpt lon="11.218704991042614" lat="49.7125890199095">
                <ele>497.62</ele>
                <time>2011-02-26T12:10:21.000Z</time>
                <name>Position 814</name>
            </trkpt>
            <trkpt lon="11.218575993552804" lat="49.712494974955916">
                <ele>497.14</ele>
                <time>2011-02-26T12:10:22.000Z</time>
                <name>Position 815</name>
            </trkpt>
            <trkpt lon="11.218426963314414" lat="49.71240998245776">
                <ele>497.14</ele>
                <time>2011-02-26T12:10:23.000Z</time>
                <name>Position 816</name>
            </trkpt>
            <trkpt lon="11.218262007459998" lat="49.71233303658664">
                <ele>498.1</ele>
                <time>2011-02-26T12:10:24.000Z</time>
                <name>Position 817</name>
            </trkpt>
            <trkpt lon="11.218106020241976" lat="49.71225801855326">
                <ele>497.14</ele>
                <time>2011-02-26T12:10:25.000Z</time>
                <name>Position 818</name>
            </trkpt>
            <trkpt lon="11.21794500388205" lat="49.712190963327885">
                <ele>497.14</ele>
                <time>2011-02-26T12:10:26.000Z</time>
                <name>Position 819</name>
            </trkpt>
            <trkpt lon="11.216537011787295" lat="49.71162099391222">
                <ele>492.81</ele>
                <time>2011-02-26T12:10:37.000Z</time>
                <name>Position 820</name>
            </trkpt>
            <trkpt lon="11.216308018192649" lat="49.71145000308752">
                <ele>492.33</ele>
                <time>2011-02-26T12:10:40.000Z</time>
                <name>Position 821</name>
            </trkpt>
            <trkpt lon="11.216255966573954" lat="49.71138596534729">
                <ele>492.33</ele>
                <time>2011-02-26T12:10:41.000Z</time>
                <name>Position 822</name>
            </trkpt>
            <trkpt lon="11.216171979904175" lat="49.71125797368586">
                <ele>491.85</ele>
                <time>2011-02-26T12:10:43.000Z</time>
                <name>Position 823</name>
            </trkpt>
            <trkpt lon="11.21613996103406" lat="49.71119502559304">
                <ele>491.37</ele>
                <time>2011-02-26T12:10:44.000Z</time>
                <name>Position 824</name>
            </trkpt>
            <trkpt lon="11.216125041246414" lat="49.71114196814597">
                <ele>490.89</ele>
                <time>2011-02-26T12:10:45.000Z</time>
                <name>Position 825</name>
            </trkpt>
            <trkpt lon="11.216128980740905" lat="49.71109603531659">
                <ele>490.89</ele>
                <time>2011-02-26T12:10:46.000Z</time>
                <name>Position 826</name>
            </trkpt>
            <trkpt lon="11.216157982125878" lat="49.711054963991046">
                <ele>490.41</ele>
                <time>2011-02-26T12:10:47.000Z</time>
                <name>Position 827</name>
            </trkpt>
            <trkpt lon="11.216200981289148" lat="49.71102001145482">
                <ele>489.93</ele>
                <time>2011-02-26T12:10:48.000Z</time>
                <name>Position 828</name>
            </trkpt>
            <trkpt lon="11.216244986280799" lat="49.710987992584705">
                <ele>489.45</ele>
                <time>2011-02-26T12:10:49.000Z</time>
                <name>Position 829</name>
            </trkpt>
            <trkpt lon="11.216404996812344" lat="49.71089101396501">
                <ele>488.97</ele>
                <time>2011-02-26T12:10:53.000Z</time>
                <name>Position 830</name>
            </trkpt>
            <trkpt lon="11.216469034552574" lat="49.71087198704481">
                <ele>488.49</ele>
                <time>2011-02-26T12:10:54.000Z</time>
                <name>Position 831</name>
            </trkpt>
            <trkpt lon="11.216846974566579" lat="49.71077500842512">
                <ele>488.01</ele>
                <time>2011-02-26T12:10:59.000Z</time>
                <name>Position 832</name>
            </trkpt>
            <trkpt lon="11.21693498454988" lat="49.71073896624148">
                <ele>487.53</ele>
                <time>2011-02-26T12:11:00.000Z</time>
                <name>Position 833</name>
            </trkpt>
            <trkpt lon="11.217027017846704" lat="49.710686998441815">
                <ele>487.53</ele>
                <time>2011-02-26T12:11:01.000Z</time>
                <name>Position 834</name>
            </trkpt>
            <trkpt lon="11.217101030051708" lat="49.710624972358346">
                <ele>487.05</ele>
                <time>2011-02-26T12:11:02.000Z</time>
                <name>Position 835</name>
            </trkpt>
            <trkpt lon="11.217156015336514" lat="49.7105529718101">
                <ele>486.56</ele>
                <time>2011-02-26T12:11:03.000Z</time>
                <name>Position 836</name>
            </trkpt>
            <trkpt lon="11.217202031984925" lat="49.710470996797085">
                <ele>486.56</ele>
                <time>2011-02-26T12:11:04.000Z</time>
                <name>Position 837</name>
            </trkpt>
            <trkpt lon="11.21723497286439" lat="49.71038902178407">
                <ele>486.08</ele>
                <time>2011-02-26T12:11:05.000Z</time>
                <name>Position 838</name>
            </trkpt>
            <trkpt lon="11.217801002785563" lat="49.70941102132201">
                <ele>488.49</ele>
                <time>2011-02-26T12:11:15.000Z</time>
                <name>Position 839</name>
            </trkpt>
            <trkpt lon="11.218426963314414" lat="49.70807301811874">
                <ele>500.02</ele>
                <time>2011-02-26T12:11:26.000Z</time>
                <name>Position 840</name>
            </trkpt>
            <trkpt lon="11.218494018539786" lat="49.70787696540356">
                <ele>502.43</ele>
                <time>2011-02-26T12:11:28.000Z</time>
                <name>Position 841</name>
            </trkpt>
            <trkpt lon="11.218564007431269" lat="49.707807982340455">
                <ele>503.39</ele>
                <time>2011-02-26T12:11:29.000Z</time>
                <name>Position 842</name>
            </trkpt>
            <trkpt lon="11.218656962737441" lat="49.70775601454079">
                <ele>503.87</ele>
                <time>2011-02-26T12:11:30.000Z</time>
                <name>Position 843</name>
            </trkpt>
            <trkpt lon="11.218771962448955" lat="49.7077280189842">
                <ele>504.35</ele>
                <time>2011-02-26T12:11:31.000Z</time>
                <name>Position 844</name>
            </trkpt>
            <trkpt lon="11.218898026272655" lat="49.707708992064">
                <ele>504.35</ele>
                <time>2011-02-26T12:11:32.000Z</time>
                <name>Position 845</name>
            </trkpt>
            <trkpt lon="11.219030041247606" lat="49.70770304091275">
                <ele>504.83</ele>
                <time>2011-02-26T12:11:33.000Z</time>
                <name>Position 846</name>
            </trkpt>
            <trkpt lon="11.219173036515713" lat="49.70770597457886">
                <ele>504.83</ele>
                <time>2011-02-26T12:11:34.000Z</time>
                <name>Position 847</name>
            </trkpt>
            <trkpt lon="11.219332963228226" lat="49.70771896652877">
                <ele>505.31</ele>
                <time>2011-02-26T12:11:35.000Z</time>
                <name>Position 848</name>
            </trkpt>
            <trkpt lon="11.221515024080873" lat="49.70783899538219">
                <ele>492.33</ele>
                <time>2011-02-26T12:11:47.000Z</time>
                <name>Position 849</name>
            </trkpt>
            <trkpt lon="11.221708981320262" lat="49.70781301148236">
                <ele>490.41</ele>
                <time>2011-02-26T12:11:48.000Z</time>
                <name>Position 850</name>
            </trkpt>
            <trkpt lon="11.222739033401012" lat="49.707635985687375">
                <ele>487.05</ele>
                <time>2011-02-26T12:11:54.000Z</time>
                <name>Position 851</name>
            </trkpt>
            <trkpt lon="11.222884962335229" lat="49.707636991515756">
                <ele>486.56</ele>
                <time>2011-02-26T12:11:55.000Z</time>
                <name>Position 852</name>
            </trkpt>
            <trkpt lon="11.223025023937225" lat="49.70765300095081">
                <ele>485.6</ele>
                <time>2011-02-26T12:11:56.000Z</time>
                <name>Position 853</name>
            </trkpt>
            <trkpt lon="11.223159972578287" lat="49.707679990679026">
                <ele>484.64</ele>
                <time>2011-02-26T12:11:57.000Z</time>
                <name>Position 854</name>
            </trkpt>
            <trkpt lon="11.223285030573606" lat="49.70771896652877">
                <ele>484.16</ele>
                <time>2011-02-26T12:11:58.000Z</time>
                <name>Position 855</name>
            </trkpt>
            <trkpt lon="11.223408998921514" lat="49.707763977348804">
                <ele>483.2</ele>
                <time>2011-02-26T12:11:59.000Z</time>
                <name>Position 856</name>
            </trkpt>
            <trkpt lon="11.223534978926182" lat="49.70781502313912">
                <ele>482.24</ele>
                <time>2011-02-26T12:12:00.000Z</time>
                <name>Position 857</name>
            </trkpt>
            <trkpt lon="11.224151970818639" lat="49.70808098092675">
                <ele>477.91</ele>
                <time>2011-02-26T12:12:05.000Z</time>
                <name>Position 858</name>
            </trkpt>
            <trkpt lon="11.224276022985578" lat="49.70811601728201">
                <ele>477.43</ele>
                <time>2011-02-26T12:12:06.000Z</time>
                <name>Position 859</name>
            </trkpt>
            <trkpt lon="11.224399991333485" lat="49.70814200118184">
                <ele>476.47</ele>
                <time>2011-02-26T12:12:07.000Z</time>
                <name>Position 860</name>
            </trkpt>
            <trkpt lon="11.225374974310398" lat="49.70815901644528">
                <ele>470.22</ele>
                <time>2011-02-26T12:12:15.000Z</time>
                <name>Position 861</name>
            </trkpt>
            <trkpt lon="11.225479999557137" lat="49.7081630397588">
                <ele>470.22</ele>
                <time>2011-02-26T12:12:16.000Z</time>
                <name>Position 862</name>
            </trkpt>
            <trkpt lon="11.225579995661974" lat="49.70817896537483">
                <ele>470.22</ele>
                <time>2011-02-26T12:12:17.000Z</time>
                <name>Position 863</name>
            </trkpt>
            <trkpt lon="11.22683904133737" lat="49.70846596173942">
                <ele>470.22</ele>
                <time>2011-02-26T12:12:28.000Z</time>
                <name>Position 864</name>
            </trkpt>
            <trkpt lon="11.226942976936698" lat="49.70847803167999">
                <ele>470.7</ele>
                <time>2011-02-26T12:12:29.000Z</time>
                <name>Position 865</name>
            </trkpt>
            <trkpt lon="11.227040039375424" lat="49.708473002538085">
                <ele>471.18</ele>
                <time>2011-02-26T12:12:30.000Z</time>
                <name>Position 866</name>
            </trkpt>
            <trkpt lon="11.2271380238235" lat="49.708451963961124">
                <ele>471.18</ele>
                <time>2011-02-26T12:12:31.000Z</time>
                <name>Position 867</name>
            </trkpt>
            <trkpt lon="11.227230979129672" lat="49.708410976454616">
                <ele>471.18</ele>
                <time>2011-02-26T12:12:32.000Z</time>
                <name>Position 868</name>
            </trkpt>
            <trkpt lon="11.227324018254876" lat="49.70836001448333">
                <ele>471.66</ele>
                <time>2011-02-26T12:12:33.000Z</time>
                <name>Position 869</name>
            </trkpt>
            <trkpt lon="11.227409010753036" lat="49.70830502919853">
                <ele>471.18</ele>
                <time>2011-02-26T12:12:34.000Z</time>
                <name>Position 870</name>
            </trkpt>
            <trkpt lon="11.22825801372528" lat="49.70790496096015">
                <ele>474.55</ele>
                <time>2011-02-26T12:12:42.000Z</time>
                <name>Position 871</name>
            </trkpt>
            <trkpt lon="11.228378964588046" lat="49.707875959575176">
                <ele>474.55</ele>
                <time>2011-02-26T12:12:43.000Z</time>
                <name>Position 872</name>
            </trkpt>
            <trkpt lon="11.228503016754985" lat="49.70785601064563">
                <ele>474.55</ele>
                <time>2011-02-26T12:12:44.000Z</time>
                <name>Position 873</name>
            </trkpt>
            <trkpt lon="11.22864400036633" lat="49.707846036180854">
                <ele>474.55</ele>
                <time>2011-02-26T12:12:45.000Z</time>
                <name>Position 874</name>
            </trkpt>
            <trkpt lon="11.228788001462817" lat="49.70784402452409">
                <ele>475.03</ele>
                <time>2011-02-26T12:12:46.000Z</time>
                <name>Position 875</name>
            </trkpt>
            <trkpt lon="11.228938959538937" lat="49.707852993160486">
                <ele>474.55</ele>
                <time>2011-02-26T12:12:47.000Z</time>
                <name>Position 876</name>
            </trkpt>
            <trkpt lon="11.229083966463804" lat="49.70786497928202">
                <ele>475.03</ele>
                <time>2011-02-26T12:12:48.000Z</time>
                <name>Position 877</name>
            </trkpt>
            <trkpt lon="11.229671034961939" lat="49.707937985658646">
                <ele>474.55</ele>
                <time>2011-02-26T12:12:52.000Z</time>
                <name>Position 878</name>
            </trkpt>
            <trkpt lon="11.230797981843352" lat="49.708149963989854">
                <ele>477.43</ele>
                <time>2011-02-26T12:12:59.000Z</time>
                <name>Position 879</name>
            </trkpt>
            <trkpt lon="11.230980036780238" lat="49.70816597342491">
                <ele>477.91</ele>
                <time>2011-02-26T12:13:00.000Z</time>
                <name>Position 880</name>
            </trkpt>
            <trkpt lon="11.232968978583813" lat="49.70811199396849">
                <ele>486.56</ele>
                <time>2011-02-26T12:13:10.000Z</time>
                <name>Position 881</name>
            </trkpt>
            <trkpt lon="11.233977992087603" lat="49.708022978156805">
                <ele>489.45</ele>
                <time>2011-02-26T12:13:15.000Z</time>
                <name>Position 882</name>
            </trkpt>
            <trkpt lon="11.234159041196108" lat="49.707977967336774">
                <ele>489.93</ele>
                <time>2011-02-26T12:13:16.000Z</time>
                <name>Position 883</name>
            </trkpt>
            <trkpt lon="11.234327014535666" lat="49.707918958738446">
                <ele>490.41</ele>
                <time>2011-02-26T12:13:17.000Z</time>
                <name>Position 884</name>
            </trkpt>
            <trkpt lon="11.234485013410449" lat="49.707849975675344">
                <ele>490.89</ele>
                <time>2011-02-26T12:13:18.000Z</time>
                <name>Position 885</name>
            </trkpt>
            <trkpt lon="11.234645023941994" lat="49.70777101814747">
                <ele>491.85</ele>
                <time>2011-02-26T12:13:19.000Z</time>
                <name>Position 886</name>
            </trkpt>
            <trkpt lon="11.234802016988397" lat="49.70768895931542">
                <ele>492.33</ele>
                <time>2011-02-26T12:13:20.000Z</time>
                <name>Position 887</name>
            </trkpt>
            <trkpt lon="11.236523995175958" lat="49.70655203796923">
                <ele>499.54</ele>
                <time>2011-02-26T12:13:31.000Z</time>
                <name>Position 888</name>
            </trkpt>
            <trkpt lon="11.238306993618608" lat="49.70573698170483">
                <ele>496.18</ele>
                <time>2011-02-26T12:13:40.000Z</time>
                <name>Position 889</name>
            </trkpt>
            <trkpt lon="11.240561977028847" lat="49.705098029226065">
                <ele>488.97</ele>
                <time>2011-02-26T12:13:50.000Z</time>
                <name>Position 890</name>
            </trkpt>
            <trkpt lon="11.242660973221064" lat="49.70457499846816">
                <ele>472.63</ele>
                <time>2011-02-26T12:13:59.000Z</time>
                <name>Position 891</name>
            </trkpt>
            <trkpt lon="11.242898013442755" lat="49.704542979598045">
                <ele>471.18</ele>
                <time>2011-02-26T12:14:00.000Z</time>
                <name>Position 892</name>
            </trkpt>
            <trkpt lon="11.243130024522543" lat="49.7045230306685">
                <ele>470.22</ele>
                <time>2011-02-26T12:14:01.000Z</time>
                <name>Position 893</name>
            </trkpt>
            <trkpt lon="11.243751039728522" lat="49.70447198487818">
                <ele>468.3</ele>
                <time>2011-02-26T12:14:04.000Z</time>
                <name>Position 894</name>
            </trkpt>
            <trkpt lon="11.24392001889646" lat="49.70442999154329">
                <ele>467.82</ele>
                <time>2011-02-26T12:14:05.000Z</time>
                <name>Position 895</name>
            </trkpt>
            <trkpt lon="11.244080029428005" lat="49.704370982944965">
                <ele>466.38</ele>
                <time>2011-02-26T12:14:06.000Z</time>
                <name>Position 896</name>
            </trkpt>
            <trkpt lon="11.244223024696112" lat="49.7042949590832">
                <ele>464.93</ele>
                <time>2011-02-26T12:14:07.000Z</time>
                <name>Position 897</name>
            </trkpt>
            <trkpt lon="11.244351016357541" lat="49.70420703291893">
                <ele>463.97</ele>
                <time>2011-02-26T12:14:08.000Z</time>
                <name>Position 898</name>
            </trkpt>
            <trkpt lon="11.244862983003259" lat="49.703829009085894">
                <ele>460.13</ele>
                <time>2011-02-26T12:14:13.000Z</time>
                <name>Position 899</name>
            </trkpt>
            <trkpt lon="11.244977982714772" lat="49.70377402380109">
                <ele>459.17</ele>
                <time>2011-02-26T12:14:14.000Z</time>
                <name>Position 900</name>
            </trkpt>
            <trkpt lon="11.24624096788466" lat="49.70325602218509">
                <ele>450.52</ele>
                <time>2011-02-26T12:14:22.000Z</time>
                <name>Position 901</name>
            </trkpt>
            <trkpt lon="11.246418999508023" lat="49.70316901803017">
                <ele>449.07</ele>
                <time>2011-02-26T12:14:23.000Z</time>
                <name>Position 902</name>
            </trkpt>
            <trkpt lon="11.246587978675961" lat="49.70306600444019">
                <ele>446.67</ele>
                <time>2011-02-26T12:14:24.000Z</time>
                <name>Position 903</name>
            </trkpt>
            <trkpt lon="11.246746983379126" lat="49.702949998900294">
                <ele>444.27</ele>
                <time>2011-02-26T12:14:25.000Z</time>
                <name>Position 904</name>
            </trkpt>
            <trkpt lon="11.247716015204787" lat="49.702006028965116">
                <ele>434.17</ele>
                <time>2011-02-26T12:14:33.000Z</time>
                <name>Position 905</name>
            </trkpt>
            <trkpt lon="11.247777035459876" lat="49.701899997889996">
                <ele>433.21</ele>
                <time>2011-02-26T12:14:34.000Z</time>
                <name>Position 906</name>
            </trkpt>
            <trkpt lon="11.24780997633934" lat="49.701792038977146">
                <ele>431.77</ele>
                <time>2011-02-26T12:14:35.000Z</time>
                <name>Position 907</name>
            </trkpt>
            <trkpt lon="11.247821962460876" lat="49.70168902538717">
                <ele>430.81</ele>
                <time>2011-02-26T12:14:36.000Z</time>
                <name>Position 908</name>
            </trkpt>
            <trkpt lon="11.247820034623146" lat="49.70158299431205">
                <ele>429.37</ele>
                <time>2011-02-26T12:14:37.000Z</time>
                <name>Position 909</name>
            </trkpt>
            <trkpt lon="11.247846018522978" lat="49.70136699266732">
                <ele>426.48</ele>
                <time>2011-02-26T12:14:39.000Z</time>
                <name>Position 910</name>
            </trkpt>
            <trkpt lon="11.247887006029487" lat="49.701252998784184">
                <ele>425.04</ele>
                <time>2011-02-26T12:14:40.000Z</time>
                <name>Position 911</name>
            </trkpt>
            <trkpt lon="11.247947020456195" lat="49.70113699324429">
                <ele>424.08</ele>
                <time>2011-02-26T12:14:41.000Z</time>
                <name>Position 912</name>
            </trkpt>
            <trkpt lon="11.24830299988389" lat="49.700564006343484">
                <ele>418.79</ele>
                <time>2011-02-26T12:14:47.000Z</time>
                <name>Position 913</name>
            </trkpt>
            <trkpt lon="11.24836997129023" lat="49.70051497220993">
                <ele>418.31</ele>
                <time>2011-02-26T12:14:48.000Z</time>
                <name>Position 914</name>
            </trkpt>
            <trkpt lon="11.248459992930293" lat="49.700481025502086">
                <ele>417.83</ele>
                <time>2011-02-26T12:14:49.000Z</time>
                <name>Position 915</name>
            </trkpt>
            <trkpt lon="11.24856099486351" lat="49.70046803355217">
                <ele>417.35</ele>
                <time>2011-02-26T12:14:50.000Z</time>
                <name>Position 916</name>
            </trkpt>
            <trkpt lon="11.248671971261501" lat="49.70047599636018">
                <ele>416.87</ele>
                <time>2011-02-26T12:14:51.000Z</time>
                <name>Position 917</name>
            </trkpt>
            <trkpt lon="11.24879501760006" lat="49.70048697665334">
                <ele>416.39</ele>
                <time>2011-02-26T12:14:52.000Z</time>
                <name>Position 918</name>
            </trkpt>
            <trkpt lon="11.249529020860791" lat="49.70053701661527">
                <ele>414.47</ele>
                <time>2011-02-26T12:14:57.000Z</time>
                <name>Position 919</name>
            </trkpt>
            <trkpt lon="11.250294959172606" lat="49.70061697997153">
                <ele>412.54</ele>
                <time>2011-02-26T12:15:02.000Z</time>
                <name>Position 920</name>
            </trkpt>
            <trkpt lon="11.250447006896138" lat="49.70061597414315">
                <ele>412.06</ele>
                <time>2011-02-26T12:15:03.000Z</time>
                <name>Position 921</name>
            </trkpt>
            <trkpt lon="11.25060198828578" lat="49.70060599967837">
                <ele>411.58</ele>
                <time>2011-02-26T12:15:04.000Z</time>
                <name>Position 922</name>
            </trkpt>
            <trkpt lon="11.250756969675422" lat="49.70059803687036">
                <ele>410.14</ele>
                <time>2011-02-26T12:15:05.000Z</time>
                <name>Position 923</name>
            </trkpt>
            <trkpt lon="11.250914968550205" lat="49.70057297497988">
                <ele>409.66</ele>
                <time>2011-02-26T12:15:06.000Z</time>
                <name>Position 924</name>
            </trkpt>
            <trkpt lon="11.251072967424989" lat="49.700544979423285">
                <ele>410.62</ele>
                <time>2011-02-26T12:15:07.000Z</time>
                <name>Position 925</name>
            </trkpt>
            <trkpt lon="11.252474002540112" lat="49.700481025502086">
                <ele>403.89</ele>
                <time>2011-02-26T12:15:16.000Z</time>
                <name>Position 926</name>
            </trkpt>
            <trkpt lon="11.253272965550423" lat="49.70055595971644">
                <ele>399.08</ele>
                <time>2011-02-26T12:15:21.000Z</time>
                <name>Position 927</name>
            </trkpt>
            <trkpt lon="11.253853999078274" lat="49.70053601078689">
                <ele>398.12</ele>
                <time>2011-02-26T12:15:25.000Z</time>
                <name>Position 928</name>
            </trkpt>
            <trkpt lon="11.254758993163705" lat="49.700586972758174">
                <ele>394.76</ele>
                <time>2011-02-26T12:15:32.000Z</time>
                <name>Position 929</name>
            </trkpt>
            <trkpt lon="11.254879022017121" lat="49.70056903548539">
                <ele>394.28</ele>
                <time>2011-02-26T12:15:33.000Z</time>
                <name>Position 930</name>
            </trkpt>
            <trkpt lon="11.255266014486551" lat="49.70052997581661">
                <ele>392.36</ele>
                <time>2011-02-26T12:15:36.000Z</time>
                <name>Position 931</name>
            </trkpt>
            <trkpt lon="11.256028013303876" lat="49.70062603242695">
                <ele>391.39</ele>
                <time>2011-02-26T12:15:42.000Z</time>
                <name>Position 932</name>
            </trkpt>
            <trkpt lon="11.25640100799501" lat="49.7006840351969">
                <ele>390.43</ele>
                <time>2011-02-26T12:15:45.000Z</time>
                <name>Position 933</name>
            </trkpt>
            <trkpt lon="11.257458971813321" lat="49.700801968574524">
                <ele>389.95</ele>
                <time>2011-02-26T12:15:55.000Z</time>
                <name>Position 934</name>
            </trkpt>
            <trkpt lon="11.257529966533184" lat="49.70083499327302">
                <ele>389.47</ele>
                <time>2011-02-26T12:15:56.000Z</time>
                <name>Position 935</name>
            </trkpt>
            <trkpt lon="11.257976973429322" lat="49.701083013787866">
                <ele>388.99</ele>
                <time>2011-02-26T12:16:02.000Z</time>
                <name>Position 936</name>
            </trkpt>
            <trkpt lon="11.258049979805946" lat="49.70113196410239">
                <ele>388.99</ele>
                <time>2011-02-26T12:16:03.000Z</time>
                <name>Position 937</name>
            </trkpt>
            <trkpt lon="11.258621960878372" lat="49.701490039005876">
                <ele>384.66</ele>
                <time>2011-02-26T12:16:10.000Z</time>
                <name>Position 938</name>
            </trkpt>
            <trkpt lon="11.258697984740138" lat="49.701536977663636">
                <ele>384.18</ele>
                <time>2011-02-26T12:16:11.000Z</time>
                <name>Position 939</name>
            </trkpt>
            <trkpt lon="11.258749030530453" lat="49.70158701762557">
                <ele>383.7</ele>
                <time>2011-02-26T12:16:12.000Z</time>
                <name>Position 940</name>
            </trkpt>
            <trkpt lon="11.25885003246367" lat="49.70171098597348">
                <ele>382.26</ele>
                <time>2011-02-26T12:16:14.000Z</time>
                <name>Position 941</name>
            </trkpt>
            <trkpt lon="11.25915396027267" lat="49.70244398340583">
                <ele>372.17</ele>
                <time>2011-02-26T12:16:23.000Z</time>
                <name>Position 942</name>
            </trkpt>
            <trkpt lon="11.259084977209568" lat="49.70282997004688">
                <ele>369.28</ele>
                <time>2011-02-26T12:16:27.000Z</time>
                <name>Position 943</name>
            </trkpt>
            <trkpt lon="11.259042983874679" lat="49.70292502082884">
                <ele>368.8</ele>
                <time>2011-02-26T12:16:28.000Z</time>
                <name>Position 944</name>
            </trkpt>
            <trkpt lon="11.258848020806909" lat="49.703316036611795">
                <ele>367.36</ele>
                <time>2011-02-26T12:16:33.000Z</time>
                <name>Position 945</name>
            </trkpt>
            <trkpt lon="11.258837962523103" lat="49.70337596721947">
                <ele>366.4</ele>
                <time>2011-02-26T12:16:34.000Z</time>
                <name>Position 946</name>
            </trkpt>
            <trkpt lon="11.25885296612978" lat="49.703421983867884">
                <ele>366.4</ele>
                <time>2011-02-26T12:16:35.000Z</time>
                <name>Position 947</name>
            </trkpt>
            <trkpt lon="11.258885990828276" lat="49.703445034101605">
                <ele>366.88</ele>
                <time>2011-02-26T12:16:36.000Z</time>
                <name>Position 948</name>
            </trkpt>
            <trkpt lon="11.258921027183533" lat="49.703446961939335">
                <ele>366.4</ele>
                <time>2011-02-26T12:16:37.000Z</time>
                <name>Position 949</name>
            </trkpt>
            <trkpt lon="11.258961008861661" lat="49.70343296416104">
                <ele>365.92</ele>
                <time>2011-02-26T12:16:38.000Z</time>
                <name>Position 950</name>
            </trkpt>
            <trkpt lon="11.25900099053979" lat="49.70340698026121">
                <ele>365.92</ele>
                <time>2011-02-26T12:16:39.000Z</time>
                <name>Position 951</name>
            </trkpt>
            <trkpt lon="11.259033009409904" lat="49.7033659927547">
                <ele>364.96</ele>
                <time>2011-02-26T12:16:40.000Z</time>
                <name>Position 952</name>
            </trkpt>
            <trkpt lon="11.2590660341084" lat="49.70332299359143">
                <ele>364.48</ele>
                <time>2011-02-26T12:16:41.000Z</time>
                <name>Position 953</name>
            </trkpt>
            <trkpt lon="11.259499965235591" lat="49.70266099087894">
                <ele>358.23</ele>
                <time>2011-02-26T12:16:50.000Z</time>
                <name>Position 954</name>
            </trkpt>
            <trkpt lon="11.259834989905357" lat="49.7021259739995">
                <ele>354.86</ele>
                <time>2011-02-26T12:16:56.000Z</time>
                <name>Position 955</name>
            </trkpt>
            <trkpt lon="11.259915959089994" lat="49.70204098150134">
                <ele>354.38</ele>
                <time>2011-02-26T12:16:57.000Z</time>
                <name>Position 956</name>
            </trkpt>
            <trkpt lon="11.260177977383137" lat="49.70179698430002">
                <ele>353.42</ele>
                <time>2011-02-26T12:17:00.000Z</time>
                <name>Position 957</name>
            </trkpt>
            <trkpt lon="11.260238997638226" lat="49.70171199180186">
                <ele>353.42</ele>
                <time>2011-02-26T12:17:01.000Z</time>
                <name>Position 958</name>
            </trkpt>
            <trkpt lon="11.260279985144734" lat="49.70162398181856">
                <ele>352.94</ele>
                <time>2011-02-26T12:17:02.000Z</time>
                <name>Position 959</name>
            </trkpt>
            <trkpt lon="11.260300017893314" lat="49.70152700319886">
                <ele>353.9</ele>
                <time>2011-02-26T12:17:03.000Z</time>
                <name>Position 960</name>
            </trkpt>
            <trkpt lon="11.260306974872947" lat="49.70143103040755">
                <ele>354.86</ele>
                <time>2011-02-26T12:17:04.000Z</time>
                <name>Position 961</name>
            </trkpt>
            <trkpt lon="11.26031401567161" lat="49.7013349737972">
                <ele>354.86</ele>
                <time>2011-02-26T12:17:05.000Z</time>
                <name>Position 962</name>
            </trkpt>
            <trkpt lon="11.260345028713346" lat="49.70097002573311">
                <ele>356.31</ele>
                <time>2011-02-26T12:17:09.000Z</time>
                <name>Position 963</name>
            </trkpt>
            <trkpt lon="11.2603560090065" lat="49.70055595971644">
                <ele>357.27</ele>
                <time>2011-02-26T12:17:14.000Z</time>
                <name>Position 964</name>
            </trkpt>
            <trkpt lon="11.260389033704996" lat="49.7004699613899">
                <ele>357.27</ele>
                <time>2011-02-26T12:17:15.000Z</time>
                <name>Position 965</name>
            </trkpt>
            <trkpt lon="11.260447958484292" lat="49.7003869805485">
                <ele>357.75</ele>
                <time>2011-02-26T12:17:16.000Z</time>
                <name>Position 966</name>
            </trkpt>
            <trkpt lon="11.2605269998312" lat="49.700307017192245">
                <ele>358.23</ele>
                <time>2011-02-26T12:17:17.000Z</time>
                <name>Position 967</name>
            </trkpt>
            <trkpt lon="11.260620038956404" lat="49.70023099333048">
                <ele>358.71</ele>
                <time>2011-02-26T12:17:18.000Z</time>
                <name>Position 968</name>
            </trkpt>
            <trkpt lon="11.260725986212492" lat="49.70016502775252">
                <ele>358.71</ele>
                <time>2011-02-26T12:17:19.000Z</time>
                <name>Position 969</name>
            </trkpt>
            <trkpt lon="11.26085196621716" lat="49.70010199584067">
                <ele>358.71</ele>
                <time>2011-02-26T12:17:20.000Z</time>
                <name>Position 970</name>
            </trkpt>
            <trkpt lon="11.262130038812757" lat="49.69939003698528">
                <ele>358.71</ele>
                <time>2011-02-26T12:17:29.000Z</time>
                <name>Position 971</name>
            </trkpt>
            <trkpt lon="11.263206023722887" lat="49.69875100068748">
                <ele>356.31</ele>
                <time>2011-02-26T12:17:37.000Z</time>
                <name>Position 972</name>
            </trkpt>
            <trkpt lon="11.263326974585652" lat="49.69872602261603">
                <ele>355.34</ele>
                <time>2011-02-26T12:17:38.000Z</time>
                <name>Position 973</name>
            </trkpt>
            <trkpt lon="11.26342998817563" lat="49.69873398542404">
                <ele>354.86</ele>
                <time>2011-02-26T12:17:39.000Z</time>
                <name>Position 974</name>
            </trkpt>
            <trkpt lon="11.26351598650217" lat="49.69876701012254">
                <ele>354.38</ele>
                <time>2011-02-26T12:17:40.000Z</time>
                <name>Position 975</name>
            </trkpt>
            <trkpt lon="11.263597961515188" lat="49.69881302677095">
                <ele>355.34</ele>
                <time>2011-02-26T12:17:41.000Z</time>
                <name>Position 976</name>
            </trkpt>
            <trkpt lon="11.263688988983631" lat="49.69886398874223">
                <ele>354.86</ele>
                <time>2011-02-26T12:17:42.000Z</time>
                <name>Position 977</name>
            </trkpt>
            <trkpt lon="11.263895016163588" lat="49.69896901398897">
                <ele>353.9</ele>
                <time>2011-02-26T12:17:44.000Z</time>
                <name>Position 978</name>
            </trkpt>
            <trkpt lon="11.264796992763877" lat="49.699385007843375">
                <ele>355.83</ele>
                <time>2011-02-26T12:17:51.000Z</time>
                <name>Position 979</name>
            </trkpt>
            <trkpt lon="11.264915009960532" lat="49.699405040591955">
                <ele>355.83</ele>
                <time>2011-02-26T12:17:52.000Z</time>
                <name>Position 980</name>
            </trkpt>
            <trkpt lon="11.265035038813949" lat="49.699404034763575">
                <ele>356.31</ele>
                <time>2011-02-26T12:17:53.000Z</time>
                <name>Position 981</name>
            </trkpt>
            <trkpt lon="11.265158001333475" lat="49.69937897287309">
                <ele>356.79</ele>
                <time>2011-02-26T12:17:54.000Z</time>
                <name>Position 982</name>
            </trkpt>
            <trkpt lon="11.265262020751834" lat="49.69933203421533">
                <ele>356.79</ele>
                <time>2011-02-26T12:17:55.000Z</time>
                <name>Position 983</name>
            </trkpt>
            <trkpt lon="11.26536201685667" lat="49.6992679964751">
                <ele>356.79</ele>
                <time>2011-02-26T12:17:56.000Z</time>
                <name>Position 984</name>
            </trkpt>
            <trkpt lon="11.265465030446649" lat="49.6991850156337">
                <ele>356.31</ele>
                <time>2011-02-26T12:17:57.000Z</time>
                <name>Position 985</name>
            </trkpt>
            <trkpt lon="11.265566032379866" lat="49.69909599982202">
                <ele>355.83</ele>
                <time>2011-02-26T12:17:58.000Z</time>
                <name>Position 986</name>
            </trkpt>
            <trkpt lon="11.266446970403194" lat="49.69820600934327">
                <ele>356.31</ele>
                <time>2011-02-26T12:18:05.000Z</time>
                <name>Position 987</name>
            </trkpt>
            <trkpt lon="11.267322041094303" lat="49.697319958359">
                <ele>358.23</ele>
                <time>2011-02-26T12:18:11.000Z</time>
                <name>Position 988</name>
            </trkpt>
            <trkpt lon="11.267534019425511" lat="49.69719900749624">
                <ele>358.23</ele>
                <time>2011-02-26T12:18:12.000Z</time>
                <name>Position 989</name>
            </trkpt>
            <trkpt lon="11.267762007191777" lat="49.697089958935976">
                <ele>358.71</ele>
                <time>2011-02-26T12:18:13.000Z</time>
                <name>Position 990</name>
            </trkpt>
            <trkpt lon="11.270071975886822" lat="49.69627599231899">
                <ele>365.44</ele>
                <time>2011-02-26T12:18:22.000Z</time>
                <name>Position 991</name>
            </trkpt>
            <trkpt lon="11.271186014637351" lat="49.69574801623821">
                <ele>365.92</ele>
                <time>2011-02-26T12:18:29.000Z</time>
                <name>Position 992</name>
            </trkpt>
            <trkpt lon="11.271380977705121" lat="49.695562021806836">
                <ele>365.44</ele>
                <time>2011-02-26T12:18:31.000Z</time>
                <name>Position 993</name>
            </trkpt>
            <trkpt lon="11.271458007395267" lat="49.69545800238848">
                <ele>365.44</ele>
                <time>2011-02-26T12:18:32.000Z</time>
                <name>Position 994</name>
            </trkpt>
            <trkpt lon="11.271521961316466" lat="49.695344008505344">
                <ele>364.96</ele>
                <time>2011-02-26T12:18:33.000Z</time>
                <name>Position 995</name>
            </trkpt>
            <trkpt lon="11.271575018763542" lat="49.69522498548031">
                <ele>364.48</ele>
                <time>2011-02-26T12:18:34.000Z</time>
                <name>Position 996</name>
            </trkpt>
            <trkpt lon="11.271621035411954" lat="49.69510001130402">
                <ele>364.0</ele>
                <time>2011-02-26T12:18:35.000Z</time>
                <name>Position 997</name>
            </trkpt>
            <trkpt lon="11.27165699377656" lat="49.69496598467231">
                <ele>363.04</ele>
                <time>2011-02-26T12:18:36.000Z</time>
                <name>Position 998</name>
            </trkpt>
            <trkpt lon="11.271688006818295" lat="49.694827012717724">
                <ele>362.55</ele>
                <time>2011-02-26T12:18:37.000Z</time>
                <name>Position 999</name>
            </trkpt>
            <trkpt lon="11.2722800206393" lat="49.693369986489415">
                <ele>363.52</ele>
                <time>2011-02-26T12:18:47.000Z</time>
                <name>Position 1000</name>
            </trkpt>
            <trkpt lon="11.272767009213567" lat="49.69224203377962">
                <ele>378.42</ele>
                <time>2011-02-26T12:18:55.000Z</time>
                <name>Position 1001</name>
            </trkpt>
            <trkpt lon="11.272649997845292" lat="49.691329998895526">
                <ele>385.63</ele>
                <time>2011-02-26T12:19:03.000Z</time>
                <name>Position 1002</name>
            </trkpt>
            <trkpt lon="11.27223601564765" lat="49.690233981236815">
                <ele>392.36</ele>
                <time>2011-02-26T12:19:12.000Z</time>
                <name>Position 1003</name>
            </trkpt>
            <trkpt lon="11.271826978772879" lat="49.688661033287644">
                <ele>396.2</ele>
                <time>2011-02-26T12:19:22.000Z</time>
                <name>Position 1004</name>
            </trkpt>
            <trkpt lon="11.271825972944498" lat="49.687888976186514">
                <ele>401.49</ele>
                <time>2011-02-26T12:19:27.000Z</time>
                <name>Position 1005</name>
            </trkpt>
            <trkpt lon="11.271996963769197" lat="49.68680997379124">
                <ele>413.02</ele>
                <time>2011-02-26T12:19:35.000Z</time>
                <name>Position 1006</name>
            </trkpt>
            <trkpt lon="11.27204398624599" lat="49.68558495864272">
                <ele>427.92</ele>
                <time>2011-02-26T12:19:45.000Z</time>
                <name>Position 1007</name>
            </trkpt>
            <trkpt lon="11.271513998508453" lat="49.68445901758969">
                <ele>444.27</ele>
                <time>2011-02-26T12:19:54.000Z</time>
                <name>Position 1008</name>
            </trkpt>
            <trkpt lon="11.271128011867404" lat="49.682820020243526">
                <ele>454.84</ele>
                <time>2011-02-26T12:20:05.000Z</time>
                <name>Position 1009</name>
            </trkpt>
            <trkpt lon="11.270354026928544" lat="49.681316977366805">
                <ele>459.65</ele>
                <time>2011-02-26T12:20:14.000Z</time>
                <name>Position 1010</name>
            </trkpt>
            <trkpt lon="11.269139992073178" lat="49.67928797006607">
                <ele>467.82</ele>
                <time>2011-02-26T12:20:26.000Z</time>
                <name>Position 1011</name>
            </trkpt>
            <trkpt lon="11.26793802715838" lat="49.677901016548276">
                <ele>474.55</ele>
                <time>2011-02-26T12:20:35.000Z</time>
                <name>Position 1012</name>
            </trkpt>
            <trkpt lon="11.26624396070838" lat="49.67681396752596">
                <ele>472.63</ele>
                <time>2011-02-26T12:20:43.000Z</time>
                <name>Position 1013</name>
            </trkpt>
            <trkpt lon="11.264473032206297" lat="49.67540396377444">
                <ele>473.11</ele>
                <time>2011-02-26T12:20:52.000Z</time>
                <name>Position 1014</name>
            </trkpt>
            <trkpt lon="11.263154977932572" lat="49.67357603833079">
                <ele>473.11</ele>
                <time>2011-02-26T12:21:02.000Z</time>
                <name>Position 1015</name>
            </trkpt>
            <trkpt lon="11.261550011113286" lat="49.672229988500476">
                <ele>473.59</ele>
                <time>2011-02-26T12:21:10.000Z</time>
                <name>Position 1016</name>
            </trkpt>
            <trkpt lon="11.25934498384595" lat="49.670722000300884">
                <ele>481.28</ele>
                <time>2011-02-26T12:21:20.000Z</time>
                <name>Position 1017</name>
            </trkpt>
            <trkpt lon="11.258451975882053" lat="49.66936396434903">
                <ele>487.05</ele>
                <time>2011-02-26T12:21:28.000Z</time>
                <name>Position 1018</name>
            </trkpt>
            <trkpt lon="11.257169041782618" lat="49.667050978168845">
                <ele>501.95</ele>
                <time>2011-02-26T12:21:43.000Z</time>
                <name>Position 1019</name>
            </trkpt>
            <trkpt lon="11.256233034655452" lat="49.66553100384772">
                <ele>503.39</ele>
                <time>2011-02-26T12:21:53.000Z</time>
                <name>Position 1020</name>
            </trkpt>
            <trkpt lon="11.25520097091794" lat="49.6640329901129">
                <ele>499.06</ele>
                <time>2011-02-26T12:22:01.000Z</time>
                <name>Position 1021</name>
            </trkpt>
            <trkpt lon="11.252914974465966" lat="49.66058601625264">
                <ele>475.03</ele>
                <time>2011-02-26T12:22:18.000Z</time>
                <name>Position 1022</name>
            </trkpt>
            <trkpt lon="11.252196980640292" lat="49.65856698341668">
                <ele>467.34</ele>
                <time>2011-02-26T12:22:28.000Z</time>
                <name>Position 1023</name>
            </trkpt>
            <trkpt lon="11.252382975071669" lat="49.656974002718925">
                <ele>464.45</ele>
                <time>2011-02-26T12:22:36.000Z</time>
                <name>Position 1024</name>
            </trkpt>
            <trkpt lon="11.253327028825879" lat="49.65548202395439">
                <ele>462.05</ele>
                <time>2011-02-26T12:22:44.000Z</time>
                <name>Position 1025</name>
            </trkpt>
            <trkpt lon="11.255079014226794" lat="49.65403597801924">
                <ele>462.05</ele>
                <time>2011-02-26T12:22:53.000Z</time>
                <name>Position 1026</name>
            </trkpt>
            <trkpt lon="11.257854010909796" lat="49.652484990656376">
                <ele>467.34</ele>
                <time>2011-02-26T12:23:05.000Z</time>
                <name>Position 1027</name>
            </trkpt>
            <trkpt lon="11.261357981711626" lat="49.651148999109864">
                <ele>477.91</ele>
                <time>2011-02-26T12:23:19.000Z</time>
                <name>Position 1028</name>
            </trkpt>
            <trkpt lon="11.264048991724849" lat="49.65013101696968">
                <ele>478.39</ele>
                <time>2011-02-26T12:23:30.000Z</time>
                <name>Position 1029</name>
            </trkpt>
            <trkpt lon="11.265564020723104" lat="49.6493199840188">
                <ele>475.03</ele>
                <time>2011-02-26T12:23:39.000Z</time>
                <name>Position 1030</name>
            </trkpt>
            <trkpt lon="11.265721013769507" lat="49.64919199235737">
                <ele>474.55</ele>
                <time>2011-02-26T12:23:41.000Z</time>
                <name>Position 1031</name>
            </trkpt>
            <trkpt lon="11.265759989619255" lat="49.64913801290095">
                <ele>474.55</ele>
                <time>2011-02-26T12:23:42.000Z</time>
                <name>Position 1032</name>
            </trkpt>
            <trkpt lon="11.265772981569171" lat="49.649088978767395">
                <ele>474.07</ele>
                <time>2011-02-26T12:23:43.000Z</time>
                <name>Position 1033</name>
            </trkpt>
            <trkpt lon="11.265763007104397" lat="49.64904002845287">
                <ele>473.59</ele>
                <time>2011-02-26T12:23:44.000Z</time>
                <name>Position 1034</name>
            </trkpt>
            <trkpt lon="11.265730988234282" lat="49.6489920001477">
                <ele>473.59</ele>
                <time>2011-02-26T12:23:45.000Z</time>
                <name>Position 1035</name>
            </trkpt>
            <trkpt lon="11.26568103209138" lat="49.64895000681281">
                <ele>473.11</ele>
                <time>2011-02-26T12:23:46.000Z</time>
                <name>Position 1036</name>
            </trkpt>
            <trkpt lon="11.265609031543136" lat="49.648917987942696">
                <ele>473.11</ele>
                <time>2011-02-26T12:23:47.000Z</time>
                <name>Position 1037</name>
            </trkpt>
            <trkpt lon="11.265515992417932" lat="49.64889099821448">
                <ele>472.63</ele>
                <time>2011-02-26T12:23:48.000Z</time>
                <name>Position 1038</name>
            </trkpt>
            <trkpt lon="11.265409039333463" lat="49.64886199682951">
                <ele>472.14</ele>
                <time>2011-02-26T12:23:49.000Z</time>
                <name>Position 1039</name>
            </trkpt>
            <trkpt lon="11.264271028339863" lat="49.64838498272002">
                <ele>467.34</ele>
                <time>2011-02-26T12:23:57.000Z</time>
                <name>Position 1040</name>
            </trkpt>
            <trkpt lon="11.263180961832404" lat="49.64738401584327">
                <ele>456.76</ele>
                <time>2011-02-26T12:24:05.000Z</time>
                <name>Position 1041</name>
            </trkpt>
            <trkpt lon="11.26254997216165" lat="49.64688898064196">
                <ele>453.88</ele>
                <time>2011-02-26T12:24:09.000Z</time>
                <name>Position 1042</name>
            </trkpt>
            <trkpt lon="11.262362971901894" lat="49.64679401367903">
                <ele>453.4</ele>
                <time>2011-02-26T12:24:10.000Z</time>
                <name>Position 1043</name>
            </trkpt>
            <trkpt lon="11.262159962207079" lat="49.64671798981726">
                <ele>452.92</ele>
                <time>2011-02-26T12:24:11.000Z</time>
                <name>Position 1044</name>
            </trkpt>
            <trkpt lon="11.261737011373043" lat="49.64660299010575">
                <ele>451.96</ele>
                <time>2011-02-26T12:24:13.000Z</time>
                <name>Position 1045</name>
            </trkpt>
            <trkpt lon="11.259441962465644" lat="49.64622102677822">
                <ele>445.71</ele>
                <time>2011-02-26T12:24:23.000Z</time>
                <name>Position 1046</name>
            </trkpt>
            <trkpt lon="11.256451969966292" lat="49.645528011024">
                <ele>438.5</ele>
                <time>2011-02-26T12:24:37.000Z</time>
                <name>Position 1047</name>
            </trkpt>
            <trkpt lon="11.255086977034807" lat="49.644660986959934">
                <ele>432.25</ele>
                <time>2011-02-26T12:24:47.000Z</time>
                <name>Position 1048</name>
            </trkpt>
            <trkpt lon="11.254387004300952" lat="49.643519036471844">
                <ele>428.89</ele>
                <time>2011-02-26T12:24:56.000Z</time>
                <name>Position 1049</name>
            </trkpt>
            <trkpt lon="11.253515034914017" lat="49.64187601581216">
                <ele>424.08</ele>
                <time>2011-02-26T12:25:08.000Z</time>
                <name>Position 1050</name>
            </trkpt>
            <trkpt lon="11.253397017717361" lat="49.641762021929026">
                <ele>423.12</ele>
                <time>2011-02-26T12:25:09.000Z</time>
                <name>Position 1051</name>
            </trkpt>
            <trkpt lon="11.253268020227551" lat="49.641654985025525">
                <ele>422.64</ele>
                <time>2011-02-26T12:25:10.000Z</time>
                <name>Position 1052</name>
            </trkpt>
            <trkpt lon="11.253126030787826" lat="49.64155398309231">
                <ele>422.16</ele>
                <time>2011-02-26T12:25:11.000Z</time>
                <name>Position 1053</name>
            </trkpt>
            <trkpt lon="11.252968031913042" lat="49.64145700447261">
                <ele>421.19</ele>
                <time>2011-02-26T12:25:12.000Z</time>
                <name>Position 1054</name>
            </trkpt>
            <trkpt lon="11.251493990421295" lat="49.640277000144124">
                <ele>413.5</ele>
                <time>2011-02-26T12:25:23.000Z</time>
                <name>Position 1055</name>
            </trkpt>
            <trkpt lon="11.251342026516795" lat="49.640002995729446">
                <ele>411.1</ele>
                <time>2011-02-26T12:25:25.000Z</time>
                <name>Position 1056</name>
            </trkpt>
            <trkpt lon="11.250970037654042" lat="49.63835301809013">
                <ele>403.89</ele>
                <time>2011-02-26T12:25:36.000Z</time>
                <name>Position 1057</name>
            </trkpt>
            <trkpt lon="11.250813966616988" lat="49.63593198917806">
                <ele>390.43</ele>
                <time>2011-02-26T12:25:51.000Z</time>
                <name>Position 1058</name>
            </trkpt>
            <trkpt lon="11.25148301012814" lat="49.63459800928831">
                <ele>382.26</ele>
                <time>2011-02-26T12:25:59.000Z</time>
                <name>Position 1059</name>
            </trkpt>
            <trkpt lon="11.252817995846272" lat="49.632564978674054">
                <ele>370.24</ele>
                <time>2011-02-26T12:26:11.000Z</time>
                <name>Position 1060</name>
            </trkpt>
            <trkpt lon="11.252825958654284" lat="49.631557976827025">
                <ele>364.96</ele>
                <time>2011-02-26T12:26:18.000Z</time>
                <name>Position 1061</name>
            </trkpt>
            <trkpt lon="11.252207038924098" lat="49.630696987733245">
                <ele>359.67</ele>
                <time>2011-02-26T12:26:25.000Z</time>
                <name>Position 1062</name>
            </trkpt>
            <trkpt lon="11.250855037942529" lat="49.62961697950959">
                <ele>352.46</ele>
                <time>2011-02-26T12:26:35.000Z</time>
                <name>Position 1063</name>
            </trkpt>
            <trkpt lon="11.248613968491554" lat="49.62810597382486">
                <ele>350.06</ele>
                <time>2011-02-26T12:26:48.000Z</time>
                <name>Position 1064</name>
            </trkpt>
            <trkpt lon="11.246321015059948" lat="49.627364007756114">
                <ele>347.17</ele>
                <time>2011-02-26T12:26:57.000Z</time>
                <name>Position 1065</name>
            </trkpt>
            <trkpt lon="11.24286700040102" lat="49.62632800452411">
                <ele>342.85</ele>
                <time>2011-02-26T12:27:10.000Z</time>
                <name>Position 1066</name>
            </trkpt>
            <trkpt lon="11.24132297001779" lat="49.625562988221645">
                <ele>339.96</ele>
                <time>2011-02-26T12:27:20.000Z</time>
                <name>Position 1067</name>
            </trkpt>
            <trkpt lon="11.239914977923036" lat="49.62439203634858">
                <ele>337.56</ele>
                <time>2011-02-26T12:27:33.000Z</time>
                <name>Position 1068</name>
            </trkpt>
            <trkpt lon="11.238996991887689" lat="49.623432978987694">
                <ele>337.08</ele>
                <time>2011-02-26T12:27:43.000Z</time>
                <name>Position 1069</name>
            </trkpt>
            <trkpt lon="11.238864976912737" lat="49.62335200980306">
                <ele>337.56</ele>
                <time>2011-02-26T12:27:44.000Z</time>
                <name>Position 1070</name>
            </trkpt>
            <trkpt lon="11.23872097581625" lat="49.62327799759805">
                <ele>337.56</ele>
                <time>2011-02-26T12:27:45.000Z</time>
                <name>Position 1071</name>
            </trkpt>
            <trkpt lon="11.238565994426608" lat="49.62321203202009">
                <ele>337.08</ele>
                <time>2011-02-26T12:27:46.000Z</time>
                <name>Position 1072</name>
            </trkpt>
            <trkpt lon="11.238415958359838" lat="49.62315000593662">
                <ele>337.08</ele>
                <time>2011-02-26T12:27:47.000Z</time>
                <name>Position 1073</name>
            </trkpt>
            <trkpt lon="11.236487030982971" lat="49.62209799326956">
                <ele>336.6</ele>
                <time>2011-02-26T12:28:01.000Z</time>
                <name>Position 1074</name>
            </trkpt>
            <trkpt lon="11.235371986404061" lat="49.62087197229266">
                <ele>334.68</ele>
                <time>2011-02-26T12:28:13.000Z</time>
                <name>Position 1075</name>
            </trkpt>
            <trkpt lon="11.23397396877408" lat="49.619158962741494">
                <ele>333.71</ele>
                <time>2011-02-26T12:28:29.000Z</time>
                <name>Position 1076</name>
            </trkpt>
            <trkpt lon="11.233149021863937" lat="49.617803022265434">
                <ele>335.16</ele>
                <time>2011-02-26T12:28:38.000Z</time>
                <name>Position 1077</name>
            </trkpt>
            <trkpt lon="11.233114991337061" lat="49.61632998660207">
                <ele>338.52</ele>
                <time>2011-02-26T12:28:46.000Z</time>
                <name>Position 1078</name>
            </trkpt>
            <trkpt lon="11.233399976044893" lat="49.61314997635782">
                <ele>335.64</ele>
                <time>2011-02-26T12:29:03.000Z</time>
                <name>Position 1079</name>
            </trkpt>
            <trkpt lon="11.233009966090322" lat="49.61109699681401">
                <ele>328.91</ele>
                <time>2011-02-26T12:29:14.000Z</time>
                <name>Position 1080</name>
            </trkpt>
            <trkpt lon="11.232258025556803" lat="49.60962697863579">
                <ele>326.99</ele>
                <time>2011-02-26T12:29:24.000Z</time>
                <name>Position 1081</name>
            </trkpt>
            <trkpt lon="11.232216032221913" lat="49.60838100872934">
                <ele>326.99</ele>
                <time>2011-02-26T12:29:32.000Z</time>
                <name>Position 1082</name>
            </trkpt>
            <trkpt lon="11.233016001060605" lat="49.60677503608167">
                <ele>329.39</ele>
                <time>2011-02-26T12:29:41.000Z</time>
                <name>Position 1083</name>
            </trkpt>
            <trkpt lon="11.23399500735104" lat="49.6042990218848">
                <ele>340.92</ele>
                <time>2011-02-26T12:29:54.000Z</time>
                <name>Position 1084</name>
            </trkpt>
            <trkpt lon="11.234042029827833" lat="49.602506970986724">
                <ele>341.89</ele>
                <time>2011-02-26T12:30:04.000Z</time>
                <name>Position 1085</name>
            </trkpt>
            <trkpt lon="11.233603991568089" lat="49.60067200474441">
                <ele>336.6</ele>
                <time>2011-02-26T12:30:15.000Z</time>
                <name>Position 1086</name>
            </trkpt>
            <trkpt lon="11.233269972726703" lat="49.5983549952507">
                <ele>324.58</ele>
                <time>2011-02-26T12:30:27.000Z</time>
                <name>Position 1087</name>
            </trkpt>
            <trkpt lon="11.233008960261941" lat="49.59551797248423">
                <ele>321.7</ele>
                <time>2011-02-26T12:30:42.000Z</time>
                <name>Position 1088</name>
            </trkpt>
            <trkpt lon="11.232925979420543" lat="49.59536701440811">
                <ele>322.66</ele>
                <time>2011-02-26T12:30:43.000Z</time>
                <name>Position 1089</name>
            </trkpt>
            <trkpt lon="11.232820032164454" lat="49.595227958634496">
                <ele>323.14</ele>
                <time>2011-02-26T12:30:44.000Z</time>
                <name>Position 1090</name>
            </trkpt>
            <trkpt lon="11.232694974169135" lat="49.595099966973066">
                <ele>324.1</ele>
                <time>2011-02-26T12:30:45.000Z</time>
                <name>Position 1091</name>
            </trkpt>
            <trkpt lon="11.23255399055779" lat="49.59498303942382">
                <ele>324.58</ele>
                <time>2011-02-26T12:30:46.000Z</time>
                <name>Position 1092</name>
            </trkpt>
            <trkpt lon="11.232392974197865" lat="49.59487097337842">
                <ele>325.06</ele>
                <time>2011-02-26T12:30:47.000Z</time>
                <name>Position 1093</name>
            </trkpt>
            <trkpt lon="11.232216032221913" lat="49.59477097727358">
                <ele>325.54</ele>
                <time>2011-02-26T12:30:48.000Z</time>
                <name>Position 1094</name>
            </trkpt>
            <trkpt lon="11.232020985335112" lat="49.59468296729028">
                <ele>326.5</ele>
                <time>2011-02-26T12:30:49.000Z</time>
                <name>Position 1095</name>
            </trkpt>
            <trkpt lon="11.231814958155155" lat="49.594601998105645">
                <ele>326.5</ele>
                <time>2011-02-26T12:30:50.000Z</time>
                <name>Position 1096</name>
            </trkpt>
            <trkpt lon="11.231591999530792" lat="49.594535026699305">
                <ele>326.99</ele>
                <time>2011-02-26T12:30:51.000Z</time>
                <name>Position 1097</name>
            </trkpt>
            <trkpt lon="11.231357976794243" lat="49.59448096342385">
                <ele>326.99</ele>
                <time>2011-02-26T12:30:52.000Z</time>
                <name>Position 1098</name>
            </trkpt>
            <trkpt lon="11.2311149854213" lat="49.594430001452565">
                <ele>327.47</ele>
                <time>2011-02-26T12:30:53.000Z</time>
                <name>Position 1099</name>
            </trkpt>
            <trkpt lon="11.22844903729856" lat="49.59391702897847">
                <ele>320.74</ele>
                <time>2011-02-26T12:31:05.000Z</time>
                <name>Position 1100</name>
            </trkpt>
            <trkpt lon="11.228100014850497" lat="49.59388199262321">
                <ele>319.78</ele>
                <time>2011-02-26T12:31:07.000Z</time>
                <name>Position 1101</name>
            </trkpt>
            <trkpt lon="11.227941010147333" lat="49.59387897513807">
                <ele>319.3</ele>
                <time>2011-02-26T12:31:08.000Z</time>
                <name>Position 1102</name>
            </trkpt>
            <trkpt lon="11.227788962423801" lat="49.593894984573126">
                <ele>319.3</ele>
                <time>2011-02-26T12:31:09.000Z</time>
                <name>Position 1103</name>
            </trkpt>
            <trkpt lon="11.22763599269092" lat="49.59392096847296">
                <ele>318.81</ele>
                <time>2011-02-26T12:31:10.000Z</time>
                <name>Position 1104</name>
            </trkpt>
            <trkpt lon="11.227481011301279" lat="49.593954998999834">
                <ele>318.81</ele>
                <time>2011-02-26T12:31:11.000Z</time>
                <name>Position 1105</name>
            </trkpt>
            <trkpt lon="11.227324018254876" lat="49.59399498067796">
                <ele>319.3</ele>
                <time>2011-02-26T12:31:12.000Z</time>
                <name>Position 1106</name>
            </trkpt>
            <trkpt lon="11.225947961211205" lat="49.594323970377445">
                <ele>318.81</ele>
                <time>2011-02-26T12:31:21.000Z</time>
                <name>Position 1107</name>
            </trkpt>
            <trkpt lon="11.225819969549775" lat="49.59437501616776">
                <ele>318.81</ele>
                <time>2011-02-26T12:31:22.000Z</time>
                <name>Position 1108</name>
            </trkpt>
            <trkpt lon="11.225693989545107" lat="49.5944369584322">
                <ele>319.3</ele>
                <time>2011-02-26T12:31:23.000Z</time>
                <name>Position 1109</name>
            </trkpt>
            <trkpt lon="11.225589970126748" lat="49.59452203474939">
                <ele>318.81</ele>
                <time>2011-02-26T12:31:24.000Z</time>
                <name>Position 1110</name>
            </trkpt>
            <trkpt lon="11.225496008992195" lat="49.594603003934026">
                <ele>318.81</ele>
                <time>2011-02-26T12:31:25.000Z</time>
                <name>Position 1111</name>
            </trkpt>
            <trkpt lon="11.22529098764062" lat="49.59473703056574">
                <ele>318.81</ele>
                <time>2011-02-26T12:31:27.000Z</time>
                <name>Position 1112</name>
            </trkpt>
            <trkpt lon="11.225181017071009" lat="49.59478103555739">
                <ele>319.3</ele>
                <time>2011-02-26T12:31:28.000Z</time>
                <name>Position 1113</name>
            </trkpt>
            <trkpt lon="11.22505403123796" lat="49.59481003694236">
                <ele>318.81</ele>
                <time>2011-02-26T12:31:29.000Z</time>
                <name>Position 1114</name>
            </trkpt>
            <trkpt lon="11.22492897324264" lat="49.5948220230639">
                <ele>318.81</ele>
                <time>2011-02-26T12:31:30.000Z</time>
                <name>Position 1115</name>
            </trkpt>
            <trkpt lon="11.22479796409607" lat="49.59480903111398">
                <ele>318.81</ele>
                <time>2011-02-26T12:31:31.000Z</time>
                <name>Position 1116</name>
            </trkpt>
            <trkpt lon="11.224678019061685" lat="49.59478002972901">
                <ele>318.33</ele>
                <time>2011-02-26T12:31:32.000Z</time>
                <name>Position 1117</name>
            </trkpt>
            <trkpt lon="11.22456100769341" lat="49.59473602473736">
                <ele>317.85</ele>
                <time>2011-02-26T12:31:33.000Z</time>
                <name>Position 1118</name>
            </trkpt>
            <trkpt lon="11.224440978839993" lat="49.594685984775424">
                <ele>317.85</ele>
                <time>2011-02-26T12:31:34.000Z</time>
                <name>Position 1119</name>
            </trkpt>
            <trkpt lon="11.22391995973885" lat="49.5944559853524">
                <ele>318.33</ele>
                <time>2011-02-26T12:31:38.000Z</time>
                <name>Position 1120</name>
            </trkpt>
            <trkpt lon="11.222919998690486" lat="49.594126995652914">
                <ele>319.3</ele>
                <time>2011-02-26T12:31:45.000Z</time>
                <name>Position 1121</name>
            </trkpt>
            <trkpt lon="11.222812961786985" lat="49.594062035903335">
                <ele>319.3</ele>
                <time>2011-02-26T12:31:46.000Z</time>
                <name>Position 1122</name>
            </trkpt>
            <trkpt lon="11.222722018137574" lat="49.5939929690212">
                <ele>319.3</ele>
                <time>2011-02-26T12:31:47.000Z</time>
                <name>Position 1123</name>
            </trkpt>
            <trkpt lon="11.222085999324918" lat="49.593033995479345">
                <ele>321.22</ele>
                <time>2011-02-26T12:31:57.000Z</time>
                <name>Position 1124</name>
            </trkpt>
            <trkpt lon="11.221344033256173" lat="49.59217602387071">
                <ele>320.74</ele>
                <time>2011-02-26T12:32:06.000Z</time>
                <name>Position 1125</name>
            </trkpt>
            <trkpt lon="11.219590958207846" lat="49.591032983735204">
                <ele>324.58</ele>
                <time>2011-02-26T12:32:19.000Z</time>
                <name>Position 1126</name>
            </trkpt>
            <trkpt lon="11.218099985271692" lat="49.59000603295863">
                <ele>328.43</ele>
                <time>2011-02-26T12:32:31.000Z</time>
                <name>Position 1127</name>
            </trkpt>
            <trkpt lon="11.2157959677279" lat="49.58900196477771">
                <ele>329.87</ele>
                <time>2011-02-26T12:32:44.000Z</time>
                <name>Position 1128</name>
            </trkpt>
            <trkpt lon="11.213375022634864" lat="49.58788298070431">
                <ele>329.87</ele>
                <time>2011-02-26T12:32:56.000Z</time>
                <name>Position 1129</name>
            </trkpt>
            <trkpt lon="11.210571024566889" lat="49.58628295920789">
                <ele>322.66</ele>
                <time>2011-02-26T12:33:08.000Z</time>
                <name>Position 1130</name>
            </trkpt>
            <trkpt lon="11.208934960886836" lat="49.5846919901669">
                <ele>321.7</ele>
                <time>2011-02-26T12:33:17.000Z</time>
                <name>Position 1131</name>
            </trkpt>
            <trkpt lon="11.206370014697313" lat="49.581927973777056">
                <ele>324.1</ele>
                <time>2011-02-26T12:33:33.000Z</time>
                <name>Position 1132</name>
            </trkpt>
            <trkpt lon="11.205945974215865" lat="49.58112699910998">
                <ele>324.1</ele>
                <time>2011-02-26T12:33:38.000Z</time>
                <name>Position 1133</name>
            </trkpt>
            <trkpt lon="11.205918984487653" lat="49.58096799440682">
                <ele>324.1</ele>
                <time>2011-02-26T12:33:39.000Z</time>
                <name>Position 1134</name>
            </trkpt>
            <trkpt lon="11.205827035009861" lat="49.580464996397495">
                <ele>323.14</ele>
                <time>2011-02-26T12:33:43.000Z</time>
                <name>Position 1135</name>
            </trkpt>
            <trkpt lon="11.205767020583153" lat="49.580397019162774">
                <ele>323.14</ele>
                <time>2011-02-26T12:33:44.000Z</time>
                <name>Position 1136</name>
            </trkpt>
            <trkpt lon="11.205682028084993" lat="49.58035100251436">
                <ele>323.14</ele>
                <time>2011-02-26T12:33:45.000Z</time>
                <name>Position 1137</name>
            </trkpt>
            <trkpt lon="11.205581026151776" lat="49.58032602444291">
                <ele>323.14</ele>
                <time>2011-02-26T12:33:46.000Z</time>
                <name>Position 1138</name>
            </trkpt>
            <trkpt lon="11.205471977591515" lat="49.58031898364425">
                <ele>323.14</ele>
                <time>2011-02-26T12:33:47.000Z</time>
                <name>Position 1139</name>
            </trkpt>
            <trkpt lon="11.205359995365143" lat="49.58033197559416">
                <ele>322.66</ele>
                <time>2011-02-26T12:33:48.000Z</time>
                <name>Position 1140</name>
            </trkpt>
            <trkpt lon="11.205235021188855" lat="49.58036399446428">
                <ele>322.66</ele>
                <time>2011-02-26T12:33:49.000Z</time>
                <name>Position 1141</name>
            </trkpt>
            <trkpt lon="11.205099988728762" lat="49.580400958657265">
                <ele>322.18</ele>
                <time>2011-02-26T12:33:50.000Z</time>
                <name>Position 1142</name>
            </trkpt>
            <trkpt lon="11.203731978312135" lat="49.58074998110533">
                <ele>324.1</ele>
                <time>2011-02-26T12:33:57.000Z</time>
                <name>Position 1143</name>
            </trkpt>
            <trkpt lon="11.201453022658825" lat="49.5809550024569">
                <ele>329.39</ele>
                <time>2011-02-26T12:34:06.000Z</time>
                <name>Position 1144</name>
            </trkpt>
            <trkpt lon="11.199861969798803" lat="49.58082298748195">
                <ele>330.83</ele>
                <time>2011-02-26T12:34:13.000Z</time>
                <name>Position 1145</name>
            </trkpt>
            <trkpt lon="11.198921017348766" lat="49.580698013305664">
                <ele>331.79</ele>
                <time>2011-02-26T12:34:21.000Z</time>
                <name>Position 1146</name>
            </trkpt>
            <trkpt lon="11.19817896746099" lat="49.58058200776577">
                <ele>331.31</ele>
                <time>2011-02-26T12:34:28.000Z</time>
                <name>Position 1147</name>
            </trkpt>
            <trkpt lon="11.19654399342835" lat="49.5802990347147">
                <ele>331.79</ele>
                <time>2011-02-26T12:34:36.000Z</time>
                <name>Position 1148</name>
            </trkpt>
            <trkpt lon="11.194007964804769" lat="49.57981598563492">
                <ele>329.87</ele>
                <time>2011-02-26T12:34:46.000Z</time>
                <name>Position 1149</name>
            </trkpt>
            <trkpt lon="11.192609025165439" lat="49.57947802729905">
                <ele>328.43</ele>
                <time>2011-02-26T12:34:54.000Z</time>
                <name>Position 1150</name>
            </trkpt>
            <trkpt lon="11.19106600061059" lat="49.5787120051682">
                <ele>326.02</ele>
                <time>2011-02-26T12:35:02.000Z</time>
                <name>Position 1151</name>
            </trkpt>
            <trkpt lon="11.190074002370238" lat="49.57763199694455">
                <ele>323.14</ele>
                <time>2011-02-26T12:35:09.000Z</time>
                <name>Position 1152</name>
            </trkpt>
            <trkpt lon="11.189836040139198" lat="49.576959013938904">
                <ele>322.66</ele>
                <time>2011-02-26T12:35:14.000Z</time>
                <name>Position 1153</name>
            </trkpt>
            <trkpt lon="11.189801003783941" lat="49.57634403370321">
                <ele>322.18</ele>
                <time>2011-02-26T12:35:21.000Z</time>
                <name>Position 1154</name>
            </trkpt>
            <trkpt lon="11.190155977383256" lat="49.575328985229135">
                <ele>323.62</ele>
                <time>2011-02-26T12:35:29.000Z</time>
                <name>Position 1155</name>
            </trkpt>
            <trkpt lon="11.191081004217267" lat="49.57432701252401">
                <ele>327.47</ele>
                <time>2011-02-26T12:35:37.000Z</time>
                <name>Position 1156</name>
            </trkpt>
            <trkpt lon="11.191242020577192" lat="49.57412199117243">
                <ele>328.43</ele>
                <time>2011-02-26T12:35:40.000Z</time>
                <name>Position 1157</name>
            </trkpt>
            <trkpt lon="11.19125903584063" lat="49.57405703142285">
                <ele>329.39</ele>
                <time>2011-02-26T12:35:41.000Z</time>
                <name>Position 1158</name>
            </trkpt>
            <trkpt lon="11.19125803001225" lat="49.57399299368262">
                <ele>329.87</ele>
                <time>2011-02-26T12:35:42.000Z</time>
                <name>Position 1159</name>
            </trkpt>
            <trkpt lon="11.191211007535458" lat="49.57378696650267">
                <ele>329.87</ele>
                <time>2011-02-26T12:35:45.000Z</time>
                <name>Position 1160</name>
            </trkpt>
            <trkpt lon="11.191155016422272" lat="49.57371303811669">
                <ele>329.87</ele>
                <time>2011-02-26T12:35:46.000Z</time>
                <name>Position 1161</name>
            </trkpt>
            <trkpt lon="11.191083015874028" lat="49.57364003174007">
                <ele>330.35</ele>
                <time>2011-02-26T12:35:47.000Z</time>
                <name>Position 1162</name>
            </trkpt>
            <trkpt lon="11.190397962927818" lat="49.57278298214078">
                <ele>332.27</ele>
                <time>2011-02-26T12:35:55.000Z</time>
                <name>Position 1163</name>
            </trkpt>
            <trkpt lon="11.19008095934987" lat="49.57151203416288">
                <ele>338.52</ele>
                <time>2011-02-26T12:36:03.000Z</time>
                <name>Position 1164</name>
            </trkpt>
            <trkpt lon="11.189504032954574" lat="49.56994101405144">
                <ele>344.29</ele>
                <time>2011-02-26T12:36:12.000Z</time>
                <name>Position 1165</name>
            </trkpt>
            <trkpt lon="11.188196036964655" lat="49.568649027496576">
                <ele>351.5</ele>
                <time>2011-02-26T12:36:20.000Z</time>
                <name>Position 1166</name>
            </trkpt>
            <trkpt lon="11.18588699027896" lat="49.56734002567828">
                <ele>363.04</ele>
                <time>2011-02-26T12:36:30.000Z</time>
                <name>Position 1167</name>
            </trkpt>
            <trkpt lon="11.183292958885431" lat="49.565899008885026">
                <ele>375.05</ele>
                <time>2011-02-26T12:36:41.000Z</time>
                <name>Position 1168</name>
            </trkpt>
            <trkpt lon="11.1820650100708" lat="49.56450702622533">
                <ele>382.74</ele>
                <time>2011-02-26T12:36:49.000Z</time>
                <name>Position 1169</name>
            </trkpt>
            <trkpt lon="11.18068995885551" lat="49.56352299079299">
                <ele>389.47</ele>
                <time>2011-02-26T12:36:56.000Z</time>
                <name>Position 1170</name>
            </trkpt>
            <trkpt lon="11.17860496044159" lat="49.56285696476698">
                <ele>397.64</ele>
                <time>2011-02-26T12:37:04.000Z</time>
                <name>Position 1171</name>
            </trkpt>
            <trkpt lon="11.177129996940494" lat="49.56204601563513">
                <ele>403.41</ele>
                <time>2011-02-26T12:37:11.000Z</time>
                <name>Position 1172</name>
            </trkpt>
            <trkpt lon="11.176275964826345" lat="49.56094798631966">
                <ele>407.26</ele>
                <time>2011-02-26T12:37:18.000Z</time>
                <name>Position 1173</name>
            </trkpt>
            <trkpt lon="11.176012018695474" lat="49.55948802642524">
                <ele>408.22</ele>
                <time>2011-02-26T12:37:26.000Z</time>
                <name>Position 1174</name>
            </trkpt>
            <trkpt lon="11.17542503401637" lat="49.55802001990378">
                <ele>407.74</ele>
                <time>2011-02-26T12:37:34.000Z</time>
                <name>Position 1175</name>
            </trkpt>
            <trkpt lon="11.174172023311257" lat="49.55686801113188">
                <ele>403.41</ele>
                <time>2011-02-26T12:37:41.000Z</time>
                <name>Position 1176</name>
            </trkpt>
            <trkpt lon="11.172015024349093" lat="49.55580602400005">
                <ele>396.68</ele>
                <time>2011-02-26T12:37:49.000Z</time>
                <name>Position 1177</name>
            </trkpt>
            <trkpt lon="11.169228963553905" lat="49.55439995974302">
                <ele>386.11</ele>
                <time>2011-02-26T12:37:59.000Z</time>
                <name>Position 1178</name>
            </trkpt>
            <trkpt lon="11.1677320394665" lat="49.55306396819651">
                <ele>380.82</ele>
                <time>2011-02-26T12:38:07.000Z</time>
                <name>Position 1179</name>
            </trkpt>
            <trkpt lon="11.166231008246541" lat="49.55114803276956">
                <ele>373.61</ele>
                <time>2011-02-26T12:38:19.000Z</time>
                <name>Position 1180</name>
            </trkpt>
            <trkpt lon="11.164609026163816" lat="49.54975596629083">
                <ele>367.36</ele>
                <time>2011-02-26T12:38:29.000Z</time>
                <name>Position 1181</name>
            </trkpt>
            <trkpt lon="11.163301030173898" lat="49.54822702333331">
                <ele>365.44</ele>
                <time>2011-02-26T12:38:39.000Z</time>
                <name>Position 1182</name>
            </trkpt>
            <trkpt lon="11.16285896860063" lat="49.5467010140419">
                <ele>367.36</ele>
                <time>2011-02-26T12:38:48.000Z</time>
                <name>Position 1183</name>
            </trkpt>
            <trkpt lon="11.162659982219338" lat="49.54474501311779">
                <ele>366.4</ele>
                <time>2011-02-26T12:39:00.000Z</time>
                <name>Position 1184</name>
            </trkpt>
            <trkpt lon="11.162652019411325" lat="49.54463797621429">
                <ele>366.4</ele>
                <time>2011-02-26T12:39:01.000Z</time>
                <name>Position 1185</name>
            </trkpt>
            <trkpt lon="11.162622012197971" lat="49.54454703256488">
                <ele>366.4</ele>
                <time>2011-02-26T12:39:02.000Z</time>
                <name>Position 1186</name>
            </trkpt>
            <trkpt lon="11.162558980286121" lat="49.544473020359874">
                <ele>366.88</ele>
                <time>2011-02-26T12:39:03.000Z</time>
                <name>Position 1187</name>
            </trkpt>
            <trkpt lon="11.162468958646059" lat="49.544414011761546">
                <ele>366.88</ele>
                <time>2011-02-26T12:39:04.000Z</time>
                <name>Position 1188</name>
            </trkpt>
            <trkpt lon="11.162369968369603" lat="49.54435299150646">
                <ele>366.88</ele>
                <time>2011-02-26T12:39:05.000Z</time>
                <name>Position 1189</name>
            </trkpt>
            <trkpt lon="11.162197971716523" lat="49.54419398680329">
                <ele>365.92</ele>
                <time>2011-02-26T12:39:07.000Z</time>
                <name>Position 1190</name>
            </trkpt>
            <trkpt lon="11.161491964012384" lat="49.54325404018164">
                <ele>362.07</ele>
                <time>2011-02-26T12:39:15.000Z</time>
                <name>Position 1191</name>
            </trkpt>
            <trkpt lon="11.160098975524306" lat="49.5420990139246">
                <ele>357.27</ele>
                <time>2011-02-26T12:39:24.000Z</time>
                <name>Position 1192</name>
            </trkpt>
            <trkpt lon="11.157156005501747" lat="49.540394973009825">
                <ele>351.02</ele>
                <time>2011-02-26T12:39:40.000Z</time>
                <name>Position 1193</name>
            </trkpt>
            <trkpt lon="11.156391995027661" lat="49.53971100971103">
                <ele>352.46</ele>
                <time>2011-02-26T12:39:49.000Z</time>
                <name>Position 1194</name>
            </trkpt>
            <trkpt lon="11.156197031959891" lat="49.53943499363959">
                <ele>353.42</ele>
                <time>2011-02-26T12:39:53.000Z</time>
                <name>Position 1195</name>
            </trkpt>
            <trkpt lon="11.156157972291112" lat="49.53939702361822">
                <ele>353.42</ele>
                <time>2011-02-26T12:39:54.000Z</time>
                <name>Position 1196</name>
            </trkpt>
            <trkpt lon="11.156085971742868" lat="49.53928998671472">
                <ele>353.42</ele>
                <time>2011-02-26T12:39:57.000Z</time>
                <name>Position 1197</name>
            </trkpt>
            <trkpt lon="11.156083038076758" lat="49.539232989773154">
                <ele>353.42</ele>
                <time>2011-02-26T12:39:58.000Z</time>
                <name>Position 1198</name>
            </trkpt>
            <trkpt lon="11.156080020591617" lat="49.53905001282692">
                <ele>353.42</ele>
                <time>2011-02-26T12:40:01.000Z</time>
                <name>Position 1199</name>
            </trkpt>
            <trkpt lon="11.156055964529514" lat="49.538977006450295">
                <ele>353.42</ele>
                <time>2011-02-26T12:40:02.000Z</time>
                <name>Position 1200</name>
            </trkpt>
            <trkpt lon="11.156020006164908" lat="49.53890500590205">
                <ele>352.94</ele>
                <time>2011-02-26T12:40:03.000Z</time>
                <name>Position 1201</name>
            </trkpt>
            <trkpt lon="11.15533403120935" lat="49.53784796409309">
                <ele>350.06</ele>
                <time>2011-02-26T12:40:16.000Z</time>
                <name>Position 1202</name>
            </trkpt>
            <trkpt lon="11.155154993757606" lat="49.53758996911347">
                <ele>350.06</ele>
                <time>2011-02-26T12:40:19.000Z</time>
                <name>Position 1203</name>
            </trkpt>
            <trkpt lon="11.154654007405043" lat="49.53643100336194">
                <ele>350.54</ele>
                <time>2011-02-26T12:40:31.000Z</time>
                <name>Position 1204</name>
            </trkpt>
            <trkpt lon="11.15400499664247" lat="49.535407992079854">
                <ele>354.38</ele>
                <time>2011-02-26T12:40:42.000Z</time>
                <name>Position 1205</name>
            </trkpt>
            <trkpt lon="11.153394961729646" lat="49.53440501354635">
                <ele>351.02</ele>
                <time>2011-02-26T12:40:54.000Z</time>
                <name>Position 1206</name>
            </trkpt>
            <trkpt lon="11.153098996728659" lat="49.53392297029495">
                <ele>350.06</ele>
                <time>2011-02-26T12:41:00.000Z</time>
                <name>Position 1207</name>
            </trkpt>
            <trkpt lon="11.152798002585769" lat="49.53348300419748">
                <ele>351.5</ele>
                <time>2011-02-26T12:41:08.000Z</time>
                <name>Position 1208</name>
            </trkpt>
            <trkpt lon="11.152598010376096" lat="49.53320698812604">
                <ele>349.58</ele>
                <time>2011-02-26T12:41:12.000Z</time>
                <name>Position 1209</name>
            </trkpt>
            <trkpt lon="11.151801981031895" lat="49.53213603235781">
                <ele>347.65</ele>
                <time>2011-02-26T12:41:25.000Z</time>
                <name>Position 1210</name>
            </trkpt>
            <trkpt lon="11.151003018021584" lat="49.53095602802932">
                <ele>351.98</ele>
                <time>2011-02-26T12:41:41.000Z</time>
                <name>Position 1211</name>
            </trkpt>
            <trkpt lon="11.150831021368504" lat="49.53000099398196">
                <ele>353.9</ele>
                <time>2011-02-26T12:41:54.000Z</time>
                <name>Position 1212</name>
            </trkpt>
            <trkpt lon="11.151056997478008" lat="49.528856026008725">
                <ele>353.42</ele>
                <time>2011-02-26T12:42:06.000Z</time>
                <name>Position 1213</name>
            </trkpt>
            <trkpt lon="11.151372995227575" lat="49.5273910369724">
                <ele>352.94</ele>
                <time>2011-02-26T12:42:21.000Z</time>
                <name>Position 1214</name>
            </trkpt>
            <trkpt lon="11.151284985244274" lat="49.526597019284964">
                <ele>351.5</ele>
                <time>2011-02-26T12:42:31.000Z</time>
                <name>Position 1215</name>
            </trkpt>
            <trkpt lon="11.150492979213595" lat="49.52248502522707">
                <ele>335.16</ele>
                <time>2011-02-26T15:57:03.000Z</time>
                <name>Position 1216</name>
            </trkpt>
            <trkpt lon="11.149841034784913" lat="49.52123302035034">
                <ele>335.16</ele>
                <time>2011-02-26T15:57:13.000Z</time>
                <name>Position 1217</name>
            </trkpt>
            <trkpt lon="11.149474997073412" lat="49.52059498988092">
                <ele>336.12</ele>
                <time>2011-02-26T15:57:19.000Z</time>
                <name>Position 1218</name>
            </trkpt>
            <trkpt lon="11.14947197958827" lat="49.52050102874637">
                <ele>336.12</ele>
                <time>2011-02-26T15:57:20.000Z</time>
                <name>Position 1219</name>
            </trkpt>
            <trkpt lon="11.149490000680089" lat="49.520413018763065">
                <ele>335.64</ele>
                <time>2011-02-26T15:57:21.000Z</time>
                <name>Position 1220</name>
            </trkpt>
            <trkpt lon="11.14951397292316" lat="49.52021202072501">
                <ele>338.52</ele>
                <time>2011-02-26T15:57:24.000Z</time>
                <name>Position 1221</name>
            </trkpt>
            <trkpt lon="11.149495029821992" lat="49.520172039046884">
                <ele>338.04</ele>
                <time>2011-02-26T15:57:25.000Z</time>
                <name>Position 1222</name>
            </trkpt>
            <trkpt lon="11.149454964324832" lat="49.520132979378104">
                <ele>337.56</ele>
                <time>2011-02-26T15:57:26.000Z</time>
                <name>Position 1223</name>
            </trkpt>
            <trkpt lon="11.149390004575253" lat="49.52010297216475">
                <ele>337.08</ele>
                <time>2011-02-26T15:57:27.000Z</time>
                <name>Position 1224</name>
            </trkpt>
            <trkpt lon="11.14929998293519" lat="49.52006198465824">
                <ele>337.56</ele>
                <time>2011-02-26T15:57:28.000Z</time>
                <name>Position 1225</name>
            </trkpt>
            <trkpt lon="11.148426001891494" lat="49.519597040489316">
                <ele>338.52</ele>
                <time>2011-02-26T15:57:35.000Z</time>
                <name>Position 1226</name>
            </trkpt>
            <trkpt lon="11.147040976211429" lat="49.51855600811541">
                <ele>341.41</ele>
                <time>2011-02-26T15:57:44.000Z</time>
                <name>Position 1227</name>
            </trkpt>
            <trkpt lon="11.144918007776141" lat="49.5169279910624">
                <ele>350.06</ele>
                <time>2011-02-26T15:57:56.000Z</time>
                <name>Position 1228</name>
            </trkpt>
            <trkpt lon="11.142666041851044" lat="49.515902968123555">
                <ele>356.31</ele>
                <time>2011-02-26T15:58:06.000Z</time>
                <name>Position 1229</name>
            </trkpt>
            <trkpt lon="11.13849001005292" lat="49.51430202461779">
                <ele>370.24</ele>
                <time>2011-02-26T15:58:23.000Z</time>
                <name>Position 1230</name>
            </trkpt>
            <trkpt lon="11.136291017755866" lat="49.51278096064925">
                <ele>375.05</ele>
                <time>2011-02-26T15:58:34.000Z</time>
                <name>Position 1231</name>
            </trkpt>
            <trkpt lon="11.13488302566111" lat="49.51108203269541">
                <ele>371.69</ele>
                <time>2011-02-26T15:58:44.000Z</time>
                <name>Position 1232</name>
            </trkpt>
            <trkpt lon="11.134252035990357" lat="49.509690972045064">
                <ele>364.96</ele>
                <time>2011-02-26T15:58:52.000Z</time>
                <name>Position 1233</name>
            </trkpt>
            <trkpt lon="11.134038968011737" lat="49.50806999579072">
                <ele>355.34</ele>
                <time>2011-02-26T15:59:01.000Z</time>
                <name>Position 1234</name>
            </trkpt>
            <trkpt lon="11.134118009358644" lat="49.50598197989166">
                <ele>345.25</ele>
                <time>2011-02-26T15:59:13.000Z</time>
                <name>Position 1235</name>
            </trkpt>
            <trkpt lon="11.134112980216742" lat="49.50345399789512">
                <ele>341.41</ele>
                <time>2011-02-26T15:59:27.000Z</time>
                <name>Position 1236</name>
            </trkpt>
            <trkpt lon="11.1339389719069" lat="49.50054598040879">
                <ele>339.96</ele>
                <time>2011-02-26T15:59:42.000Z</time>
                <name>Position 1237</name>
            </trkpt>
            <trkpt lon="11.133783990517259" lat="49.4984729681164">
                <ele>333.23</ele>
                <time>2011-02-26T15:59:54.000Z</time>
                <name>Position 1238</name>
            </trkpt>
            <trkpt lon="11.133653987199068" lat="49.49763100594282">
                <ele>330.83</ele>
                <time>2011-02-26T16:00:01.000Z</time>
                <name>Position 1239</name>
            </trkpt>
            <trkpt lon="11.13359497860074" lat="49.497485999017954">
                <ele>330.83</ele>
                <time>2011-02-26T16:00:07.000Z</time>
                <name>Position 1240</name>
            </trkpt>
            <trkpt lon="11.13359397277236" lat="49.497400000691414">
                <ele>331.79</ele>
                <time>2011-02-26T16:00:28.000Z</time>
                <name>Position 1241</name>
            </trkpt>
            <trkpt lon="11.133642001077533" lat="49.49737502261996">
                <ele>331.31</ele>
                <time>2011-02-26T16:00:29.000Z</time>
                <name>Position 1242</name>
            </trkpt>
            <trkpt lon="11.133695980533957" lat="49.49735197238624">
                <ele>331.31</ele>
                <time>2011-02-26T16:00:30.000Z</time>
                <name>Position 1243</name>
            </trkpt>
            <trkpt lon="11.133772004395723" lat="49.497340992093086">
                <ele>331.31</ele>
                <time>2011-02-26T16:00:31.000Z</time>
                <name>Position 1244</name>
            </trkpt>
            <trkpt lon="11.133866971358657" lat="49.497340992093086">
                <ele>330.83</ele>
                <time>2011-02-26T16:00:32.000Z</time>
                <name>Position 1245</name>
            </trkpt>
            <trkpt lon="11.133975014090538" lat="49.49734602123499">
                <ele>330.83</ele>
                <time>2011-02-26T16:00:33.000Z</time>
                <name>Position 1246</name>
            </trkpt>
            <trkpt lon="11.134229991585016" lat="49.497363958507776">
                <ele>330.35</ele>
                <time>2011-02-26T16:00:35.000Z</time>
                <name>Position 1247</name>
            </trkpt>
            <trkpt lon="11.134870033711195" lat="49.49751701205969">
                <ele>329.39</ele>
                <time>2011-02-26T16:00:39.000Z</time>
                <name>Position 1248</name>
            </trkpt>
            <trkpt lon="11.13503498956561" lat="49.49758800677955">
                <ele>328.43</ele>
                <time>2011-02-26T16:00:40.000Z</time>
                <name>Position 1249</name>
            </trkpt>
            <trkpt lon="11.136650014668703" lat="49.49838101863861">
                <ele>326.02</ele>
                <time>2011-02-26T16:00:49.000Z</time>
                <name>Position 1250</name>
            </trkpt>
            <trkpt lon="11.136827040463686" lat="49.49844002723694">
                <ele>326.02</ele>
                <time>2011-02-26T16:00:50.000Z</time>
                <name>Position 1251</name>
            </trkpt>
            <trkpt lon="11.137019991874695" lat="49.49846902862191">
                <ele>326.02</ele>
                <time>2011-02-26T16:00:51.000Z</time>
                <name>Position 1252</name>
            </trkpt>
            <trkpt lon="11.137216966599226" lat="49.49848403222859">
                <ele>326.5</ele>
                <time>2011-02-26T16:00:52.000Z</time>
                <name>Position 1253</name>
            </trkpt>
            <trkpt lon="11.137413019314408" lat="49.49846601113677">
                <ele>326.5</ele>
                <time>2011-02-26T16:00:53.000Z</time>
                <name>Position 1254</name>
            </trkpt>
            <trkpt lon="11.1376120056957" lat="49.49842502363026">
                <ele>326.99</ele>
                <time>2011-02-26T16:00:54.000Z</time>
                <name>Position 1255</name>
            </trkpt>
            <trkpt lon="11.137800011783838" lat="49.498366015031934">
                <ele>326.5</ele>
                <time>2011-02-26T16:00:55.000Z</time>
                <name>Position 1256</name>
            </trkpt>
            <trkpt lon="11.13797896541655" lat="49.49828999117017">
                <ele>326.5</ele>
                <time>2011-02-26T16:00:56.000Z</time>
                <name>Position 1257</name>
            </trkpt>
            <trkpt lon="11.139773027971387" lat="49.49753603897989">
                <ele>326.02</ele>
                <time>2011-02-26T16:01:04.000Z</time>
                <name>Position 1258</name>
            </trkpt>
            <trkpt lon="11.142406035214663" lat="49.49627003632486">
                <ele>326.02</ele>
                <time>2011-02-26T16:01:14.000Z</time>
                <name>Position 1259</name>
            </trkpt>
            <trkpt lon="11.148067004978657" lat="49.49348799884319">
                <ele>323.62</ele>
                <time>2011-02-26T16:01:34.000Z</time>
                <name>Position 1260</name>
            </trkpt>
            <trkpt lon="11.151600982993841" lat="49.49175504036248">
                <ele>320.74</ele>
                <time>2011-02-26T16:01:46.000Z</time>
                <name>Position 1261</name>
            </trkpt>
            <trkpt lon="11.155514996498823" lat="49.4898110255599">
                <ele>320.74</ele>
                <time>2011-02-26T16:02:01.000Z</time>
                <name>Position 1262</name>
            </trkpt>
            <trkpt lon="11.161091979593039" lat="49.48704298585653">
                <ele>320.26</ele>
                <time>2011-02-26T16:02:22.000Z</time>
                <name>Position 1263</name>
            </trkpt>
            <trkpt lon="11.167204985395074" lat="49.484020974487066">
                <ele>318.81</ele>
                <time>2011-02-26T16:02:44.000Z</time>
                <name>Position 1264</name>
            </trkpt>
            <trkpt lon="11.170709962025285" lat="49.4819160271436">
                <ele>315.45</ele>
                <time>2011-02-26T16:02:57.000Z</time>
                <name>Position 1265</name>
            </trkpt>
            <trkpt lon="11.173799028620124" lat="49.47944596409798">
                <ele>313.05</ele>
                <time>2011-02-26T16:03:10.000Z</time>
                <name>Position 1266</name>
            </trkpt>
            <trkpt lon="11.177741037681699" lat="49.47618196718395">
                <ele>308.24</ele>
                <time>2011-02-26T16:03:27.000Z</time>
                <name>Position 1267</name>
            </trkpt>
            <trkpt lon="11.182318981736898" lat="49.47242603637278">
                <ele>308.72</ele>
                <time>2011-02-26T16:03:47.000Z</time>
                <name>Position 1268</name>
            </trkpt>
            <trkpt lon="11.18653298355639" lat="49.46903295814991">
                <ele>308.72</ele>
                <time>2011-02-26T16:04:06.000Z</time>
                <name>Position 1269</name>
            </trkpt>
            <trkpt lon="11.188997011631727" lat="49.467561012133956">
                <ele>313.53</ele>
                <time>2011-02-26T16:04:16.000Z</time>
                <name>Position 1270</name>
            </trkpt>
            <trkpt lon="11.192333009094" lat="49.46612996980548">
                <ele>319.3</ele>
                <time>2011-02-26T16:04:28.000Z</time>
                <name>Position 1271</name>
            </trkpt>
            <trkpt lon="11.195958014577627" lat="49.46514300070703">
                <ele>320.26</ele>
                <time>2011-02-26T16:04:39.000Z</time>
                <name>Position 1272</name>
            </trkpt>
            <trkpt lon="11.19991502724588" lat="49.46462097577751">
                <ele>321.22</ele>
                <time>2011-02-26T16:04:50.000Z</time>
                <name>Position 1273</name>
            </trkpt>
            <trkpt lon="11.203541038557887" lat="49.46460203267634">
                <ele>320.26</ele>
                <time>2011-02-26T16:05:00.000Z</time>
                <name>Position 1274</name>
            </trkpt>
            <trkpt lon="11.208389969542623" lat="49.4651030190289">
                <ele>321.7</ele>
                <time>2011-02-26T16:05:14.000Z</time>
                <name>Position 1275</name>
            </trkpt>
            <trkpt lon="11.213139994069934" lat="49.46567801758647">
                <ele>321.7</ele>
                <time>2011-02-26T16:05:28.000Z</time>
                <name>Position 1276</name>
            </trkpt>
            <trkpt lon="11.216916963458061" lat="49.466141033917665">
                <ele>321.7</ele>
                <time>2011-02-26T16:05:39.000Z</time>
                <name>Position 1277</name>
            </trkpt>
            <trkpt lon="11.22067398391664" lat="49.466139022260904">
                <ele>328.43</ele>
                <time>2011-02-26T16:05:50.000Z</time>
                <name>Position 1278</name>
            </trkpt>
            <trkpt lon="11.224439973011613" lat="49.46570299565792">
                <ele>328.91</ele>
                <time>2011-02-26T16:06:01.000Z</time>
                <name>Position 1279</name>
            </trkpt>
            <trkpt lon="11.227771025151014" lat="49.464891040697694">
                <ele>329.87</ele>
                <time>2011-02-26T16:06:11.000Z</time>
                <name>Position 1280</name>
            </trkpt>
            <trkpt lon="11.231163013726473" lat="49.46357097476721">
                <ele>330.83</ele>
                <time>2011-02-26T16:06:22.000Z</time>
                <name>Position 1281</name>
            </trkpt>
            <trkpt lon="11.234045969322324" lat="49.46187296882272">
                <ele>333.71</ele>
                <time>2011-02-26T16:06:33.000Z</time>
                <name>Position 1282</name>
            </trkpt>
            <trkpt lon="11.236023008823395" lat="49.460213016718626">
                <ele>336.6</ele>
                <time>2011-02-26T16:06:43.000Z</time>
                <name>Position 1283</name>
            </trkpt>
            <trkpt lon="11.237443992868066" lat="49.458366986364126">
                <ele>337.08</ele>
                <time>2011-02-26T16:06:53.000Z</time>
                <name>Position 1284</name>
            </trkpt>
            <trkpt lon="11.238153018057346" lat="49.456540988758206">
                <ele>337.56</ele>
                <time>2011-02-26T16:07:02.000Z</time>
                <name>Position 1285</name>
            </trkpt>
            <trkpt lon="11.23820599168539" lat="49.45448398590088">
                <ele>339.96</ele>
                <time>2011-02-26T16:07:12.000Z</time>
                <name>Position 1286</name>
            </trkpt>
            <trkpt lon="11.237563015893102" lat="49.45246797055006">
                <ele>341.41</ele>
                <time>2011-02-26T16:07:22.000Z</time>
                <name>Position 1287</name>
            </trkpt>
            <trkpt lon="11.236219983547926" lat="49.45059000514448">
                <ele>344.29</ele>
                <time>2011-02-26T16:07:32.000Z</time>
                <name>Position 1288</name>
            </trkpt>
            <trkpt lon="11.23291902244091" lat="49.447040017694235">
                <ele>349.1</ele>
                <time>2011-02-26T16:07:52.000Z</time>
                <name>Position 1289</name>
            </trkpt>
            <trkpt lon="11.228997968137264" lat="49.44323102943599">
                <ele>361.11</ele>
                <time>2011-02-26T16:08:14.000Z</time>
                <name>Position 1290</name>
            </trkpt>
            <trkpt lon="11.224468974396586" lat="49.439219031482935">
                <ele>372.17</ele>
                <time>2011-02-26T16:08:38.000Z</time>
                <name>Position 1291</name>
            </trkpt>
            <trkpt lon="11.220485977828503" lat="49.435673989355564">
                <ele>378.9</ele>
                <time>2011-02-26T16:08:59.000Z</time>
                <name>Position 1292</name>
            </trkpt>
            <trkpt lon="11.217283001169562" lat="49.43277703598142">
                <ele>370.73</ele>
                <time>2011-02-26T16:09:15.000Z</time>
                <name>Position 1293</name>
            </trkpt>
            <trkpt lon="11.213767966255546" lat="49.42962703295052">
                <ele>361.59</ele>
                <time>2011-02-26T16:09:32.000Z</time>
                <name>Position 1294</name>
            </trkpt>
            <trkpt lon="11.20984598994255" lat="49.42609900608659">
                <ele>352.94</ele>
                <time>2011-02-26T16:09:51.000Z</time>
                <name>Position 1295</name>
            </trkpt>
            <trkpt lon="11.205884031951427" lat="49.422288006171584">
                <ele>350.06</ele>
                <time>2011-02-26T16:10:12.000Z</time>
                <name>Position 1296</name>
            </trkpt>
            <trkpt lon="11.201911009848118" lat="49.41833300516009">
                <ele>349.1</ele>
                <time>2011-02-26T16:10:34.000Z</time>
                <name>Position 1297</name>
            </trkpt>
            <trkpt lon="11.198335960507393" lat="49.4147390127182">
                <ele>355.34</ele>
                <time>2011-02-26T16:10:53.000Z</time>
                <name>Position 1298</name>
            </trkpt>
            <trkpt lon="11.196893015876412" lat="49.41274504177272">
                <ele>356.79</ele>
                <time>2011-02-26T16:11:03.000Z</time>
                <name>Position 1299</name>
            </trkpt>
            <trkpt lon="11.195764979347587" lat="49.41028595902026">
                <ele>365.44</ele>
                <time>2011-02-26T16:11:15.000Z</time>
                <name>Position 1300</name>
            </trkpt>
            <trkpt lon="11.195231974124908" lat="49.407681031152606">
                <ele>373.61</ele>
                <time>2011-02-26T16:11:28.000Z</time>
                <name>Position 1301</name>
            </trkpt>
            <trkpt lon="11.195286959409714" lat="49.405597960576415">
                <ele>376.01</ele>
                <time>2011-02-26T16:11:38.000Z</time>
                <name>Position 1302</name>
            </trkpt>
            <trkpt lon="11.196020040661097" lat="49.4028200302273">
                <ele>373.13</ele>
                <time>2011-02-26T16:11:51.000Z</time>
                <name>Position 1303</name>
            </trkpt>
            <trkpt lon="11.197481006383896" lat="49.399689976125956">
                <ele>367.36</ele>
                <time>2011-02-26T16:12:06.000Z</time>
                <name>Position 1304</name>
            </trkpt>
            <trkpt lon="11.197880990803242" lat="49.398010997101665">
                <ele>366.88</ele>
                <time>2011-02-26T16:12:14.000Z</time>
                <name>Position 1305</name>
            </trkpt>
            <trkpt lon="11.197434989735484" lat="49.39660602249205">
                <ele>372.65</ele>
                <time>2011-02-26T16:12:21.000Z</time>
                <name>Position 1306</name>
            </trkpt>
            <trkpt lon="11.19615700095892" lat="49.39544403925538">
                <ele>373.13</ele>
                <time>2011-02-26T16:12:28.000Z</time>
                <name>Position 1307</name>
            </trkpt>
            <trkpt lon="11.194485984742641" lat="49.39482604153454">
                <ele>371.69</ele>
                <time>2011-02-26T16:12:34.000Z</time>
                <name>Position 1308</name>
            </trkpt>
            <trkpt lon="11.190695017576218" lat="49.39404400996864">
                <ele>364.96</ele>
                <time>2011-02-26T16:12:46.000Z</time>
                <name>Position 1309</name>
            </trkpt>
            <trkpt lon="11.186398034915328" lat="49.393176985904574">
                <ele>364.0</ele>
                <time>2011-02-26T16:13:00.000Z</time>
                <name>Position 1310</name>
            </trkpt>
            <trkpt lon="11.180533971637487" lat="49.39215397462249">
                <ele>358.23</ele>
                <time>2011-02-26T16:13:19.000Z</time>
                <name>Position 1311</name>
            </trkpt>
            <trkpt lon="11.17583298124373" lat="49.39176597632468">
                <ele>359.67</ele>
                <time>2011-02-26T16:13:34.000Z</time>
                <name>Position 1312</name>
            </trkpt>
            <trkpt lon="11.168069997802377" lat="49.39124898053706">
                <ele>371.69</ele>
                <time>2011-02-26T16:13:58.000Z</time>
                <name>Position 1313</name>
            </trkpt>
            <trkpt lon="11.164626041427255" lat="49.390920996665955">
                <ele>374.57</ele>
                <time>2011-02-26T16:14:09.000Z</time>
                <name>Position 1314</name>
            </trkpt>
            <trkpt lon="11.1609420273453" lat="49.390235021710396">
                <ele>379.86</ele>
                <time>2011-02-26T16:14:21.000Z</time>
                <name>Position 1315</name>
            </trkpt>
            <trkpt lon="11.157403020188212" lat="49.38929499126971">
                <ele>381.78</ele>
                <time>2011-02-26T16:14:33.000Z</time>
                <name>Position 1316</name>
            </trkpt>
            <trkpt lon="11.153022972866893" lat="49.38772598281503">
                <ele>378.42</ele>
                <time>2011-02-26T16:14:48.000Z</time>
                <name>Position 1317</name>
            </trkpt>
            <trkpt lon="11.149344993755221" lat="49.38592404127121">
                <ele>370.73</ele>
                <time>2011-02-26T16:15:02.000Z</time>
                <name>Position 1318</name>
            </trkpt>
            <trkpt lon="11.14631300792098" lat="49.38407499343157">
                <ele>372.17</ele>
                <time>2011-02-26T16:15:15.000Z</time>
                <name>Position 1319</name>
            </trkpt>
            <trkpt lon="11.141631966456771" lat="49.381230007857084">
                <ele>370.24</ele>
                <time>2011-02-26T16:15:35.000Z</time>
                <name>Position 1320</name>
            </trkpt>
            <trkpt lon="11.138456985354424" lat="49.379812041297555">
                <ele>367.36</ele>
                <time>2011-02-26T16:15:47.000Z</time>
                <name>Position 1321</name>
            </trkpt>
            <trkpt lon="11.136556975543499" lat="49.37969201244414">
                <ele>367.36</ele>
                <time>2011-02-26T16:15:53.000Z</time>
                <name>Position 1322</name>
            </trkpt>
            <trkpt lon="11.134742964059114" lat="49.379515992477536">
                <ele>367.36</ele>
                <time>2011-02-26T16:15:59.000Z</time>
                <name>Position 1323</name>
            </trkpt>
            <trkpt lon="11.134468959644437" lat="49.379514986649156">
                <ele>367.84</ele>
                <time>2011-02-26T16:16:00.000Z</time>
                <name>Position 1324</name>
            </trkpt>
            <trkpt lon="11.134201996028423" lat="49.379538958892226">
                <ele>368.32</ele>
                <time>2011-02-26T16:16:01.000Z</time>
                <name>Position 1325</name>
            </trkpt>
            <trkpt lon="11.133954981341958" lat="49.37959402799606">
                <ele>367.84</ele>
                <time>2011-02-26T16:16:02.000Z</time>
                <name>Position 1326</name>
            </trkpt>
            <trkpt lon="11.133717019110918" lat="49.3796699680388">
                <ele>367.84</ele>
                <time>2011-02-26T16:16:03.000Z</time>
                <name>Position 1327</name>
            </trkpt>
            <trkpt lon="11.133501017466187" lat="49.379767030477524">
                <ele>367.84</ele>
                <time>2011-02-26T16:16:04.000Z</time>
                <name>Position 1328</name>
            </trkpt>
            <trkpt lon="11.13329398445785" lat="49.37988203018904">
                <ele>367.36</ele>
                <time>2011-02-26T16:16:05.000Z</time>
                <name>Position 1329</name>
            </trkpt>
            <trkpt lon="11.133101033046842" lat="49.38001597300172">
                <ele>366.4</ele>
                <time>2011-02-26T16:16:06.000Z</time>
                <name>Position 1330</name>
            </trkpt>
            <trkpt lon="11.131363967433572" lat="49.3811409920454">
                <ele>362.07</ele>
                <time>2011-02-26T16:16:14.000Z</time>
                <name>Position 1331</name>
            </trkpt>
            <trkpt lon="11.1283059976995" lat="49.38314703293145">
                <ele>355.34</ele>
                <time>2011-02-26T16:16:26.000Z</time>
                <name>Position 1332</name>
            </trkpt>
            <trkpt lon="11.124082021415234" lat="49.386066030710936">
                <ele>349.58</ele>
                <time>2011-02-26T16:16:43.000Z</time>
                <name>Position 1333</name>
            </trkpt>
            <trkpt lon="11.120739988982677" lat="49.38869995996356">
                <ele>344.77</ele>
                <time>2011-02-26T16:16:58.000Z</time>
                <name>Position 1334</name>
            </trkpt>
            <trkpt lon="11.117395022884011" lat="49.39132500439882">
                <ele>339.48</ele>
                <time>2011-02-26T16:17:12.000Z</time>
                <name>Position 1335</name>
            </trkpt>
            <trkpt lon="11.114435037598014" lat="49.39306198619306">
                <ele>340.44</ele>
                <time>2011-02-26T16:17:23.000Z</time>
                <name>Position 1336</name>
            </trkpt>
            <trkpt lon="11.111212028190494" lat="49.39426998607814">
                <ele>339.0</ele>
                <time>2011-02-26T16:17:34.000Z</time>
                <name>Position 1337</name>
            </trkpt>
            <trkpt lon="11.107907965779305" lat="49.3949559610337">
                <ele>337.56</ele>
                <time>2011-02-26T16:17:44.000Z</time>
                <name>Position 1338</name>
            </trkpt>
            <trkpt lon="11.104040974751115" lat="49.395177997648716">
                <ele>335.16</ele>
                <time>2011-02-26T16:17:55.000Z</time>
                <name>Position 1339</name>
            </trkpt>
            <trkpt lon="11.099531007930636" lat="49.395006000995636">
                <ele>331.31</ele>
                <time>2011-02-26T16:18:08.000Z</time>
                <name>Position 1340</name>
            </trkpt>
        </trkseg>
    </trk>
</gpx>
